<?xml version="1.0" encoding="UTF-8" standalone="no" ?>
<gpx xmlns="http://www.topografix.com/GPX/1/1" xmlns:xsi="http://www.w3.org/2001/XMLSchema-instance" xsi:schemaLocation="http://www.topografix.com/GPX/1/1 http://www.topografix.com/GPX/1/1/gpx.xsd" version="1.1" creator="VisuGPX - https://www.visugpx.com">
  <metadata>
    <name>Activité Randonnée TwoNav</name>
    <desc><![CDATA[2023-03-03_162502.trk]]></desc>
  </metadata>
  <trk>
    <name><![CDATA[Activité Randonnée TwoNav_1]]></name>
    <trkseg>
      <trkpt lat="48.19449" lon="6.5359">
        <ele>349.9</ele>
        <time>2023-03-03T15:25:02Z</time>
      </trkpt>
      <trkpt lat="48.19449" lon="6.5359">
        <ele>349.9</ele>
        <time>2023-03-03T15:25:02Z</time>
      </trkpt>
      <trkpt lat="48.1945" lon="6.53587">
        <ele>349.9</ele>
        <time>2023-03-03T15:25:03Z</time>
      </trkpt>
      <trkpt lat="48.19438" lon="6.53582">
        <ele>350.1</ele>
        <time>2023-03-03T15:25:06Z</time>
      </trkpt>
      <trkpt lat="48.19427" lon="6.5358">
        <ele>350.4</ele>
        <time>2023-03-03T15:25:08Z</time>
      </trkpt>
      <trkpt lat="48.19416" lon="6.53578">
        <ele>350.6</ele>
        <time>2023-03-03T15:25:10Z</time>
      </trkpt>
      <trkpt lat="48.19407" lon="6.53574">
        <ele>350.7</ele>
        <time>2023-03-03T15:25:19Z</time>
      </trkpt>
      <trkpt lat="48.19393" lon="6.53549">
        <ele>350.8</ele>
        <time>2023-03-03T15:25:41Z</time>
      </trkpt>
      <trkpt lat="48.19407" lon="6.53543">
        <ele>350.4</ele>
        <time>2023-03-03T15:25:46Z</time>
      </trkpt>
      <trkpt lat="48.19417" lon="6.53539">
        <ele>350</ele>
        <time>2023-03-03T15:25:49Z</time>
      </trkpt>
      <trkpt lat="48.19428" lon="6.53539">
        <ele>349.5</ele>
        <time>2023-03-03T15:25:52Z</time>
      </trkpt>
      <trkpt lat="48.19437" lon="6.53534">
        <ele>349</ele>
        <time>2023-03-03T15:25:56Z</time>
      </trkpt>
      <trkpt lat="48.19449" lon="6.5353">
        <ele>348.5</ele>
        <time>2023-03-03T15:26:02Z</time>
      </trkpt>
      <trkpt lat="48.19451" lon="6.53517">
        <ele>347.4</ele>
        <time>2023-03-03T15:26:13Z</time>
      </trkpt>
      <trkpt lat="48.1946" lon="6.53525">
        <ele>347.4</ele>
        <time>2023-03-03T15:26:21Z</time>
      </trkpt>
      <trkpt lat="48.19473" lon="6.53536">
        <ele>347.4</ele>
        <time>2023-03-03T15:26:25Z</time>
      </trkpt>
      <trkpt lat="48.19475" lon="6.53552">
        <ele>347.4</ele>
        <time>2023-03-03T15:26:31Z</time>
      </trkpt>
      <trkpt lat="48.19479" lon="6.53565">
        <ele>347.4</ele>
        <time>2023-03-03T15:26:36Z</time>
      </trkpt>
      <trkpt lat="48.19481" lon="6.5358">
        <ele>347.4</ele>
        <time>2023-03-03T15:26:45Z</time>
      </trkpt>
      <trkpt lat="48.19488" lon="6.53592">
        <ele>347.4</ele>
        <time>2023-03-03T15:26:53Z</time>
      </trkpt>
      <trkpt lat="48.19485" lon="6.53607">
        <ele>347.4</ele>
        <time>2023-03-03T15:27:00Z</time>
      </trkpt>
      <trkpt lat="48.19482" lon="6.53622">
        <ele>347.3</ele>
        <time>2023-03-03T15:27:08Z</time>
      </trkpt>
      <trkpt lat="48.19477" lon="6.53634">
        <ele>347.3</ele>
        <time>2023-03-03T15:27:15Z</time>
      </trkpt>
      <trkpt lat="48.19479" lon="6.53648">
        <ele>347.2</ele>
        <time>2023-03-03T15:27:22Z</time>
      </trkpt>
      <trkpt lat="48.19473" lon="6.53661">
        <ele>347.2</ele>
        <time>2023-03-03T15:27:27Z</time>
      </trkpt>
      <trkpt lat="48.19466" lon="6.53671">
        <ele>347.2</ele>
        <time>2023-03-03T15:27:32Z</time>
      </trkpt>
      <trkpt lat="48.19463" lon="6.53692">
        <ele>347.2</ele>
        <time>2023-03-03T15:27:40Z</time>
      </trkpt>
      <trkpt lat="48.19461" lon="6.53699">
        <ele>347.2</ele>
        <time>2023-03-03T15:27:49Z</time>
      </trkpt>
      <trkpt lat="48.19459" lon="6.53706">
        <ele>347.2</ele>
        <time>2023-03-03T15:27:55Z</time>
      </trkpt>
      <trkpt lat="48.19457" lon="6.53712">
        <ele>347.3</ele>
        <time>2023-03-03T15:27:56Z</time>
      </trkpt>
      <trkpt lat="48.1946" lon="6.53726">
        <ele>347.3</ele>
        <time>2023-03-03T15:28:04Z</time>
      </trkpt>
      <trkpt lat="48.19456" lon="6.5374">
        <ele>347.4</ele>
        <time>2023-03-03T15:28:12Z</time>
      </trkpt>
      <trkpt lat="48.19448" lon="6.53747">
        <ele>347.5</ele>
        <time>2023-03-03T15:28:16Z</time>
      </trkpt>
      <trkpt lat="48.19446" lon="6.5376">
        <ele>347.6</ele>
        <time>2023-03-03T15:28:23Z</time>
      </trkpt>
      <trkpt lat="48.19438" lon="6.53768">
        <ele>347.7</ele>
        <time>2023-03-03T15:28:25Z</time>
      </trkpt>
      <trkpt lat="48.19434" lon="6.53781">
        <ele>347.8</ele>
        <time>2023-03-03T15:28:32Z</time>
      </trkpt>
      <trkpt lat="48.19435" lon="6.53796">
        <ele>347.8</ele>
        <time>2023-03-03T15:28:38Z</time>
      </trkpt>
      <trkpt lat="48.19442" lon="6.53809">
        <ele>348.4</ele>
        <time>2023-03-03T15:28:45Z</time>
      </trkpt>
      <trkpt lat="48.1945" lon="6.53815">
        <ele>348.7</ele>
        <time>2023-03-03T15:28:48Z</time>
      </trkpt>
      <trkpt lat="48.19443" lon="6.53824">
        <ele>349.1</ele>
        <time>2023-03-03T15:28:54Z</time>
      </trkpt>
      <trkpt lat="48.19434" lon="6.53831">
        <ele>349.4</ele>
        <time>2023-03-03T15:29:01Z</time>
      </trkpt>
      <trkpt lat="48.19424" lon="6.53832">
        <ele>349.6</ele>
        <time>2023-03-03T15:29:07Z</time>
      </trkpt>
      <trkpt lat="48.19421" lon="6.53846">
        <ele>349.7</ele>
        <time>2023-03-03T15:29:23Z</time>
      </trkpt>
      <trkpt lat="48.19416" lon="6.53862">
        <ele>349.9</ele>
        <time>2023-03-03T15:29:30Z</time>
      </trkpt>
      <trkpt lat="48.1941" lon="6.53873">
        <ele>350.1</ele>
        <time>2023-03-03T15:29:37Z</time>
      </trkpt>
      <trkpt lat="48.19405" lon="6.53888">
        <ele>350.4</ele>
        <time>2023-03-03T15:29:44Z</time>
      </trkpt>
      <trkpt lat="48.19405" lon="6.53902">
        <ele>350.6</ele>
        <time>2023-03-03T15:29:58Z</time>
      </trkpt>
      <trkpt lat="48.19396" lon="6.53892">
        <ele>350.9</ele>
        <time>2023-03-03T15:30:20Z</time>
      </trkpt>
      <trkpt lat="48.19404" lon="6.53881">
        <ele>351</ele>
        <time>2023-03-03T15:30:25Z</time>
      </trkpt>
      <trkpt lat="48.194" lon="6.53893">
        <ele>351</ele>
        <time>2023-03-03T15:30:29Z</time>
      </trkpt>
      <trkpt lat="48.19395" lon="6.53903">
        <ele>351.1</ele>
        <time>2023-03-03T15:30:51Z</time>
      </trkpt>
      <trkpt lat="48.19394" lon="6.53904">
        <ele>351.1</ele>
        <time>2023-03-03T15:30:52Z</time>
      </trkpt>
      <trkpt lat="48.19395" lon="6.53917">
        <ele>351.1</ele>
        <time>2023-03-03T15:31:02Z</time>
      </trkpt>
      <trkpt lat="48.19387" lon="6.53928">
        <ele>351.2</ele>
        <time>2023-03-03T15:31:12Z</time>
      </trkpt>
      <trkpt lat="48.1938" lon="6.53937">
        <ele>351.3</ele>
        <time>2023-03-03T15:31:21Z</time>
      </trkpt>
      <trkpt lat="48.19372" lon="6.53946">
        <ele>351.4</ele>
        <time>2023-03-03T15:31:27Z</time>
      </trkpt>
      <trkpt lat="48.19368" lon="6.53958">
        <ele>351.5</ele>
        <time>2023-03-03T15:31:33Z</time>
      </trkpt>
      <trkpt lat="48.19367" lon="6.53974">
        <ele>351.7</ele>
        <time>2023-03-03T15:31:39Z</time>
      </trkpt>
      <trkpt lat="48.19361" lon="6.53985">
        <ele>351.9</ele>
        <time>2023-03-03T15:31:46Z</time>
      </trkpt>
      <trkpt lat="48.19353" lon="6.53994">
        <ele>352.1</ele>
        <time>2023-03-03T15:31:56Z</time>
      </trkpt>
      <trkpt lat="48.19344" lon="6.53996">
        <ele>352.4</ele>
        <time>2023-03-03T15:32:08Z</time>
      </trkpt>
      <trkpt lat="48.1934" lon="6.54009">
        <ele>352.7</ele>
        <time>2023-03-03T15:32:16Z</time>
      </trkpt>
      <trkpt lat="48.19334" lon="6.54018">
        <ele>353</ele>
        <time>2023-03-03T15:32:23Z</time>
      </trkpt>
      <trkpt lat="48.19326" lon="6.54029">
        <ele>353.4</ele>
        <time>2023-03-03T15:32:31Z</time>
      </trkpt>
      <trkpt lat="48.19319" lon="6.54039">
        <ele>353.7</ele>
        <time>2023-03-03T15:32:40Z</time>
      </trkpt>
      <trkpt lat="48.19311" lon="6.54048">
        <ele>354.1</ele>
        <time>2023-03-03T15:32:48Z</time>
      </trkpt>
      <trkpt lat="48.19307" lon="6.5406">
        <ele>354.4</ele>
        <time>2023-03-03T15:32:57Z</time>
      </trkpt>
      <trkpt lat="48.193" lon="6.54069">
        <ele>354.6</ele>
        <time>2023-03-03T15:33:03Z</time>
      </trkpt>
      <trkpt lat="48.19297" lon="6.54082">
        <ele>354.9</ele>
        <time>2023-03-03T15:33:10Z</time>
      </trkpt>
      <trkpt lat="48.19296" lon="6.54097">
        <ele>355.2</ele>
        <time>2023-03-03T15:33:18Z</time>
      </trkpt>
      <trkpt lat="48.19291" lon="6.54109">
        <ele>355.4</ele>
        <time>2023-03-03T15:33:26Z</time>
      </trkpt>
      <trkpt lat="48.19287" lon="6.54123">
        <ele>355.7</ele>
        <time>2023-03-03T15:33:38Z</time>
      </trkpt>
      <trkpt lat="48.19284" lon="6.54136">
        <ele>355.9</ele>
        <time>2023-03-03T15:33:46Z</time>
      </trkpt>
      <trkpt lat="48.19281" lon="6.54149">
        <ele>356.2</ele>
        <time>2023-03-03T15:33:54Z</time>
      </trkpt>
      <trkpt lat="48.1928" lon="6.54163">
        <ele>356.5</ele>
        <time>2023-03-03T15:34:04Z</time>
      </trkpt>
      <trkpt lat="48.19279" lon="6.54179">
        <ele>357</ele>
        <time>2023-03-03T15:34:10Z</time>
      </trkpt>
      <trkpt lat="48.19274" lon="6.54192">
        <ele>357.4</ele>
        <time>2023-03-03T15:34:18Z</time>
      </trkpt>
      <trkpt lat="48.19265" lon="6.54191">
        <ele>358</ele>
        <time>2023-03-03T15:34:32Z</time>
      </trkpt>
      <trkpt lat="48.19265" lon="6.54206">
        <ele>358.7</ele>
        <time>2023-03-03T15:34:43Z</time>
      </trkpt>
      <trkpt lat="48.19261" lon="6.5422">
        <ele>359.5</ele>
        <time>2023-03-03T15:34:52Z</time>
      </trkpt>
      <trkpt lat="48.19259" lon="6.54233">
        <ele>360</ele>
        <time>2023-03-03T15:35:02Z</time>
      </trkpt>
      <trkpt lat="48.19255" lon="6.54246">
        <ele>360.4</ele>
        <time>2023-03-03T15:35:12Z</time>
      </trkpt>
      <trkpt lat="48.19252" lon="6.5426">
        <ele>360.6</ele>
        <time>2023-03-03T15:35:23Z</time>
      </trkpt>
      <trkpt lat="48.19251" lon="6.54273">
        <ele>360.6</ele>
        <time>2023-03-03T15:35:31Z</time>
      </trkpt>
      <trkpt lat="48.19252" lon="6.54287">
        <ele>360.6</ele>
        <time>2023-03-03T15:35:39Z</time>
      </trkpt>
      <trkpt lat="48.19252" lon="6.54301">
        <ele>360.6</ele>
        <time>2023-03-03T15:35:47Z</time>
      </trkpt>
      <trkpt lat="48.19252" lon="6.54315">
        <ele>360.7</ele>
        <time>2023-03-03T15:35:55Z</time>
      </trkpt>
      <trkpt lat="48.19246" lon="6.54327">
        <ele>361</ele>
        <time>2023-03-03T15:36:02Z</time>
      </trkpt>
      <trkpt lat="48.19243" lon="6.5434">
        <ele>361.2</ele>
        <time>2023-03-03T15:36:09Z</time>
      </trkpt>
      <trkpt lat="48.19242" lon="6.54355">
        <ele>361.3</ele>
        <time>2023-03-03T15:36:19Z</time>
      </trkpt>
      <trkpt lat="48.19241" lon="6.54369">
        <ele>361.3</ele>
        <time>2023-03-03T15:36:29Z</time>
      </trkpt>
      <trkpt lat="48.19237" lon="6.54383">
        <ele>361.4</ele>
        <time>2023-03-03T15:36:38Z</time>
      </trkpt>
      <trkpt lat="48.19236" lon="6.54397">
        <ele>361.4</ele>
        <time>2023-03-03T15:36:49Z</time>
      </trkpt>
      <trkpt lat="48.19235" lon="6.54412">
        <ele>361.4</ele>
        <time>2023-03-03T15:36:56Z</time>
      </trkpt>
      <trkpt lat="48.1923" lon="6.54424">
        <ele>361.4</ele>
        <time>2023-03-03T15:37:01Z</time>
      </trkpt>
      <trkpt lat="48.19228" lon="6.54438">
        <ele>361.4</ele>
        <time>2023-03-03T15:37:10Z</time>
      </trkpt>
      <trkpt lat="48.19222" lon="6.5445">
        <ele>361.4</ele>
        <time>2023-03-03T15:37:18Z</time>
      </trkpt>
      <trkpt lat="48.19213" lon="6.54453">
        <ele>361.1</ele>
        <time>2023-03-03T15:37:28Z</time>
      </trkpt>
      <trkpt lat="48.1922" lon="6.54461">
        <ele>360.8</ele>
        <time>2023-03-03T15:37:34Z</time>
      </trkpt>
      <trkpt lat="48.1922" lon="6.54475">
        <ele>360.4</ele>
        <time>2023-03-03T15:37:46Z</time>
      </trkpt>
      <trkpt lat="48.19218" lon="6.54489">
        <ele>359.9</ele>
        <time>2023-03-03T15:37:54Z</time>
      </trkpt>
      <trkpt lat="48.19224" lon="6.54502">
        <ele>359.3</ele>
        <time>2023-03-03T15:38:02Z</time>
      </trkpt>
      <trkpt lat="48.19232" lon="6.54513">
        <ele>358.8</ele>
        <time>2023-03-03T15:38:06Z</time>
      </trkpt>
      <trkpt lat="48.19229" lon="6.54526">
        <ele>358.3</ele>
        <time>2023-03-03T15:38:14Z</time>
      </trkpt>
      <trkpt lat="48.1923" lon="6.54541">
        <ele>357.8</ele>
        <time>2023-03-03T15:38:21Z</time>
      </trkpt>
      <trkpt lat="48.19232" lon="6.54554">
        <ele>357.3</ele>
        <time>2023-03-03T15:38:30Z</time>
      </trkpt>
      <trkpt lat="48.19239" lon="6.54565">
        <ele>356.7</ele>
        <time>2023-03-03T15:38:38Z</time>
      </trkpt>
      <trkpt lat="48.19245" lon="6.54577">
        <ele>356</ele>
        <time>2023-03-03T15:38:45Z</time>
      </trkpt>
      <trkpt lat="48.19251" lon="6.5459">
        <ele>355.1</ele>
        <time>2023-03-03T15:38:54Z</time>
      </trkpt>
      <trkpt lat="48.19258" lon="6.546">
        <ele>354.5</ele>
        <time>2023-03-03T15:39:02Z</time>
      </trkpt>
      <trkpt lat="48.19265" lon="6.5461">
        <ele>354</ele>
        <time>2023-03-03T15:39:15Z</time>
      </trkpt>
      <trkpt lat="48.19274" lon="6.54614">
        <ele>353.5</ele>
        <time>2023-03-03T15:39:26Z</time>
      </trkpt>
      <trkpt lat="48.19283" lon="6.54614">
        <ele>353</ele>
        <time>2023-03-03T15:39:36Z</time>
      </trkpt>
      <trkpt lat="48.19293" lon="6.54617">
        <ele>352.6</ele>
        <time>2023-03-03T15:39:41Z</time>
      </trkpt>
      <trkpt lat="48.19303" lon="6.5462">
        <ele>352.1</ele>
        <time>2023-03-03T15:39:46Z</time>
      </trkpt>
      <trkpt lat="48.19311" lon="6.54623">
        <ele>351.9</ele>
        <time>2023-03-03T15:39:51Z</time>
      </trkpt>
      <trkpt lat="48.19319" lon="6.54631">
        <ele>351.7</ele>
        <time>2023-03-03T15:39:58Z</time>
      </trkpt>
      <trkpt lat="48.19329" lon="6.54635">
        <ele>351.5</ele>
        <time>2023-03-03T15:40:04Z</time>
      </trkpt>
      <trkpt lat="48.19337" lon="6.5464">
        <ele>351.4</ele>
        <time>2023-03-03T15:40:13Z</time>
      </trkpt>
      <trkpt lat="48.19345" lon="6.54647">
        <ele>351.2</ele>
        <time>2023-03-03T15:40:21Z</time>
      </trkpt>
      <trkpt lat="48.19352" lon="6.54658">
        <ele>351.1</ele>
        <time>2023-03-03T15:40:28Z</time>
      </trkpt>
      <trkpt lat="48.1936" lon="6.54667">
        <ele>351</ele>
        <time>2023-03-03T15:40:35Z</time>
      </trkpt>
      <trkpt lat="48.19368" lon="6.54678">
        <ele>351.1</ele>
        <time>2023-03-03T15:40:43Z</time>
      </trkpt>
      <trkpt lat="48.19367" lon="6.54694">
        <ele>351.2</ele>
        <time>2023-03-03T15:40:53Z</time>
      </trkpt>
      <trkpt lat="48.1937" lon="6.54708">
        <ele>351.4</ele>
        <time>2023-03-03T15:41:00Z</time>
      </trkpt>
      <trkpt lat="48.19374" lon="6.54721">
        <ele>351.7</ele>
        <time>2023-03-03T15:41:08Z</time>
      </trkpt>
      <trkpt lat="48.19378" lon="6.54735">
        <ele>352</ele>
        <time>2023-03-03T15:41:17Z</time>
      </trkpt>
      <trkpt lat="48.19377" lon="6.5475">
        <ele>352.2</ele>
        <time>2023-03-03T15:41:28Z</time>
      </trkpt>
      <trkpt lat="48.19376" lon="6.54766">
        <ele>352.4</ele>
        <time>2023-03-03T15:41:36Z</time>
      </trkpt>
      <trkpt lat="48.19373" lon="6.54779">
        <ele>352.6</ele>
        <time>2023-03-03T15:41:45Z</time>
      </trkpt>
      <trkpt lat="48.19368" lon="6.54791">
        <ele>352.8</ele>
        <time>2023-03-03T15:41:53Z</time>
      </trkpt>
      <trkpt lat="48.19363" lon="6.54805">
        <ele>353</ele>
        <time>2023-03-03T15:42:00Z</time>
      </trkpt>
      <trkpt lat="48.19356" lon="6.54815">
        <ele>353.3</ele>
        <time>2023-03-03T15:42:07Z</time>
      </trkpt>
      <trkpt lat="48.19354" lon="6.54829">
        <ele>353.7</ele>
        <time>2023-03-03T15:42:15Z</time>
      </trkpt>
      <trkpt lat="48.19356" lon="6.54843">
        <ele>354.1</ele>
        <time>2023-03-03T15:42:23Z</time>
      </trkpt>
      <trkpt lat="48.19362" lon="6.54854">
        <ele>354.6</ele>
        <time>2023-03-03T15:42:35Z</time>
      </trkpt>
      <trkpt lat="48.19368" lon="6.54865">
        <ele>355.3</ele>
        <time>2023-03-03T15:42:47Z</time>
      </trkpt>
      <trkpt lat="48.19377" lon="6.54869">
        <ele>355.9</ele>
        <time>2023-03-03T15:42:54Z</time>
      </trkpt>
      <trkpt lat="48.19385" lon="6.54876">
        <ele>356.6</ele>
        <time>2023-03-03T15:43:03Z</time>
      </trkpt>
      <trkpt lat="48.1939" lon="6.54889">
        <ele>357.4</ele>
        <time>2023-03-03T15:43:09Z</time>
      </trkpt>
      <trkpt lat="48.19395" lon="6.54899">
        <ele>358.2</ele>
        <time>2023-03-03T15:43:17Z</time>
      </trkpt>
      <trkpt lat="48.19402" lon="6.54908">
        <ele>359</ele>
        <time>2023-03-03T15:43:27Z</time>
      </trkpt>
      <trkpt lat="48.1941" lon="6.54917">
        <ele>359.9</ele>
        <time>2023-03-03T15:43:33Z</time>
      </trkpt>
      <trkpt lat="48.19419" lon="6.5492">
        <ele>360.7</ele>
        <time>2023-03-03T15:43:47Z</time>
      </trkpt>
      <trkpt lat="48.19429" lon="6.54924">
        <ele>361.3</ele>
        <time>2023-03-03T15:43:58Z</time>
      </trkpt>
      <trkpt lat="48.19438" lon="6.54929">
        <ele>361.9</ele>
        <time>2023-03-03T15:44:04Z</time>
      </trkpt>
      <trkpt lat="48.19444" lon="6.5494">
        <ele>362.4</ele>
        <time>2023-03-03T15:44:11Z</time>
      </trkpt>
      <trkpt lat="48.19452" lon="6.5495">
        <ele>362.7</ele>
        <time>2023-03-03T15:44:18Z</time>
      </trkpt>
      <trkpt lat="48.19452" lon="6.5495">
        <ele>362.7</ele>
        <time>2023-03-03T15:44:19Z</time>
      </trkpt>
      <trkpt lat="48.19452" lon="6.5495">
        <ele>362.7</ele>
        <time>2023-03-03T15:44:20Z</time>
      </trkpt>
      <trkpt lat="48.1946" lon="6.54958">
        <ele>363</ele>
        <time>2023-03-03T15:44:27Z</time>
      </trkpt>
      <trkpt lat="48.19462" lon="6.54958">
        <ele>363</ele>
        <time>2023-03-03T15:44:30Z</time>
      </trkpt>
      <trkpt lat="48.19462" lon="6.54959">
        <ele>363</ele>
        <time>2023-03-03T15:44:31Z</time>
      </trkpt>
      <trkpt lat="48.19472" lon="6.54967">
        <ele>363.3</ele>
        <time>2023-03-03T15:44:37Z</time>
      </trkpt>
      <trkpt lat="48.1948" lon="6.54973">
        <ele>363.6</ele>
        <time>2023-03-03T15:44:43Z</time>
      </trkpt>
      <trkpt lat="48.19489" lon="6.54978">
        <ele>364</ele>
        <time>2023-03-03T15:44:55Z</time>
      </trkpt>
      <trkpt lat="48.19497" lon="6.54988">
        <ele>364.4</ele>
        <time>2023-03-03T15:45:02Z</time>
      </trkpt>
      <trkpt lat="48.19503" lon="6.54999">
        <ele>364.9</ele>
        <time>2023-03-03T15:45:08Z</time>
      </trkpt>
      <trkpt lat="48.19508" lon="6.55012">
        <ele>365.4</ele>
        <time>2023-03-03T15:45:15Z</time>
      </trkpt>
      <trkpt lat="48.19516" lon="6.55019">
        <ele>365.7</ele>
        <time>2023-03-03T15:45:21Z</time>
      </trkpt>
      <trkpt lat="48.19522" lon="6.55028">
        <ele>366</ele>
        <time>2023-03-03T15:45:31Z</time>
      </trkpt>
      <trkpt lat="48.19527" lon="6.55041">
        <ele>366.2</ele>
        <time>2023-03-03T15:45:39Z</time>
      </trkpt>
      <trkpt lat="48.19533" lon="6.5505">
        <ele>366.4</ele>
        <time>2023-03-03T15:45:47Z</time>
      </trkpt>
      <trkpt lat="48.19541" lon="6.55059">
        <ele>366.7</ele>
        <time>2023-03-03T15:45:53Z</time>
      </trkpt>
      <trkpt lat="48.19549" lon="6.55067">
        <ele>366.9</ele>
        <time>2023-03-03T15:46:00Z</time>
      </trkpt>
      <trkpt lat="48.19557" lon="6.55074">
        <ele>367.1</ele>
        <time>2023-03-03T15:46:07Z</time>
      </trkpt>
      <trkpt lat="48.1956" lon="6.55088">
        <ele>367.3</ele>
        <time>2023-03-03T15:46:17Z</time>
      </trkpt>
      <trkpt lat="48.19566" lon="6.55098">
        <ele>367.6</ele>
        <time>2023-03-03T15:46:26Z</time>
      </trkpt>
      <trkpt lat="48.19572" lon="6.55111">
        <ele>367.9</ele>
        <time>2023-03-03T15:46:37Z</time>
      </trkpt>
      <trkpt lat="48.1958" lon="6.55117">
        <ele>368.2</ele>
        <time>2023-03-03T15:46:44Z</time>
      </trkpt>
      <trkpt lat="48.19587" lon="6.55127">
        <ele>368.6</ele>
        <time>2023-03-03T15:46:52Z</time>
      </trkpt>
      <trkpt lat="48.19595" lon="6.55135">
        <ele>368.9</ele>
        <time>2023-03-03T15:46:59Z</time>
      </trkpt>
      <trkpt lat="48.19601" lon="6.55145">
        <ele>369.1</ele>
        <time>2023-03-03T15:47:07Z</time>
      </trkpt>
      <trkpt lat="48.19606" lon="6.55156">
        <ele>369.2</ele>
        <time>2023-03-03T15:47:16Z</time>
      </trkpt>
      <trkpt lat="48.19614" lon="6.55164">
        <ele>369.2</ele>
        <time>2023-03-03T15:47:22Z</time>
      </trkpt>
      <trkpt lat="48.19624" lon="6.55165">
        <ele>369.1</ele>
        <time>2023-03-03T15:47:31Z</time>
      </trkpt>
      <trkpt lat="48.19633" lon="6.5517">
        <ele>369</ele>
        <time>2023-03-03T15:47:37Z</time>
      </trkpt>
      <trkpt lat="48.19642" lon="6.55174">
        <ele>368.9</ele>
        <time>2023-03-03T15:47:47Z</time>
      </trkpt>
      <trkpt lat="48.19649" lon="6.55184">
        <ele>368.8</ele>
        <time>2023-03-03T15:47:56Z</time>
      </trkpt>
      <trkpt lat="48.19658" lon="6.55187">
        <ele>368.7</ele>
        <time>2023-03-03T15:48:04Z</time>
      </trkpt>
      <trkpt lat="48.19667" lon="6.55191">
        <ele>368.6</ele>
        <time>2023-03-03T15:48:10Z</time>
      </trkpt>
      <trkpt lat="48.19676" lon="6.55195">
        <ele>368.6</ele>
        <time>2023-03-03T15:48:18Z</time>
      </trkpt>
      <trkpt lat="48.19681" lon="6.55204">
        <ele>368.5</ele>
        <time>2023-03-03T15:48:28Z</time>
      </trkpt>
      <trkpt lat="48.19682" lon="6.55204">
        <ele>368.5</ele>
        <time>2023-03-03T15:48:33Z</time>
      </trkpt>
      <trkpt lat="48.19691" lon="6.55205">
        <ele>368.4</ele>
        <time>2023-03-03T15:48:46Z</time>
      </trkpt>
      <trkpt lat="48.197" lon="6.55211">
        <ele>368.1</ele>
        <time>2023-03-03T15:48:57Z</time>
      </trkpt>
      <trkpt lat="48.19708" lon="6.55216">
        <ele>367.9</ele>
        <time>2023-03-03T15:49:02Z</time>
      </trkpt>
      <trkpt lat="48.19719" lon="6.55219">
        <ele>367.8</ele>
        <time>2023-03-03T15:49:07Z</time>
      </trkpt>
      <trkpt lat="48.19728" lon="6.55222">
        <ele>367.7</ele>
        <time>2023-03-03T15:49:12Z</time>
      </trkpt>
      <trkpt lat="48.19736" lon="6.55231">
        <ele>367.7</ele>
        <time>2023-03-03T15:49:19Z</time>
      </trkpt>
      <trkpt lat="48.19746" lon="6.55238">
        <ele>367.8</ele>
        <time>2023-03-03T15:49:26Z</time>
      </trkpt>
      <trkpt lat="48.1975" lon="6.5525">
        <ele>367.9</ele>
        <time>2023-03-03T15:49:32Z</time>
      </trkpt>
      <trkpt lat="48.19756" lon="6.5526">
        <ele>368</ele>
        <time>2023-03-03T15:49:38Z</time>
      </trkpt>
      <trkpt lat="48.19752" lon="6.55275">
        <ele>368.2</ele>
        <time>2023-03-03T15:49:48Z</time>
      </trkpt>
      <trkpt lat="48.19757" lon="6.55288">
        <ele>368.3</ele>
        <time>2023-03-03T15:49:56Z</time>
      </trkpt>
      <trkpt lat="48.19766" lon="6.55295">
        <ele>368.4</ele>
        <time>2023-03-03T15:50:01Z</time>
      </trkpt>
      <trkpt lat="48.19772" lon="6.55308">
        <ele>368.6</ele>
        <time>2023-03-03T15:50:09Z</time>
      </trkpt>
      <trkpt lat="48.19778" lon="6.55318">
        <ele>368.8</ele>
        <time>2023-03-03T15:50:15Z</time>
      </trkpt>
      <trkpt lat="48.19785" lon="6.55327">
        <ele>369</ele>
        <time>2023-03-03T15:50:24Z</time>
      </trkpt>
      <trkpt lat="48.19789" lon="6.5534">
        <ele>369.3</ele>
        <time>2023-03-03T15:50:33Z</time>
      </trkpt>
      <trkpt lat="48.19796" lon="6.55349">
        <ele>369.7</ele>
        <time>2023-03-03T15:50:42Z</time>
      </trkpt>
      <trkpt lat="48.19804" lon="6.55358">
        <ele>370.1</ele>
        <time>2023-03-03T15:50:48Z</time>
      </trkpt>
      <trkpt lat="48.19808" lon="6.55372">
        <ele>370.5</ele>
        <time>2023-03-03T15:50:57Z</time>
      </trkpt>
      <trkpt lat="48.19818" lon="6.55375">
        <ele>371</ele>
        <time>2023-03-03T15:51:07Z</time>
      </trkpt>
      <trkpt lat="48.19822" lon="6.55388">
        <ele>371.4</ele>
        <time>2023-03-03T15:51:21Z</time>
      </trkpt>
      <trkpt lat="48.19826" lon="6.55402">
        <ele>371.8</ele>
        <time>2023-03-03T15:51:29Z</time>
      </trkpt>
      <trkpt lat="48.19831" lon="6.55415">
        <ele>372.2</ele>
        <time>2023-03-03T15:51:42Z</time>
      </trkpt>
      <trkpt lat="48.1984" lon="6.55424">
        <ele>372.6</ele>
        <time>2023-03-03T15:51:47Z</time>
      </trkpt>
      <trkpt lat="48.19849" lon="6.55433">
        <ele>372.9</ele>
        <time>2023-03-03T15:51:54Z</time>
      </trkpt>
      <trkpt lat="48.19857" lon="6.5544">
        <ele>373.1</ele>
        <time>2023-03-03T15:52:03Z</time>
      </trkpt>
      <trkpt lat="48.19864" lon="6.5545">
        <ele>373.2</ele>
        <time>2023-03-03T15:52:11Z</time>
      </trkpt>
      <trkpt lat="48.19871" lon="6.55459">
        <ele>373.2</ele>
        <time>2023-03-03T15:52:20Z</time>
      </trkpt>
      <trkpt lat="48.1988" lon="6.55464">
        <ele>373.2</ele>
        <time>2023-03-03T15:52:27Z</time>
      </trkpt>
      <trkpt lat="48.19888" lon="6.55473">
        <ele>373.3</ele>
        <time>2023-03-03T15:52:35Z</time>
      </trkpt>
      <trkpt lat="48.19896" lon="6.55483">
        <ele>373.3</ele>
        <time>2023-03-03T15:52:40Z</time>
      </trkpt>
      <trkpt lat="48.19903" lon="6.55492">
        <ele>373.3</ele>
        <time>2023-03-03T15:52:47Z</time>
      </trkpt>
      <trkpt lat="48.19907" lon="6.55505">
        <ele>373.2</ele>
        <time>2023-03-03T15:52:54Z</time>
      </trkpt>
      <trkpt lat="48.19914" lon="6.55514">
        <ele>373.1</ele>
        <time>2023-03-03T15:53:01Z</time>
      </trkpt>
      <trkpt lat="48.19921" lon="6.55524">
        <ele>373</ele>
        <time>2023-03-03T15:53:08Z</time>
      </trkpt>
      <trkpt lat="48.19927" lon="6.55535">
        <ele>372.8</ele>
        <time>2023-03-03T15:53:17Z</time>
      </trkpt>
      <trkpt lat="48.19934" lon="6.55546">
        <ele>372.6</ele>
        <time>2023-03-03T15:53:24Z</time>
      </trkpt>
      <trkpt lat="48.19941" lon="6.55555">
        <ele>372.4</ele>
        <time>2023-03-03T15:53:30Z</time>
      </trkpt>
      <trkpt lat="48.19947" lon="6.55567">
        <ele>372.1</ele>
        <time>2023-03-03T15:53:38Z</time>
      </trkpt>
      <trkpt lat="48.19949" lon="6.55581">
        <ele>371.9</ele>
        <time>2023-03-03T15:53:46Z</time>
      </trkpt>
      <trkpt lat="48.19953" lon="6.55594">
        <ele>371.7</ele>
        <time>2023-03-03T15:53:52Z</time>
      </trkpt>
      <trkpt lat="48.19959" lon="6.55608">
        <ele>371.3</ele>
        <time>2023-03-03T15:54:02Z</time>
      </trkpt>
      <trkpt lat="48.19963" lon="6.55621">
        <ele>371</ele>
        <time>2023-03-03T15:54:09Z</time>
      </trkpt>
      <trkpt lat="48.19962" lon="6.55635">
        <ele>370.6</ele>
        <time>2023-03-03T15:54:15Z</time>
      </trkpt>
      <trkpt lat="48.19965" lon="6.55649">
        <ele>370.1</ele>
        <time>2023-03-03T15:54:22Z</time>
      </trkpt>
      <trkpt lat="48.19972" lon="6.5566">
        <ele>369.7</ele>
        <time>2023-03-03T15:54:28Z</time>
      </trkpt>
      <trkpt lat="48.19974" lon="6.55673">
        <ele>369.3</ele>
        <time>2023-03-03T15:54:50Z</time>
      </trkpt>
      <trkpt lat="48.19982" lon="6.55679">
        <ele>368.9</ele>
        <time>2023-03-03T15:54:55Z</time>
      </trkpt>
      <trkpt lat="48.19989" lon="6.55691">
        <ele>368.5</ele>
        <time>2023-03-03T15:55:02Z</time>
      </trkpt>
      <trkpt lat="48.19993" lon="6.55704">
        <ele>368</ele>
        <time>2023-03-03T15:55:08Z</time>
      </trkpt>
      <trkpt lat="48.19993" lon="6.5572">
        <ele>367.7</ele>
        <time>2023-03-03T15:55:13Z</time>
      </trkpt>
      <trkpt lat="48.19989" lon="6.55732">
        <ele>367.9</ele>
        <time>2023-03-03T15:55:19Z</time>
      </trkpt>
      <trkpt lat="48.19984" lon="6.55745">
        <ele>368</ele>
        <time>2023-03-03T15:55:27Z</time>
      </trkpt>
      <trkpt lat="48.1998" lon="6.55759">
        <ele>368.1</ele>
        <time>2023-03-03T15:55:36Z</time>
      </trkpt>
      <trkpt lat="48.19972" lon="6.55767">
        <ele>368.3</ele>
        <time>2023-03-03T15:55:41Z</time>
      </trkpt>
      <trkpt lat="48.19964" lon="6.55776">
        <ele>368.5</ele>
        <time>2023-03-03T15:55:50Z</time>
      </trkpt>
      <trkpt lat="48.19957" lon="6.55786">
        <ele>368.8</ele>
        <time>2023-03-03T15:55:57Z</time>
      </trkpt>
      <trkpt lat="48.19955" lon="6.55799">
        <ele>368.9</ele>
        <time>2023-03-03T15:56:07Z</time>
      </trkpt>
      <trkpt lat="48.19952" lon="6.55815">
        <ele>368.7</ele>
        <time>2023-03-03T15:56:17Z</time>
      </trkpt>
      <trkpt lat="48.19954" lon="6.55829">
        <ele>368.4</ele>
        <time>2023-03-03T15:56:27Z</time>
      </trkpt>
      <trkpt lat="48.19963" lon="6.55838">
        <ele>368.2</ele>
        <time>2023-03-03T15:56:33Z</time>
      </trkpt>
      <trkpt lat="48.1997" lon="6.55846">
        <ele>368</ele>
        <time>2023-03-03T15:56:38Z</time>
      </trkpt>
      <trkpt lat="48.19974" lon="6.5586">
        <ele>367.9</ele>
        <time>2023-03-03T15:56:45Z</time>
      </trkpt>
      <trkpt lat="48.1998" lon="6.55871">
        <ele>367.8</ele>
        <time>2023-03-03T15:56:57Z</time>
      </trkpt>
      <trkpt lat="48.19983" lon="6.55885">
        <ele>367.7</ele>
        <time>2023-03-03T15:57:07Z</time>
      </trkpt>
      <trkpt lat="48.1999" lon="6.55895">
        <ele>367.6</ele>
        <time>2023-03-03T15:57:15Z</time>
      </trkpt>
      <trkpt lat="48.19997" lon="6.55905">
        <ele>367.5</ele>
        <time>2023-03-03T15:57:25Z</time>
      </trkpt>
      <trkpt lat="48.19997" lon="6.5592">
        <ele>367.2</ele>
        <time>2023-03-03T15:57:32Z</time>
      </trkpt>
      <trkpt lat="48.19997" lon="6.55934">
        <ele>366.8</ele>
        <time>2023-03-03T15:57:39Z</time>
      </trkpt>
      <trkpt lat="48.19994" lon="6.55947">
        <ele>366.4</ele>
        <time>2023-03-03T15:57:51Z</time>
      </trkpt>
      <trkpt lat="48.1999" lon="6.55962">
        <ele>366.1</ele>
        <time>2023-03-03T15:58:07Z</time>
      </trkpt>
      <trkpt lat="48.19984" lon="6.55973">
        <ele>366.2</ele>
        <time>2023-03-03T15:58:14Z</time>
      </trkpt>
      <trkpt lat="48.19973" lon="6.55974">
        <ele>366.5</ele>
        <time>2023-03-03T15:58:25Z</time>
      </trkpt>
      <trkpt lat="48.19969" lon="6.55975">
        <ele>366.6</ele>
        <time>2023-03-03T15:58:29Z</time>
      </trkpt>
      <trkpt lat="48.19969" lon="6.55975">
        <ele>366.7</ele>
        <time>2023-03-03T15:58:30Z</time>
      </trkpt>
      <trkpt lat="48.1996" lon="6.55981">
        <ele>367</ele>
        <time>2023-03-03T15:58:36Z</time>
      </trkpt>
      <trkpt lat="48.1995" lon="6.55985">
        <ele>367.3</ele>
        <time>2023-03-03T15:58:42Z</time>
      </trkpt>
      <trkpt lat="48.19941" lon="6.55986">
        <ele>367.6</ele>
        <time>2023-03-03T15:58:50Z</time>
      </trkpt>
      <trkpt lat="48.19932" lon="6.5599">
        <ele>367.9</ele>
        <time>2023-03-03T15:59:03Z</time>
      </trkpt>
      <trkpt lat="48.19923" lon="6.55986">
        <ele>368.3</ele>
        <time>2023-03-03T15:59:10Z</time>
      </trkpt>
      <trkpt lat="48.19913" lon="6.55988">
        <ele>368.6</ele>
        <time>2023-03-03T15:59:17Z</time>
      </trkpt>
      <trkpt lat="48.19903" lon="6.55996">
        <ele>368.9</ele>
        <time>2023-03-03T15:59:27Z</time>
      </trkpt>
      <trkpt lat="48.19894" lon="6.55998">
        <ele>368.9</ele>
        <time>2023-03-03T15:59:32Z</time>
      </trkpt>
      <trkpt lat="48.19892" lon="6.56012">
        <ele>368.8</ele>
        <time>2023-03-03T15:59:38Z</time>
      </trkpt>
      <trkpt lat="48.19887" lon="6.56024">
        <ele>368.5</ele>
        <time>2023-03-03T15:59:47Z</time>
      </trkpt>
      <trkpt lat="48.19883" lon="6.56037">
        <ele>368.2</ele>
        <time>2023-03-03T15:59:53Z</time>
      </trkpt>
      <trkpt lat="48.19877" lon="6.56046">
        <ele>367.9</ele>
        <time>2023-03-03T15:59:59Z</time>
      </trkpt>
      <trkpt lat="48.19868" lon="6.56051">
        <ele>368</ele>
        <time>2023-03-03T16:00:07Z</time>
      </trkpt>
      <trkpt lat="48.1986" lon="6.56044">
        <ele>368.5</ele>
        <time>2023-03-03T16:00:14Z</time>
      </trkpt>
      <trkpt lat="48.19849" lon="6.56045">
        <ele>369.3</ele>
        <time>2023-03-03T16:00:39Z</time>
      </trkpt>
      <trkpt lat="48.19842" lon="6.56035">
        <ele>370.1</ele>
        <time>2023-03-03T16:00:43Z</time>
      </trkpt>
      <trkpt lat="48.19847" lon="6.56049">
        <ele>370.9</ele>
        <time>2023-03-03T16:01:06Z</time>
      </trkpt>
      <trkpt lat="48.19855" lon="6.56058">
        <ele>371.7</ele>
        <time>2023-03-03T16:01:11Z</time>
      </trkpt>
      <trkpt lat="48.19864" lon="6.56065">
        <ele>372.3</ele>
        <time>2023-03-03T16:01:18Z</time>
      </trkpt>
      <trkpt lat="48.19858" lon="6.56088">
        <ele>373.1</ele>
        <time>2023-03-03T16:02:29Z</time>
      </trkpt>
      <trkpt lat="48.19854" lon="6.56101">
        <ele>373.5</ele>
        <time>2023-03-03T16:02:46Z</time>
      </trkpt>
      <trkpt lat="48.19854" lon="6.56115">
        <ele>373.8</ele>
        <time>2023-03-03T16:03:02Z</time>
      </trkpt>
      <trkpt lat="48.1985" lon="6.56129">
        <ele>374.1</ele>
        <time>2023-03-03T16:03:08Z</time>
      </trkpt>
      <trkpt lat="48.19842" lon="6.56139">
        <ele>374.3</ele>
        <time>2023-03-03T16:03:20Z</time>
      </trkpt>
      <trkpt lat="48.19841" lon="6.56153">
        <ele>374.5</ele>
        <time>2023-03-03T16:03:29Z</time>
      </trkpt>
      <trkpt lat="48.19837" lon="6.56166">
        <ele>374.5</ele>
        <time>2023-03-03T16:03:34Z</time>
      </trkpt>
      <trkpt lat="48.19835" lon="6.5618">
        <ele>374.3</ele>
        <time>2023-03-03T16:03:42Z</time>
      </trkpt>
      <trkpt lat="48.19832" lon="6.56193">
        <ele>374</ele>
        <time>2023-03-03T16:03:46Z</time>
      </trkpt>
      <trkpt lat="48.19836" lon="6.56205">
        <ele>373.5</ele>
        <time>2023-03-03T16:03:56Z</time>
      </trkpt>
      <trkpt lat="48.19836" lon="6.56221">
        <ele>372.9</ele>
        <time>2023-03-03T16:04:04Z</time>
      </trkpt>
      <trkpt lat="48.19836" lon="6.56235">
        <ele>372.2</ele>
        <time>2023-03-03T16:04:07Z</time>
      </trkpt>
      <trkpt lat="48.19834" lon="6.5625">
        <ele>373</ele>
        <time>2023-03-03T16:04:13Z</time>
      </trkpt>
      <trkpt lat="48.19827" lon="6.56257">
        <ele>373.7</ele>
        <time>2023-03-03T16:04:21Z</time>
      </trkpt>
      <trkpt lat="48.19818" lon="6.56265">
        <ele>374.6</ele>
        <time>2023-03-03T16:04:32Z</time>
      </trkpt>
      <trkpt lat="48.19809" lon="6.56264">
        <ele>375.4</ele>
        <time>2023-03-03T16:04:37Z</time>
      </trkpt>
      <trkpt lat="48.19799" lon="6.56268">
        <ele>376.3</ele>
        <time>2023-03-03T16:04:43Z</time>
      </trkpt>
      <trkpt lat="48.19793" lon="6.56278">
        <ele>377</ele>
        <time>2023-03-03T16:04:51Z</time>
      </trkpt>
      <trkpt lat="48.19782" lon="6.5628">
        <ele>377.8</ele>
        <time>2023-03-03T16:04:59Z</time>
      </trkpt>
      <trkpt lat="48.19774" lon="6.56286">
        <ele>378.5</ele>
        <time>2023-03-03T16:05:06Z</time>
      </trkpt>
      <trkpt lat="48.19768" lon="6.56298">
        <ele>379.3</ele>
        <time>2023-03-03T16:05:15Z</time>
      </trkpt>
      <trkpt lat="48.19759" lon="6.56303">
        <ele>380.1</ele>
        <time>2023-03-03T16:05:23Z</time>
      </trkpt>
      <trkpt lat="48.19749" lon="6.56306">
        <ele>381</ele>
        <time>2023-03-03T16:05:31Z</time>
      </trkpt>
      <trkpt lat="48.19739" lon="6.56308">
        <ele>382</ele>
        <time>2023-03-03T16:05:39Z</time>
      </trkpt>
      <trkpt lat="48.1973" lon="6.56307">
        <ele>383</ele>
        <time>2023-03-03T16:05:43Z</time>
      </trkpt>
      <trkpt lat="48.1972" lon="6.56309">
        <ele>383.9</ele>
        <time>2023-03-03T16:05:53Z</time>
      </trkpt>
      <trkpt lat="48.1971" lon="6.56305">
        <ele>384.8</ele>
        <time>2023-03-03T16:06:03Z</time>
      </trkpt>
      <trkpt lat="48.19703" lon="6.56315">
        <ele>385.5</ele>
        <time>2023-03-03T16:06:09Z</time>
      </trkpt>
      <trkpt lat="48.19698" lon="6.56329">
        <ele>386.1</ele>
        <time>2023-03-03T16:06:16Z</time>
      </trkpt>
      <trkpt lat="48.19688" lon="6.56329">
        <ele>386.5</ele>
        <time>2023-03-03T16:06:21Z</time>
      </trkpt>
      <trkpt lat="48.19678" lon="6.56332">
        <ele>387.1</ele>
        <time>2023-03-03T16:06:29Z</time>
      </trkpt>
      <trkpt lat="48.19668" lon="6.56352">
        <ele>387.9</ele>
        <time>2023-03-03T16:06:37Z</time>
      </trkpt>
      <trkpt lat="48.19659" lon="6.5635">
        <ele>388.4</ele>
        <time>2023-03-03T16:06:49Z</time>
      </trkpt>
      <trkpt lat="48.19632" lon="6.56357">
        <ele>389.3</ele>
        <time>2023-03-03T16:07:10Z</time>
      </trkpt>
      <trkpt lat="48.19623" lon="6.56373">
        <ele>389.7</ele>
        <time>2023-03-03T16:07:16Z</time>
      </trkpt>
      <trkpt lat="48.19618" lon="6.56385">
        <ele>390</ele>
        <time>2023-03-03T16:07:19Z</time>
      </trkpt>
      <trkpt lat="48.1961" lon="6.56396">
        <ele>390.6</ele>
        <time>2023-03-03T16:07:28Z</time>
      </trkpt>
      <trkpt lat="48.19605" lon="6.56407">
        <ele>390.7</ele>
        <time>2023-03-03T16:07:34Z</time>
      </trkpt>
      <trkpt lat="48.19604" lon="6.56421">
        <ele>391</ele>
        <time>2023-03-03T16:07:40Z</time>
      </trkpt>
      <trkpt lat="48.1961" lon="6.56433">
        <ele>391.3</ele>
        <time>2023-03-03T16:07:53Z</time>
      </trkpt>
      <trkpt lat="48.19612" lon="6.56447">
        <ele>391.7</ele>
        <time>2023-03-03T16:07:59Z</time>
      </trkpt>
      <trkpt lat="48.19614" lon="6.56462">
        <ele>392</ele>
        <time>2023-03-03T16:08:05Z</time>
      </trkpt>
      <trkpt lat="48.19616" lon="6.56477">
        <ele>392.3</ele>
        <time>2023-03-03T16:08:13Z</time>
      </trkpt>
      <trkpt lat="48.19607" lon="6.56489">
        <ele>392.9</ele>
        <time>2023-03-03T16:08:20Z</time>
      </trkpt>
      <trkpt lat="48.19605" lon="6.56503">
        <ele>393.3</ele>
        <time>2023-03-03T16:08:29Z</time>
      </trkpt>
      <trkpt lat="48.19601" lon="6.56518">
        <ele>393.7</ele>
        <time>2023-03-03T16:08:38Z</time>
      </trkpt>
      <trkpt lat="48.19599" lon="6.56532">
        <ele>394.2</ele>
        <time>2023-03-03T16:08:44Z</time>
      </trkpt>
      <trkpt lat="48.19589" lon="6.56538">
        <ele>394.6</ele>
        <time>2023-03-03T16:08:54Z</time>
      </trkpt>
      <trkpt lat="48.19581" lon="6.56545">
        <ele>394.9</ele>
        <time>2023-03-03T16:09:03Z</time>
      </trkpt>
      <trkpt lat="48.19573" lon="6.56553">
        <ele>395.2</ele>
        <time>2023-03-03T16:09:09Z</time>
      </trkpt>
      <trkpt lat="48.19565" lon="6.5656">
        <ele>395.3</ele>
        <time>2023-03-03T16:09:14Z</time>
      </trkpt>
      <trkpt lat="48.19573" lon="6.56566">
        <ele>395.2</ele>
        <time>2023-03-03T16:09:25Z</time>
      </trkpt>
      <trkpt lat="48.19579" lon="6.56579">
        <ele>395.1</ele>
        <time>2023-03-03T16:09:32Z</time>
      </trkpt>
      <trkpt lat="48.19585" lon="6.56592">
        <ele>394.7</ele>
        <time>2023-03-03T16:09:45Z</time>
      </trkpt>
      <trkpt lat="48.19594" lon="6.56586">
        <ele>394.2</ele>
        <time>2023-03-03T16:09:56Z</time>
      </trkpt>
      <trkpt lat="48.19586" lon="6.56581">
        <ele>393.6</ele>
        <time>2023-03-03T16:10:07Z</time>
      </trkpt>
      <trkpt lat="48.19577" lon="6.56581">
        <ele>393</ele>
        <time>2023-03-03T16:10:14Z</time>
      </trkpt>
      <trkpt lat="48.19572" lon="6.56593">
        <ele>392.5</ele>
        <time>2023-03-03T16:10:19Z</time>
      </trkpt>
      <trkpt lat="48.19568" lon="6.56605">
        <ele>392</ele>
        <time>2023-03-03T16:10:38Z</time>
      </trkpt>
      <trkpt lat="48.19566" lon="6.56619">
        <ele>391.6</ele>
        <time>2023-03-03T16:10:48Z</time>
      </trkpt>
      <trkpt lat="48.1956" lon="6.5663">
        <ele>391.3</ele>
        <time>2023-03-03T16:10:57Z</time>
      </trkpt>
      <trkpt lat="48.19551" lon="6.56629">
        <ele>391.1</ele>
        <time>2023-03-03T16:11:10Z</time>
      </trkpt>
      <trkpt lat="48.19546" lon="6.5664">
        <ele>390.9</ele>
        <time>2023-03-03T16:11:18Z</time>
      </trkpt>
      <trkpt lat="48.19537" lon="6.56644">
        <ele>390.8</ele>
        <time>2023-03-03T16:11:22Z</time>
      </trkpt>
      <trkpt lat="48.19531" lon="6.56657">
        <ele>390.7</ele>
        <time>2023-03-03T16:11:34Z</time>
      </trkpt>
      <trkpt lat="48.1953" lon="6.56671">
        <ele>390.7</ele>
        <time>2023-03-03T16:11:38Z</time>
      </trkpt>
      <trkpt lat="48.19525" lon="6.56683">
        <ele>390.9</ele>
        <time>2023-03-03T16:11:43Z</time>
      </trkpt>
      <trkpt lat="48.19519" lon="6.56695">
        <ele>391.3</ele>
        <time>2023-03-03T16:11:47Z</time>
      </trkpt>
      <trkpt lat="48.19512" lon="6.56706">
        <ele>391.8</ele>
        <time>2023-03-03T16:11:52Z</time>
      </trkpt>
      <trkpt lat="48.19504" lon="6.56712">
        <ele>392.5</ele>
        <time>2023-03-03T16:12:02Z</time>
      </trkpt>
      <trkpt lat="48.19499" lon="6.56725">
        <ele>393.2</ele>
        <time>2023-03-03T16:12:20Z</time>
      </trkpt>
      <trkpt lat="48.19494" lon="6.56738">
        <ele>394.1</ele>
        <time>2023-03-03T16:12:26Z</time>
      </trkpt>
      <trkpt lat="48.19484" lon="6.56744">
        <ele>395</ele>
        <time>2023-03-03T16:12:31Z</time>
      </trkpt>
      <trkpt lat="48.19482" lon="6.56758">
        <ele>395.7</ele>
        <time>2023-03-03T16:12:43Z</time>
      </trkpt>
      <trkpt lat="48.19475" lon="6.56769">
        <ele>396.5</ele>
        <time>2023-03-03T16:12:49Z</time>
      </trkpt>
      <trkpt lat="48.19468" lon="6.56782">
        <ele>397.2</ele>
        <time>2023-03-03T16:13:00Z</time>
      </trkpt>
      <trkpt lat="48.19461" lon="6.5679">
        <ele>397.8</ele>
        <time>2023-03-03T16:13:07Z</time>
      </trkpt>
      <trkpt lat="48.19452" lon="6.56787">
        <ele>398.3</ele>
        <time>2023-03-03T16:13:14Z</time>
      </trkpt>
      <trkpt lat="48.19443" lon="6.56786">
        <ele>398.8</ele>
        <time>2023-03-03T16:13:24Z</time>
      </trkpt>
      <trkpt lat="48.19436" lon="6.56797">
        <ele>399.4</ele>
        <time>2023-03-03T16:13:34Z</time>
      </trkpt>
      <trkpt lat="48.1943" lon="6.5681">
        <ele>399.9</ele>
        <time>2023-03-03T16:13:39Z</time>
      </trkpt>
      <trkpt lat="48.19422" lon="6.56819">
        <ele>400.5</ele>
        <time>2023-03-03T16:13:46Z</time>
      </trkpt>
      <trkpt lat="48.19414" lon="6.56833">
        <ele>401</ele>
        <time>2023-03-03T16:13:50Z</time>
      </trkpt>
      <trkpt lat="48.19408" lon="6.56844">
        <ele>401.3</ele>
        <time>2023-03-03T16:13:54Z</time>
      </trkpt>
      <trkpt lat="48.19412" lon="6.56857">
        <ele>401.6</ele>
        <time>2023-03-03T16:13:59Z</time>
      </trkpt>
      <trkpt lat="48.19403" lon="6.56865">
        <ele>401.8</ele>
        <time>2023-03-03T16:14:07Z</time>
      </trkpt>
      <trkpt lat="48.19395" lon="6.56874">
        <ele>402.1</ele>
        <time>2023-03-03T16:14:15Z</time>
      </trkpt>
      <trkpt lat="48.19387" lon="6.56881">
        <ele>402.3</ele>
        <time>2023-03-03T16:14:23Z</time>
      </trkpt>
      <trkpt lat="48.19381" lon="6.56896">
        <ele>402.6</ele>
        <time>2023-03-03T16:14:28Z</time>
      </trkpt>
      <trkpt lat="48.19376" lon="6.56906">
        <ele>402.9</ele>
        <time>2023-03-03T16:14:33Z</time>
      </trkpt>
      <trkpt lat="48.19368" lon="6.56918">
        <ele>403.3</ele>
        <time>2023-03-03T16:14:43Z</time>
      </trkpt>
      <trkpt lat="48.19358" lon="6.56921">
        <ele>403.8</ele>
        <time>2023-03-03T16:14:50Z</time>
      </trkpt>
      <trkpt lat="48.19357" lon="6.56939">
        <ele>404.4</ele>
        <time>2023-03-03T16:14:54Z</time>
      </trkpt>
      <trkpt lat="48.19347" lon="6.56937">
        <ele>404.9</ele>
        <time>2023-03-03T16:15:07Z</time>
      </trkpt>
      <trkpt lat="48.19338" lon="6.56942">
        <ele>405</ele>
        <time>2023-03-03T16:15:12Z</time>
      </trkpt>
      <trkpt lat="48.19328" lon="6.56943">
        <ele>405.2</ele>
        <time>2023-03-03T16:15:18Z</time>
      </trkpt>
      <trkpt lat="48.19321" lon="6.56951">
        <ele>405.3</ele>
        <time>2023-03-03T16:15:25Z</time>
      </trkpt>
      <trkpt lat="48.19319" lon="6.56964">
        <ele>405.4</ele>
        <time>2023-03-03T16:15:33Z</time>
      </trkpt>
      <trkpt lat="48.19312" lon="6.56975">
        <ele>405.5</ele>
        <time>2023-03-03T16:15:42Z</time>
      </trkpt>
      <trkpt lat="48.19304" lon="6.56982">
        <ele>405.6</ele>
        <time>2023-03-03T16:15:48Z</time>
      </trkpt>
      <trkpt lat="48.193" lon="6.56994">
        <ele>405.7</ele>
        <time>2023-03-03T16:15:52Z</time>
      </trkpt>
      <trkpt lat="48.19292" lon="6.57002">
        <ele>405.7</ele>
        <time>2023-03-03T16:15:57Z</time>
      </trkpt>
      <trkpt lat="48.19283" lon="6.57007">
        <ele>405.8</ele>
        <time>2023-03-03T16:16:07Z</time>
      </trkpt>
      <trkpt lat="48.19272" lon="6.57008">
        <ele>405.8</ele>
        <time>2023-03-03T16:16:15Z</time>
      </trkpt>
      <trkpt lat="48.19263" lon="6.57014">
        <ele>405.8</ele>
        <time>2023-03-03T16:16:26Z</time>
      </trkpt>
      <trkpt lat="48.19255" lon="6.57021">
        <ele>405.9</ele>
        <time>2023-03-03T16:16:33Z</time>
      </trkpt>
      <trkpt lat="48.19245" lon="6.57026">
        <ele>405.9</ele>
        <time>2023-03-03T16:16:40Z</time>
      </trkpt>
      <trkpt lat="48.19236" lon="6.5703">
        <ele>406</ele>
        <time>2023-03-03T16:16:47Z</time>
      </trkpt>
      <trkpt lat="48.19227" lon="6.57036">
        <ele>406.2</ele>
        <time>2023-03-03T16:16:56Z</time>
      </trkpt>
      <trkpt lat="48.19218" lon="6.57037">
        <ele>406.3</ele>
        <time>2023-03-03T16:17:02Z</time>
      </trkpt>
      <trkpt lat="48.19213" lon="6.57036">
        <ele>406.4</ele>
        <time>2023-03-03T16:17:11Z</time>
      </trkpt>
      <trkpt lat="48.19214" lon="6.57039">
        <ele>406.4</ele>
        <time>2023-03-03T16:17:12Z</time>
      </trkpt>
      <trkpt lat="48.19203" lon="6.57039">
        <ele>406.6</ele>
        <time>2023-03-03T16:17:20Z</time>
      </trkpt>
      <trkpt lat="48.19196" lon="6.5705">
        <ele>406.8</ele>
        <time>2023-03-03T16:17:25Z</time>
      </trkpt>
      <trkpt lat="48.19182" lon="6.57056">
        <ele>407.2</ele>
        <time>2023-03-03T16:17:35Z</time>
      </trkpt>
      <trkpt lat="48.19178" lon="6.57069">
        <ele>407.4</ele>
        <time>2023-03-03T16:17:44Z</time>
      </trkpt>
      <trkpt lat="48.19169" lon="6.57075">
        <ele>407.8</ele>
        <time>2023-03-03T16:17:50Z</time>
      </trkpt>
      <trkpt lat="48.1916" lon="6.57077">
        <ele>408.1</ele>
        <time>2023-03-03T16:17:59Z</time>
      </trkpt>
      <trkpt lat="48.19151" lon="6.57075">
        <ele>408.4</ele>
        <time>2023-03-03T16:18:08Z</time>
      </trkpt>
      <trkpt lat="48.19143" lon="6.57082">
        <ele>408.8</ele>
        <time>2023-03-03T16:18:18Z</time>
      </trkpt>
      <trkpt lat="48.19134" lon="6.57086">
        <ele>409.2</ele>
        <time>2023-03-03T16:18:29Z</time>
      </trkpt>
      <trkpt lat="48.19099" lon="6.57122">
        <ele>411.3</ele>
        <time>2023-03-03T16:19:02Z</time>
      </trkpt>
      <trkpt lat="48.19132" lon="6.57118">
        <ele>413.2</ele>
        <time>2023-03-03T16:19:28Z</time>
      </trkpt>
      <trkpt lat="48.19122" lon="6.57123">
        <ele>413.9</ele>
        <time>2023-03-03T16:22:38Z</time>
      </trkpt>
      <trkpt lat="48.19124" lon="6.57125">
        <ele>414</ele>
        <time>2023-03-03T16:22:39Z</time>
      </trkpt>
      <trkpt lat="48.19136" lon="6.57123">
        <ele>414.8</ele>
        <time>2023-03-03T16:22:58Z</time>
      </trkpt>
      <trkpt lat="48.19125" lon="6.5712">
        <ele>415.5</ele>
        <time>2023-03-03T16:23:03Z</time>
      </trkpt>
      <trkpt lat="48.19119" lon="6.57108">
        <ele>416.1</ele>
        <time>2023-03-03T16:23:23Z</time>
      </trkpt>
      <trkpt lat="48.1912" lon="6.57093">
        <ele>416.7</ele>
        <time>2023-03-03T16:23:28Z</time>
      </trkpt>
      <trkpt lat="48.1912" lon="6.57084">
        <ele>417.1</ele>
        <time>2023-03-03T16:23:37Z</time>
      </trkpt>
      <trkpt lat="48.19121" lon="6.57086">
        <ele>417.2</ele>
        <time>2023-03-03T16:23:38Z</time>
      </trkpt>
      <trkpt lat="48.19122" lon="6.57101">
        <ele>417.7</ele>
        <time>2023-03-03T16:23:56Z</time>
      </trkpt>
      <trkpt lat="48.19116" lon="6.57116">
        <ele>418.1</ele>
        <time>2023-03-03T16:24:01Z</time>
      </trkpt>
      <trkpt lat="48.19111" lon="6.57127">
        <ele>418.3</ele>
        <time>2023-03-03T16:24:05Z</time>
      </trkpt>
      <trkpt lat="48.19103" lon="6.57136">
        <ele>418.5</ele>
        <time>2023-03-03T16:24:15Z</time>
      </trkpt>
      <trkpt lat="48.19094" lon="6.57143">
        <ele>418.6</ele>
        <time>2023-03-03T16:24:23Z</time>
      </trkpt>
      <trkpt lat="48.19088" lon="6.57156">
        <ele>418.7</ele>
        <time>2023-03-03T16:24:31Z</time>
      </trkpt>
      <trkpt lat="48.19085" lon="6.57169">
        <ele>418.8</ele>
        <time>2023-03-03T16:24:37Z</time>
      </trkpt>
      <trkpt lat="48.19084" lon="6.57184">
        <ele>418.9</ele>
        <time>2023-03-03T16:24:45Z</time>
      </trkpt>
      <trkpt lat="48.19079" lon="6.57197">
        <ele>419.1</ele>
        <time>2023-03-03T16:24:53Z</time>
      </trkpt>
      <trkpt lat="48.19073" lon="6.57208">
        <ele>419.2</ele>
        <time>2023-03-03T16:25:01Z</time>
      </trkpt>
      <trkpt lat="48.19066" lon="6.57219">
        <ele>419.3</ele>
        <time>2023-03-03T16:25:08Z</time>
      </trkpt>
      <trkpt lat="48.19059" lon="6.57231">
        <ele>419.4</ele>
        <time>2023-03-03T16:25:16Z</time>
      </trkpt>
      <trkpt lat="48.19059" lon="6.57248">
        <ele>419.7</ele>
        <time>2023-03-03T16:25:26Z</time>
      </trkpt>
      <trkpt lat="48.19059" lon="6.57262">
        <ele>420</ele>
        <time>2023-03-03T16:25:33Z</time>
      </trkpt>
      <trkpt lat="48.19058" lon="6.57276">
        <ele>420.2</ele>
        <time>2023-03-03T16:25:41Z</time>
      </trkpt>
      <trkpt lat="48.19056" lon="6.5729">
        <ele>420.6</ele>
        <time>2023-03-03T16:25:48Z</time>
      </trkpt>
      <trkpt lat="48.19059" lon="6.57304">
        <ele>420.9</ele>
        <time>2023-03-03T16:26:17Z</time>
      </trkpt>
      <trkpt lat="48.19051" lon="6.57294">
        <ele>421.3</ele>
        <time>2023-03-03T16:26:31Z</time>
      </trkpt>
      <trkpt lat="48.19053" lon="6.57295">
        <ele>421.3</ele>
        <time>2023-03-03T16:26:42Z</time>
      </trkpt>
      <trkpt lat="48.19053" lon="6.57295">
        <ele>421.3</ele>
        <time>2023-03-03T16:26:52Z</time>
      </trkpt>
      <trkpt lat="48.19053" lon="6.57295">
        <ele>421.3</ele>
        <time>2023-03-03T16:26:53Z</time>
      </trkpt>
      <trkpt lat="48.19054" lon="6.57296">
        <ele>421.4</ele>
        <time>2023-03-03T16:26:54Z</time>
      </trkpt>
      <trkpt lat="48.19054" lon="6.57296">
        <ele>421.4</ele>
        <time>2023-03-03T16:26:55Z</time>
      </trkpt>
      <trkpt lat="48.19054" lon="6.57296">
        <ele>421.4</ele>
        <time>2023-03-03T16:27:06Z</time>
      </trkpt>
      <trkpt lat="48.19054" lon="6.57296">
        <ele>421.4</ele>
        <time>2023-03-03T16:27:07Z</time>
      </trkpt>
      <trkpt lat="48.19054" lon="6.57296">
        <ele>421.4</ele>
        <time>2023-03-03T16:27:20Z</time>
      </trkpt>
      <trkpt lat="48.19054" lon="6.57296">
        <ele>421.4</ele>
        <time>2023-03-03T16:27:21Z</time>
      </trkpt>
      <trkpt lat="48.19054" lon="6.57296">
        <ele>421.4</ele>
        <time>2023-03-03T16:27:25Z</time>
      </trkpt>
      <trkpt lat="48.19054" lon="6.57296">
        <ele>421.4</ele>
        <time>2023-03-03T16:27:26Z</time>
      </trkpt>
      <trkpt lat="48.19054" lon="6.57296">
        <ele>421.4</ele>
        <time>2023-03-03T16:27:35Z</time>
      </trkpt>
      <trkpt lat="48.19054" lon="6.57296">
        <ele>421.4</ele>
        <time>2023-03-03T16:27:36Z</time>
      </trkpt>
      <trkpt lat="48.19054" lon="6.57296">
        <ele>421.4</ele>
        <time>2023-03-03T16:27:41Z</time>
      </trkpt>
      <trkpt lat="48.19055" lon="6.57296">
        <ele>421.4</ele>
        <time>2023-03-03T16:27:43Z</time>
      </trkpt>
      <trkpt lat="48.19055" lon="6.57296">
        <ele>421.4</ele>
        <time>2023-03-03T16:27:44Z</time>
      </trkpt>
      <trkpt lat="48.19056" lon="6.57297">
        <ele>421.5</ele>
        <time>2023-03-03T16:27:46Z</time>
      </trkpt>
      <trkpt lat="48.19055" lon="6.57297">
        <ele>421.5</ele>
        <time>2023-03-03T16:28:01Z</time>
      </trkpt>
      <trkpt lat="48.19055" lon="6.57297">
        <ele>421.5</ele>
        <time>2023-03-03T16:28:02Z</time>
      </trkpt>
      <trkpt lat="48.19055" lon="6.57297">
        <ele>421.5</ele>
        <time>2023-03-03T16:28:20Z</time>
      </trkpt>
      <trkpt lat="48.19054" lon="6.57295">
        <ele>421.6</ele>
        <time>2023-03-03T16:28:25Z</time>
      </trkpt>
      <trkpt lat="48.19054" lon="6.57295">
        <ele>421.6</ele>
        <time>2023-03-03T16:28:30Z</time>
      </trkpt>
      <trkpt lat="48.19057" lon="6.57294">
        <ele>421.7</ele>
        <time>2023-03-03T16:28:38Z</time>
      </trkpt>
      <trkpt lat="48.19057" lon="6.57294">
        <ele>421.7</ele>
        <time>2023-03-03T16:28:39Z</time>
      </trkpt>
      <trkpt lat="48.19055" lon="6.57309">
        <ele>422.1</ele>
        <time>2023-03-03T16:28:48Z</time>
      </trkpt>
      <trkpt lat="48.19052" lon="6.57323">
        <ele>422.7</ele>
        <time>2023-03-03T16:28:56Z</time>
      </trkpt>
      <trkpt lat="48.19047" lon="6.57336">
        <ele>423.3</ele>
        <time>2023-03-03T16:29:03Z</time>
      </trkpt>
      <trkpt lat="48.19044" lon="6.5735">
        <ele>423.9</ele>
        <time>2023-03-03T16:29:11Z</time>
      </trkpt>
      <trkpt lat="48.1904" lon="6.57363">
        <ele>424.6</ele>
        <time>2023-03-03T16:29:19Z</time>
      </trkpt>
      <trkpt lat="48.19037" lon="6.57377">
        <ele>425.4</ele>
        <time>2023-03-03T16:29:26Z</time>
      </trkpt>
      <trkpt lat="48.19033" lon="6.5739">
        <ele>426.2</ele>
        <time>2023-03-03T16:29:35Z</time>
      </trkpt>
      <trkpt lat="48.19028" lon="6.57401">
        <ele>427.1</ele>
        <time>2023-03-03T16:29:45Z</time>
      </trkpt>
      <trkpt lat="48.19022" lon="6.57413">
        <ele>427.9</ele>
        <time>2023-03-03T16:29:52Z</time>
      </trkpt>
      <trkpt lat="48.19019" lon="6.57426">
        <ele>428.6</ele>
        <time>2023-03-03T16:30:00Z</time>
      </trkpt>
      <trkpt lat="48.19017" lon="6.57439">
        <ele>429.2</ele>
        <time>2023-03-03T16:30:06Z</time>
      </trkpt>
      <trkpt lat="48.19014" lon="6.57454">
        <ele>429.7</ele>
        <time>2023-03-03T16:30:15Z</time>
      </trkpt>
      <trkpt lat="48.19013" lon="6.57469">
        <ele>430.2</ele>
        <time>2023-03-03T16:30:21Z</time>
      </trkpt>
      <trkpt lat="48.19011" lon="6.57484">
        <ele>430.7</ele>
        <time>2023-03-03T16:30:27Z</time>
      </trkpt>
      <trkpt lat="48.19009" lon="6.57499">
        <ele>431.2</ele>
        <time>2023-03-03T16:30:37Z</time>
      </trkpt>
      <trkpt lat="48.19006" lon="6.57512">
        <ele>431.8</ele>
        <time>2023-03-03T16:30:43Z</time>
      </trkpt>
      <trkpt lat="48.19003" lon="6.57526">
        <ele>432.3</ele>
        <time>2023-03-03T16:30:53Z</time>
      </trkpt>
      <trkpt lat="48.18999" lon="6.57539">
        <ele>432.7</ele>
        <time>2023-03-03T16:31:02Z</time>
      </trkpt>
      <trkpt lat="48.18997" lon="6.57552">
        <ele>433.1</ele>
        <time>2023-03-03T16:31:07Z</time>
      </trkpt>
      <trkpt lat="48.18994" lon="6.57566">
        <ele>433.5</ele>
        <time>2023-03-03T16:31:17Z</time>
      </trkpt>
      <trkpt lat="48.18991" lon="6.57579">
        <ele>433.9</ele>
        <time>2023-03-03T16:31:23Z</time>
      </trkpt>
      <trkpt lat="48.18988" lon="6.57592">
        <ele>434.3</ele>
        <time>2023-03-03T16:31:33Z</time>
      </trkpt>
      <trkpt lat="48.18988" lon="6.57606">
        <ele>434.7</ele>
        <time>2023-03-03T16:31:44Z</time>
      </trkpt>
      <trkpt lat="48.18985" lon="6.5762">
        <ele>435.2</ele>
        <time>2023-03-03T16:31:52Z</time>
      </trkpt>
      <trkpt lat="48.18983" lon="6.57635">
        <ele>435.7</ele>
        <time>2023-03-03T16:32:01Z</time>
      </trkpt>
      <trkpt lat="48.18981" lon="6.57649">
        <ele>436.3</ele>
        <time>2023-03-03T16:32:09Z</time>
      </trkpt>
      <trkpt lat="48.18977" lon="6.57662">
        <ele>437</ele>
        <time>2023-03-03T16:32:17Z</time>
      </trkpt>
      <trkpt lat="48.18975" lon="6.57676">
        <ele>437.6</ele>
        <time>2023-03-03T16:32:26Z</time>
      </trkpt>
      <trkpt lat="48.18976" lon="6.57685">
        <ele>438.1</ele>
        <time>2023-03-03T16:32:34Z</time>
      </trkpt>
      <trkpt lat="48.18976" lon="6.57687">
        <ele>438.2</ele>
        <time>2023-03-03T16:32:35Z</time>
      </trkpt>
      <trkpt lat="48.18973" lon="6.577">
        <ele>438.8</ele>
        <time>2023-03-03T16:32:43Z</time>
      </trkpt>
      <trkpt lat="48.18968" lon="6.57712">
        <ele>439.4</ele>
        <time>2023-03-03T16:32:50Z</time>
      </trkpt>
      <trkpt lat="48.18962" lon="6.57722">
        <ele>440.2</ele>
        <time>2023-03-03T16:33:03Z</time>
      </trkpt>
      <trkpt lat="48.18953" lon="6.57729">
        <ele>441.1</ele>
        <time>2023-03-03T16:33:11Z</time>
      </trkpt>
      <trkpt lat="48.18943" lon="6.5773">
        <ele>442</ele>
        <time>2023-03-03T16:33:20Z</time>
      </trkpt>
      <trkpt lat="48.18934" lon="6.57733">
        <ele>442.8</ele>
        <time>2023-03-03T16:33:28Z</time>
      </trkpt>
      <trkpt lat="48.18925" lon="6.57733">
        <ele>443.5</ele>
        <time>2023-03-03T16:33:36Z</time>
      </trkpt>
      <trkpt lat="48.18916" lon="6.57734">
        <ele>444.2</ele>
        <time>2023-03-03T16:33:43Z</time>
      </trkpt>
      <trkpt lat="48.18907" lon="6.57739">
        <ele>444.7</ele>
        <time>2023-03-03T16:33:51Z</time>
      </trkpt>
      <trkpt lat="48.18897" lon="6.57744">
        <ele>445.2</ele>
        <time>2023-03-03T16:34:00Z</time>
      </trkpt>
      <trkpt lat="48.18888" lon="6.57747">
        <ele>445.5</ele>
        <time>2023-03-03T16:34:07Z</time>
      </trkpt>
      <trkpt lat="48.18879" lon="6.57749">
        <ele>445.7</ele>
        <time>2023-03-03T16:34:15Z</time>
      </trkpt>
      <trkpt lat="48.1887" lon="6.57754">
        <ele>445.8</ele>
        <time>2023-03-03T16:34:23Z</time>
      </trkpt>
      <trkpt lat="48.18861" lon="6.57763">
        <ele>445.9</ele>
        <time>2023-03-03T16:34:30Z</time>
      </trkpt>
      <trkpt lat="48.18856" lon="6.57776">
        <ele>445.9</ele>
        <time>2023-03-03T16:34:38Z</time>
      </trkpt>
      <trkpt lat="48.1885" lon="6.57787">
        <ele>445.9</ele>
        <time>2023-03-03T16:34:46Z</time>
      </trkpt>
      <trkpt lat="48.18848" lon="6.57788">
        <ele>445.8</ele>
        <time>2023-03-03T16:34:50Z</time>
      </trkpt>
      <trkpt lat="48.18848" lon="6.57788">
        <ele>445.8</ele>
        <time>2023-03-03T16:34:51Z</time>
      </trkpt>
      <trkpt lat="48.18856" lon="6.57798">
        <ele>445.8</ele>
        <time>2023-03-03T16:35:03Z</time>
      </trkpt>
      <trkpt lat="48.18854" lon="6.57812">
        <ele>445.4</ele>
        <time>2023-03-03T16:35:10Z</time>
      </trkpt>
      <trkpt lat="48.18846" lon="6.57822">
        <ele>444.9</ele>
        <time>2023-03-03T16:35:22Z</time>
      </trkpt>
      <trkpt lat="48.18838" lon="6.57829">
        <ele>444.5</ele>
        <time>2023-03-03T16:35:31Z</time>
      </trkpt>
      <trkpt lat="48.1883" lon="6.57834">
        <ele>444.1</ele>
        <time>2023-03-03T16:35:41Z</time>
      </trkpt>
      <trkpt lat="48.1882" lon="6.57837">
        <ele>443.8</ele>
        <time>2023-03-03T16:35:48Z</time>
      </trkpt>
      <trkpt lat="48.18811" lon="6.57838">
        <ele>443.4</ele>
        <time>2023-03-03T16:35:55Z</time>
      </trkpt>
      <trkpt lat="48.18802" lon="6.57841">
        <ele>443.1</ele>
        <time>2023-03-03T16:36:04Z</time>
      </trkpt>
      <trkpt lat="48.18792" lon="6.57845">
        <ele>442.7</ele>
        <time>2023-03-03T16:36:11Z</time>
      </trkpt>
      <trkpt lat="48.18782" lon="6.57845">
        <ele>442.3</ele>
        <time>2023-03-03T16:36:19Z</time>
      </trkpt>
      <trkpt lat="48.18773" lon="6.57841">
        <ele>441.9</ele>
        <time>2023-03-03T16:36:26Z</time>
      </trkpt>
      <trkpt lat="48.18764" lon="6.57839">
        <ele>441.6</ele>
        <time>2023-03-03T16:36:34Z</time>
      </trkpt>
      <trkpt lat="48.18754" lon="6.57843">
        <ele>441.3</ele>
        <time>2023-03-03T16:36:39Z</time>
      </trkpt>
      <trkpt lat="48.18744" lon="6.57842">
        <ele>440.9</ele>
        <time>2023-03-03T16:36:44Z</time>
      </trkpt>
      <trkpt lat="48.18734" lon="6.57846">
        <ele>440.4</ele>
        <time>2023-03-03T16:36:51Z</time>
      </trkpt>
      <trkpt lat="48.18725" lon="6.57849">
        <ele>439.9</ele>
        <time>2023-03-03T16:36:58Z</time>
      </trkpt>
      <trkpt lat="48.18714" lon="6.57847">
        <ele>439.3</ele>
        <time>2023-03-03T16:37:06Z</time>
      </trkpt>
      <trkpt lat="48.18705" lon="6.57848">
        <ele>438.8</ele>
        <time>2023-03-03T16:37:14Z</time>
      </trkpt>
      <trkpt lat="48.18695" lon="6.57845">
        <ele>438.2</ele>
        <time>2023-03-03T16:37:21Z</time>
      </trkpt>
      <trkpt lat="48.18688" lon="6.57836">
        <ele>437.7</ele>
        <time>2023-03-03T16:37:28Z</time>
      </trkpt>
      <trkpt lat="48.1868" lon="6.57827">
        <ele>437.3</ele>
        <time>2023-03-03T16:37:35Z</time>
      </trkpt>
      <trkpt lat="48.18671" lon="6.57829">
        <ele>436.9</ele>
        <time>2023-03-03T16:37:42Z</time>
      </trkpt>
      <trkpt lat="48.18662" lon="6.57833">
        <ele>436.4</ele>
        <time>2023-03-03T16:37:48Z</time>
      </trkpt>
      <trkpt lat="48.18653" lon="6.57839">
        <ele>435.8</ele>
        <time>2023-03-03T16:37:55Z</time>
      </trkpt>
      <trkpt lat="48.18643" lon="6.57844">
        <ele>435.1</ele>
        <time>2023-03-03T16:38:03Z</time>
      </trkpt>
      <trkpt lat="48.18634" lon="6.57847">
        <ele>434.4</ele>
        <time>2023-03-03T16:38:11Z</time>
      </trkpt>
      <trkpt lat="48.18626" lon="6.57854">
        <ele>433.7</ele>
        <time>2023-03-03T16:38:17Z</time>
      </trkpt>
      <trkpt lat="48.18617" lon="6.57858">
        <ele>433</ele>
        <time>2023-03-03T16:38:25Z</time>
      </trkpt>
      <trkpt lat="48.18609" lon="6.57864">
        <ele>432.4</ele>
        <time>2023-03-03T16:38:34Z</time>
      </trkpt>
      <trkpt lat="48.186" lon="6.5787">
        <ele>431.7</ele>
        <time>2023-03-03T16:38:42Z</time>
      </trkpt>
      <trkpt lat="48.18591" lon="6.57878">
        <ele>431.1</ele>
        <time>2023-03-03T16:38:47Z</time>
      </trkpt>
      <trkpt lat="48.18582" lon="6.57885">
        <ele>430.6</ele>
        <time>2023-03-03T16:38:56Z</time>
      </trkpt>
      <trkpt lat="48.18573" lon="6.5789">
        <ele>430.1</ele>
        <time>2023-03-03T16:39:02Z</time>
      </trkpt>
      <trkpt lat="48.18564" lon="6.57892">
        <ele>429.7</ele>
        <time>2023-03-03T16:39:10Z</time>
      </trkpt>
      <trkpt lat="48.18555" lon="6.57896">
        <ele>429.2</ele>
        <time>2023-03-03T16:39:16Z</time>
      </trkpt>
      <trkpt lat="48.18547" lon="6.57905">
        <ele>428.7</ele>
        <time>2023-03-03T16:39:24Z</time>
      </trkpt>
      <trkpt lat="48.1854" lon="6.57913">
        <ele>428.2</ele>
        <time>2023-03-03T16:39:29Z</time>
      </trkpt>
      <trkpt lat="48.18531" lon="6.57922">
        <ele>427.7</ele>
        <time>2023-03-03T16:39:35Z</time>
      </trkpt>
      <trkpt lat="48.18522" lon="6.57929">
        <ele>427.2</ele>
        <time>2023-03-03T16:39:41Z</time>
      </trkpt>
      <trkpt lat="48.18514" lon="6.57936">
        <ele>426.8</ele>
        <time>2023-03-03T16:39:47Z</time>
      </trkpt>
      <trkpt lat="48.18505" lon="6.57943">
        <ele>426.4</ele>
        <time>2023-03-03T16:39:54Z</time>
      </trkpt>
      <trkpt lat="48.18496" lon="6.57941">
        <ele>426.1</ele>
        <time>2023-03-03T16:40:01Z</time>
      </trkpt>
      <trkpt lat="48.18486" lon="6.57944">
        <ele>425.8</ele>
        <time>2023-03-03T16:40:09Z</time>
      </trkpt>
      <trkpt lat="48.18478" lon="6.57948">
        <ele>425.5</ele>
        <time>2023-03-03T16:40:17Z</time>
      </trkpt>
      <trkpt lat="48.18468" lon="6.57951">
        <ele>425.1</ele>
        <time>2023-03-03T16:40:24Z</time>
      </trkpt>
      <trkpt lat="48.18458" lon="6.57951">
        <ele>424.8</ele>
        <time>2023-03-03T16:40:30Z</time>
      </trkpt>
      <trkpt lat="48.1845" lon="6.57955">
        <ele>424.4</ele>
        <time>2023-03-03T16:40:37Z</time>
      </trkpt>
      <trkpt lat="48.18441" lon="6.57961">
        <ele>424.1</ele>
        <time>2023-03-03T16:40:43Z</time>
      </trkpt>
      <trkpt lat="48.18431" lon="6.57962">
        <ele>423.6</ele>
        <time>2023-03-03T16:40:52Z</time>
      </trkpt>
      <trkpt lat="48.18422" lon="6.57964">
        <ele>423.1</ele>
        <time>2023-03-03T16:41:00Z</time>
      </trkpt>
      <trkpt lat="48.18413" lon="6.57965">
        <ele>422.5</ele>
        <time>2023-03-03T16:41:06Z</time>
      </trkpt>
      <trkpt lat="48.18405" lon="6.57972">
        <ele>421.9</ele>
        <time>2023-03-03T16:41:11Z</time>
      </trkpt>
      <trkpt lat="48.18395" lon="6.57975">
        <ele>421.2</ele>
        <time>2023-03-03T16:41:19Z</time>
      </trkpt>
      <trkpt lat="48.18386" lon="6.57974">
        <ele>420.5</ele>
        <time>2023-03-03T16:41:27Z</time>
      </trkpt>
      <trkpt lat="48.18377" lon="6.57971">
        <ele>420</ele>
        <time>2023-03-03T16:41:37Z</time>
      </trkpt>
      <trkpt lat="48.18368" lon="6.57967">
        <ele>419.5</ele>
        <time>2023-03-03T16:41:44Z</time>
      </trkpt>
      <trkpt lat="48.18359" lon="6.57961">
        <ele>419.1</ele>
        <time>2023-03-03T16:41:53Z</time>
      </trkpt>
      <trkpt lat="48.18349" lon="6.5796">
        <ele>418.9</ele>
        <time>2023-03-03T16:42:00Z</time>
      </trkpt>
      <trkpt lat="48.1834" lon="6.57956">
        <ele>418.6</ele>
        <time>2023-03-03T16:42:05Z</time>
      </trkpt>
      <trkpt lat="48.18331" lon="6.57954">
        <ele>418.4</ele>
        <time>2023-03-03T16:42:13Z</time>
      </trkpt>
      <trkpt lat="48.18322" lon="6.57949">
        <ele>418</ele>
        <time>2023-03-03T16:42:23Z</time>
      </trkpt>
      <trkpt lat="48.18313" lon="6.57942">
        <ele>417.5</ele>
        <time>2023-03-03T16:42:32Z</time>
      </trkpt>
      <trkpt lat="48.18304" lon="6.57938">
        <ele>416.8</ele>
        <time>2023-03-03T16:42:37Z</time>
      </trkpt>
      <trkpt lat="48.18295" lon="6.57932">
        <ele>415.9</ele>
        <time>2023-03-03T16:42:44Z</time>
      </trkpt>
      <trkpt lat="48.18286" lon="6.57933">
        <ele>414.9</ele>
        <time>2023-03-03T16:42:50Z</time>
      </trkpt>
      <trkpt lat="48.18277" lon="6.57933">
        <ele>414</ele>
        <time>2023-03-03T16:43:01Z</time>
      </trkpt>
      <trkpt lat="48.18267" lon="6.57929">
        <ele>413.3</ele>
        <time>2023-03-03T16:43:09Z</time>
      </trkpt>
      <trkpt lat="48.18259" lon="6.57936">
        <ele>413</ele>
        <time>2023-03-03T16:43:21Z</time>
      </trkpt>
      <trkpt lat="48.1825" lon="6.57932">
        <ele>413.2</ele>
        <time>2023-03-03T16:43:31Z</time>
      </trkpt>
      <trkpt lat="48.1824" lon="6.5793">
        <ele>413.7</ele>
        <time>2023-03-03T16:43:37Z</time>
      </trkpt>
      <trkpt lat="48.1823" lon="6.5793">
        <ele>414.5</ele>
        <time>2023-03-03T16:43:44Z</time>
      </trkpt>
      <trkpt lat="48.18221" lon="6.57932">
        <ele>415.2</ele>
        <time>2023-03-03T16:43:55Z</time>
      </trkpt>
      <trkpt lat="48.18216" lon="6.57921">
        <ele>415.6</ele>
        <time>2023-03-03T16:44:11Z</time>
      </trkpt>
      <trkpt lat="48.18212" lon="6.57915">
        <ele>415.8</ele>
        <time>2023-03-03T16:44:18Z</time>
      </trkpt>
      <trkpt lat="48.18211" lon="6.57914">
        <ele>415.8</ele>
        <time>2023-03-03T16:44:19Z</time>
      </trkpt>
      <trkpt lat="48.18204" lon="6.57922">
        <ele>416</ele>
        <time>2023-03-03T16:44:33Z</time>
      </trkpt>
      <trkpt lat="48.18205" lon="6.57908">
        <ele>416</ele>
        <time>2023-03-03T16:44:42Z</time>
      </trkpt>
      <trkpt lat="48.18214" lon="6.57904">
        <ele>416.1</ele>
        <time>2023-03-03T16:44:51Z</time>
      </trkpt>
      <trkpt lat="48.18224" lon="6.57911">
        <ele>416.3</ele>
        <time>2023-03-03T16:44:58Z</time>
      </trkpt>
      <trkpt lat="48.18222" lon="6.57896">
        <ele>416.4</ele>
        <time>2023-03-03T16:45:03Z</time>
      </trkpt>
      <trkpt lat="48.18215" lon="6.57904">
        <ele>416.6</ele>
        <time>2023-03-03T16:45:18Z</time>
      </trkpt>
      <trkpt lat="48.18209" lon="6.5791">
        <ele>416.7</ele>
        <time>2023-03-03T16:45:26Z</time>
      </trkpt>
      <trkpt lat="48.18209" lon="6.5791">
        <ele>416.8</ele>
        <time>2023-03-03T16:45:27Z</time>
      </trkpt>
      <trkpt lat="48.18213" lon="6.57916">
        <ele>416.9</ele>
        <time>2023-03-03T16:45:39Z</time>
      </trkpt>
      <trkpt lat="48.18213" lon="6.57915">
        <ele>416.9</ele>
        <time>2023-03-03T16:45:41Z</time>
      </trkpt>
      <trkpt lat="48.18211" lon="6.57901">
        <ele>417.1</ele>
        <time>2023-03-03T16:45:46Z</time>
      </trkpt>
      <trkpt lat="48.18169" lon="6.57939">
        <ele>417.5</ele>
        <time>2023-03-03T16:46:09Z</time>
      </trkpt>
      <trkpt lat="48.18191" lon="6.57943">
        <ele>417.4</ele>
        <time>2023-03-03T16:46:37Z</time>
      </trkpt>
      <trkpt lat="48.18209" lon="6.57929">
        <ele>417.3</ele>
        <time>2023-03-03T16:46:44Z</time>
      </trkpt>
      <trkpt lat="48.1821" lon="6.57926">
        <ele>417.3</ele>
        <time>2023-03-03T16:46:58Z</time>
      </trkpt>
      <trkpt lat="48.18208" lon="6.57939">
        <ele>417.3</ele>
        <time>2023-03-03T16:51:07Z</time>
      </trkpt>
      <trkpt lat="48.18205" lon="6.57951">
        <ele>417.3</ele>
        <time>2023-03-03T16:51:08Z</time>
      </trkpt>
      <trkpt lat="48.18197" lon="6.57962">
        <ele>417.2</ele>
        <time>2023-03-03T16:51:09Z</time>
      </trkpt>
      <trkpt lat="48.18197" lon="6.57941">
        <ele>417.2</ele>
        <time>2023-03-03T16:51:16Z</time>
      </trkpt>
      <trkpt lat="48.18207" lon="6.57936">
        <ele>417.1</ele>
        <time>2023-03-03T16:51:21Z</time>
      </trkpt>
      <trkpt lat="48.18212" lon="6.57924">
        <ele>417.1</ele>
        <time>2023-03-03T16:51:29Z</time>
      </trkpt>
      <trkpt lat="48.18219" lon="6.57912">
        <ele>417.1</ele>
        <time>2023-03-03T16:51:34Z</time>
      </trkpt>
      <trkpt lat="48.18228" lon="6.57918">
        <ele>417</ele>
        <time>2023-03-03T16:51:46Z</time>
      </trkpt>
      <trkpt lat="48.1822" lon="6.57911">
        <ele>417</ele>
        <time>2023-03-03T16:52:00Z</time>
      </trkpt>
      <trkpt lat="48.18212" lon="6.57902">
        <ele>417</ele>
        <time>2023-03-03T16:52:20Z</time>
      </trkpt>
      <trkpt lat="48.18214" lon="6.57919">
        <ele>416.9</ele>
        <time>2023-03-03T16:52:51Z</time>
      </trkpt>
      <trkpt lat="48.18224" lon="6.57921">
        <ele>416.9</ele>
        <time>2023-03-03T16:52:53Z</time>
      </trkpt>
      <trkpt lat="48.18232" lon="6.57904">
        <ele>416.8</ele>
        <time>2023-03-03T16:52:55Z</time>
      </trkpt>
      <trkpt lat="48.1823" lon="6.57896">
        <ele>416.8</ele>
        <time>2023-03-03T16:52:59Z</time>
      </trkpt>
      <trkpt lat="48.18231" lon="6.57897">
        <ele>416.8</ele>
        <time>2023-03-03T16:53:00Z</time>
      </trkpt>
      <trkpt lat="48.18234" lon="6.57883">
        <ele>416.8</ele>
        <time>2023-03-03T16:53:12Z</time>
      </trkpt>
      <trkpt lat="48.18224" lon="6.5789">
        <ele>416.7</ele>
        <time>2023-03-03T16:53:38Z</time>
      </trkpt>
      <trkpt lat="48.18226" lon="6.57905">
        <ele>416.7</ele>
        <time>2023-03-03T16:54:10Z</time>
      </trkpt>
      <trkpt lat="48.18219" lon="6.57915">
        <ele>418.3</ele>
        <time>2023-03-03T16:54:20Z</time>
      </trkpt>
      <trkpt lat="48.18223" lon="6.57928">
        <ele>419.7</ele>
        <time>2023-03-03T16:54:28Z</time>
      </trkpt>
      <trkpt lat="48.1822" lon="6.5794">
        <ele>421.7</ele>
        <time>2023-03-03T16:54:36Z</time>
      </trkpt>
      <trkpt lat="48.18219" lon="6.57942">
        <ele>421.7</ele>
        <time>2023-03-03T16:54:39Z</time>
      </trkpt>
      <trkpt lat="48.18219" lon="6.57942">
        <ele>421.7</ele>
        <time>2023-03-03T16:54:40Z</time>
      </trkpt>
      <trkpt lat="48.18215" lon="6.57955">
        <ele>423.7</ele>
        <time>2023-03-03T16:54:51Z</time>
      </trkpt>
      <trkpt lat="48.18208" lon="6.57964">
        <ele>425.5</ele>
        <time>2023-03-03T16:55:01Z</time>
      </trkpt>
      <trkpt lat="48.18206" lon="6.57978">
        <ele>427</ele>
        <time>2023-03-03T16:55:12Z</time>
      </trkpt>
      <trkpt lat="48.18202" lon="6.57991">
        <ele>428.7</ele>
        <time>2023-03-03T16:55:19Z</time>
      </trkpt>
      <trkpt lat="48.18198" lon="6.58003">
        <ele>430</ele>
        <time>2023-03-03T16:55:30Z</time>
      </trkpt>
      <trkpt lat="48.18194" lon="6.58017">
        <ele>430.9</ele>
        <time>2023-03-03T16:55:43Z</time>
      </trkpt>
      <trkpt lat="48.18198" lon="6.5803">
        <ele>431</ele>
        <time>2023-03-03T16:55:55Z</time>
      </trkpt>
      <trkpt lat="48.18201" lon="6.58044">
        <ele>431.2</ele>
        <time>2023-03-03T16:56:05Z</time>
      </trkpt>
      <trkpt lat="48.18193" lon="6.58051">
        <ele>431.3</ele>
        <time>2023-03-03T16:56:15Z</time>
      </trkpt>
      <trkpt lat="48.18185" lon="6.58057">
        <ele>431.3</ele>
        <time>2023-03-03T16:56:23Z</time>
      </trkpt>
      <trkpt lat="48.18176" lon="6.58062">
        <ele>431.3</ele>
        <time>2023-03-03T16:56:32Z</time>
      </trkpt>
      <trkpt lat="48.18169" lon="6.58053">
        <ele>431.4</ele>
        <time>2023-03-03T16:56:47Z</time>
      </trkpt>
      <trkpt lat="48.18168" lon="6.58049">
        <ele>431.3</ele>
        <time>2023-03-03T16:57:11Z</time>
      </trkpt>
      <trkpt lat="48.18168" lon="6.58049">
        <ele>431.3</ele>
        <time>2023-03-03T16:57:14Z</time>
      </trkpt>
      <trkpt lat="48.18168" lon="6.58049">
        <ele>431.3</ele>
        <time>2023-03-03T16:57:15Z</time>
      </trkpt>
      <trkpt lat="48.18168" lon="6.58048">
        <ele>431.3</ele>
        <time>2023-03-03T16:57:22Z</time>
      </trkpt>
      <trkpt lat="48.18168" lon="6.58048">
        <ele>431.2</ele>
        <time>2023-03-03T16:57:23Z</time>
      </trkpt>
      <trkpt lat="48.18168" lon="6.58048">
        <ele>431.2</ele>
        <time>2023-03-03T16:57:38Z</time>
      </trkpt>
      <trkpt lat="48.18168" lon="6.58048">
        <ele>431.2</ele>
        <time>2023-03-03T16:57:39Z</time>
      </trkpt>
      <trkpt lat="48.18167" lon="6.58047">
        <ele>431.1</ele>
        <time>2023-03-03T16:57:40Z</time>
      </trkpt>
      <trkpt lat="48.18167" lon="6.58047">
        <ele>431.1</ele>
        <time>2023-03-03T16:57:41Z</time>
      </trkpt>
      <trkpt lat="48.18167" lon="6.58047">
        <ele>431.1</ele>
        <time>2023-03-03T16:58:03Z</time>
      </trkpt>
      <trkpt lat="48.18165" lon="6.58044">
        <ele>431.1</ele>
        <time>2023-03-03T16:58:11Z</time>
      </trkpt>
      <trkpt lat="48.18166" lon="6.58044">
        <ele>431.1</ele>
        <time>2023-03-03T16:58:20Z</time>
      </trkpt>
      <trkpt lat="48.18166" lon="6.58042">
        <ele>431</ele>
        <time>2023-03-03T16:58:26Z</time>
      </trkpt>
      <trkpt lat="48.18166" lon="6.58042">
        <ele>431</ele>
        <time>2023-03-03T16:58:28Z</time>
      </trkpt>
      <trkpt lat="48.18166" lon="6.58042">
        <ele>431</ele>
        <time>2023-03-03T16:58:29Z</time>
      </trkpt>
      <trkpt lat="48.18166" lon="6.58042">
        <ele>430.9</ele>
        <time>2023-03-03T16:58:30Z</time>
      </trkpt>
      <trkpt lat="48.18165" lon="6.58042">
        <ele>430.9</ele>
        <time>2023-03-03T16:58:34Z</time>
      </trkpt>
      <trkpt lat="48.18165" lon="6.58042">
        <ele>430.9</ele>
        <time>2023-03-03T16:58:56Z</time>
      </trkpt>
      <trkpt lat="48.18165" lon="6.58042">
        <ele>430.9</ele>
        <time>2023-03-03T16:58:59Z</time>
      </trkpt>
      <trkpt lat="48.18164" lon="6.58042">
        <ele>430.8</ele>
        <time>2023-03-03T16:59:03Z</time>
      </trkpt>
      <trkpt lat="48.18164" lon="6.58043">
        <ele>430.8</ele>
        <time>2023-03-03T16:59:05Z</time>
      </trkpt>
      <trkpt lat="48.18164" lon="6.58043">
        <ele>430.8</ele>
        <time>2023-03-03T16:59:06Z</time>
      </trkpt>
      <trkpt lat="48.18164" lon="6.58043">
        <ele>430.7</ele>
        <time>2023-03-03T16:59:08Z</time>
      </trkpt>
      <trkpt lat="48.18164" lon="6.58043">
        <ele>430.7</ele>
        <time>2023-03-03T16:59:14Z</time>
      </trkpt>
      <trkpt lat="48.18164" lon="6.58043">
        <ele>430.7</ele>
        <time>2023-03-03T16:59:15Z</time>
      </trkpt>
      <trkpt lat="48.18164" lon="6.58043">
        <ele>430.6</ele>
        <time>2023-03-03T16:59:35Z</time>
      </trkpt>
      <trkpt lat="48.18164" lon="6.58044">
        <ele>430.6</ele>
        <time>2023-03-03T16:59:37Z</time>
      </trkpt>
      <trkpt lat="48.18164" lon="6.58045">
        <ele>430.6</ele>
        <time>2023-03-03T16:59:38Z</time>
      </trkpt>
      <trkpt lat="48.18165" lon="6.58056">
        <ele>430.5</ele>
        <time>2023-03-03T16:59:51Z</time>
      </trkpt>
      <trkpt lat="48.18165" lon="6.58056">
        <ele>430.5</ele>
        <time>2023-03-03T16:59:52Z</time>
      </trkpt>
      <trkpt lat="48.18162" lon="6.58052">
        <ele>430.4</ele>
        <time>2023-03-03T17:00:04Z</time>
      </trkpt>
      <trkpt lat="48.18162" lon="6.58051">
        <ele>430.4</ele>
        <time>2023-03-03T17:00:06Z</time>
      </trkpt>
      <trkpt lat="48.18162" lon="6.58051">
        <ele>430.4</ele>
        <time>2023-03-03T17:00:07Z</time>
      </trkpt>
      <trkpt lat="48.18162" lon="6.58052">
        <ele>430.4</ele>
        <time>2023-03-03T17:00:27Z</time>
      </trkpt>
      <trkpt lat="48.18162" lon="6.58052">
        <ele>430.3</ele>
        <time>2023-03-03T17:00:28Z</time>
      </trkpt>
      <trkpt lat="48.18162" lon="6.58052">
        <ele>430.3</ele>
        <time>2023-03-03T17:00:32Z</time>
      </trkpt>
      <trkpt lat="48.18162" lon="6.58052">
        <ele>430.3</ele>
        <time>2023-03-03T17:00:37Z</time>
      </trkpt>
      <trkpt lat="48.18162" lon="6.58052">
        <ele>430.2</ele>
        <time>2023-03-03T17:00:39Z</time>
      </trkpt>
      <trkpt lat="48.18163" lon="6.58052">
        <ele>430.2</ele>
        <time>2023-03-03T17:00:41Z</time>
      </trkpt>
      <trkpt lat="48.18163" lon="6.58052">
        <ele>430.2</ele>
        <time>2023-03-03T17:00:42Z</time>
      </trkpt>
      <trkpt lat="48.18165" lon="6.58049">
        <ele>430.2</ele>
        <time>2023-03-03T17:00:48Z</time>
      </trkpt>
      <trkpt lat="48.18165" lon="6.58049">
        <ele>430.2</ele>
        <time>2023-03-03T17:00:56Z</time>
      </trkpt>
      <trkpt lat="48.18165" lon="6.58049">
        <ele>430.1</ele>
        <time>2023-03-03T17:00:57Z</time>
      </trkpt>
      <trkpt lat="48.18165" lon="6.58048">
        <ele>430.1</ele>
        <time>2023-03-03T17:00:58Z</time>
      </trkpt>
      <trkpt lat="48.18165" lon="6.58048">
        <ele>430.1</ele>
        <time>2023-03-03T17:00:59Z</time>
      </trkpt>
      <trkpt lat="48.18165" lon="6.58048">
        <ele>430.1</ele>
        <time>2023-03-03T17:01:09Z</time>
      </trkpt>
      <trkpt lat="48.18165" lon="6.58047">
        <ele>430</ele>
        <time>2023-03-03T17:01:12Z</time>
      </trkpt>
      <trkpt lat="48.18165" lon="6.58047">
        <ele>430</ele>
        <time>2023-03-03T17:01:14Z</time>
      </trkpt>
      <trkpt lat="48.18165" lon="6.58047">
        <ele>430</ele>
        <time>2023-03-03T17:01:15Z</time>
      </trkpt>
      <trkpt lat="48.18165" lon="6.58047">
        <ele>429.9</ele>
        <time>2023-03-03T17:01:22Z</time>
      </trkpt>
      <trkpt lat="48.18165" lon="6.58047">
        <ele>429.9</ele>
        <time>2023-03-03T17:01:23Z</time>
      </trkpt>
      <trkpt lat="48.18165" lon="6.58048">
        <ele>429.9</ele>
        <time>2023-03-03T17:01:29Z</time>
      </trkpt>
      <trkpt lat="48.18165" lon="6.58048">
        <ele>429.9</ele>
        <time>2023-03-03T17:01:30Z</time>
      </trkpt>
      <trkpt lat="48.18165" lon="6.58047">
        <ele>429.8</ele>
        <time>2023-03-03T17:01:36Z</time>
      </trkpt>
      <trkpt lat="48.18165" lon="6.58047">
        <ele>429.8</ele>
        <time>2023-03-03T17:01:37Z</time>
      </trkpt>
      <trkpt lat="48.18164" lon="6.58048">
        <ele>429.8</ele>
        <time>2023-03-03T17:01:43Z</time>
      </trkpt>
      <trkpt lat="48.18164" lon="6.58048">
        <ele>429.7</ele>
        <time>2023-03-03T17:01:45Z</time>
      </trkpt>
      <trkpt lat="48.18164" lon="6.58048">
        <ele>429.7</ele>
        <time>2023-03-03T17:01:47Z</time>
      </trkpt>
      <trkpt lat="48.18164" lon="6.58048">
        <ele>429.7</ele>
        <time>2023-03-03T17:01:48Z</time>
      </trkpt>
      <trkpt lat="48.18164" lon="6.58048">
        <ele>429.7</ele>
        <time>2023-03-03T17:01:58Z</time>
      </trkpt>
      <trkpt lat="48.18164" lon="6.58048">
        <ele>429.6</ele>
        <time>2023-03-03T17:01:59Z</time>
      </trkpt>
      <trkpt lat="48.18164" lon="6.58048">
        <ele>429.6</ele>
        <time>2023-03-03T17:02:01Z</time>
      </trkpt>
      <trkpt lat="48.18164" lon="6.58048">
        <ele>429.6</ele>
        <time>2023-03-03T17:02:03Z</time>
      </trkpt>
      <trkpt lat="48.18164" lon="6.58049">
        <ele>429.5</ele>
        <time>2023-03-03T17:02:04Z</time>
      </trkpt>
      <trkpt lat="48.18164" lon="6.58049">
        <ele>429.5</ele>
        <time>2023-03-03T17:02:05Z</time>
      </trkpt>
      <trkpt lat="48.18164" lon="6.58049">
        <ele>429.5</ele>
        <time>2023-03-03T17:02:14Z</time>
      </trkpt>
      <trkpt lat="48.18164" lon="6.58049">
        <ele>429.5</ele>
        <time>2023-03-03T17:02:15Z</time>
      </trkpt>
      <trkpt lat="48.18164" lon="6.58049">
        <ele>429.4</ele>
        <time>2023-03-03T17:02:40Z</time>
      </trkpt>
      <trkpt lat="48.18164" lon="6.58049">
        <ele>429.4</ele>
        <time>2023-03-03T17:02:41Z</time>
      </trkpt>
      <trkpt lat="48.18164" lon="6.58049">
        <ele>429.4</ele>
        <time>2023-03-03T17:02:57Z</time>
      </trkpt>
      <trkpt lat="48.18164" lon="6.58049">
        <ele>429.3</ele>
        <time>2023-03-03T17:02:58Z</time>
      </trkpt>
      <trkpt lat="48.18164" lon="6.5805">
        <ele>429.3</ele>
        <time>2023-03-03T17:03:01Z</time>
      </trkpt>
      <trkpt lat="48.18169" lon="6.58058">
        <ele>429.2</ele>
        <time>2023-03-03T17:03:52Z</time>
      </trkpt>
      <trkpt lat="48.18169" lon="6.58058">
        <ele>429.2</ele>
        <time>2023-03-03T17:03:53Z</time>
      </trkpt>
      <trkpt lat="48.1819" lon="6.58031">
        <ele>429</ele>
        <time>2023-03-03T17:06:14Z</time>
      </trkpt>
      <trkpt lat="48.18201" lon="6.5804">
        <ele>428.9</ele>
        <time>2023-03-03T17:06:18Z</time>
      </trkpt>
      <trkpt lat="48.182" lon="6.58034">
        <ele>428.7</ele>
        <time>2023-03-03T17:06:31Z</time>
      </trkpt>
      <trkpt lat="48.18199" lon="6.58033">
        <ele>428.7</ele>
        <time>2023-03-03T17:06:32Z</time>
      </trkpt>
      <trkpt lat="48.18191" lon="6.58026">
        <ele>428.8</ele>
        <time>2023-03-03T17:06:36Z</time>
      </trkpt>
      <trkpt lat="48.1818" lon="6.5804">
        <ele>429</ele>
        <time>2023-03-03T17:09:40Z</time>
      </trkpt>
      <trkpt lat="48.18178" lon="6.5804">
        <ele>429</ele>
        <time>2023-03-03T17:09:41Z</time>
      </trkpt>
      <trkpt lat="48.1819" lon="6.58049">
        <ele>428.9</ele>
        <time>2023-03-03T17:09:48Z</time>
      </trkpt>
      <trkpt lat="48.1814" lon="6.58011">
        <ele>428.2</ele>
        <time>2023-03-03T17:11:39Z</time>
      </trkpt>
      <trkpt lat="48.1815" lon="6.5802">
        <ele>428.7</ele>
        <time>2023-03-03T17:11:44Z</time>
      </trkpt>
      <trkpt lat="48.18155" lon="6.58009">
        <ele>428.5</ele>
        <time>2023-03-03T17:11:49Z</time>
      </trkpt>
      <trkpt lat="48.18165" lon="6.58018">
        <ele>428.7</ele>
        <time>2023-03-03T17:11:52Z</time>
      </trkpt>
      <trkpt lat="48.18173" lon="6.58028">
        <ele>428.8</ele>
        <time>2023-03-03T17:11:55Z</time>
      </trkpt>
      <trkpt lat="48.18179" lon="6.58038">
        <ele>428.8</ele>
        <time>2023-03-03T17:12:00Z</time>
      </trkpt>
      <trkpt lat="48.1817" lon="6.58039">
        <ele>428.9</ele>
        <time>2023-03-03T17:12:10Z</time>
      </trkpt>
      <trkpt lat="48.18158" lon="6.58038">
        <ele>428.8</ele>
        <time>2023-03-03T17:12:16Z</time>
      </trkpt>
      <trkpt lat="48.18147" lon="6.58033">
        <ele>428.6</ele>
        <time>2023-03-03T17:12:24Z</time>
      </trkpt>
      <trkpt lat="48.18157" lon="6.58035">
        <ele>428.7</ele>
        <time>2023-03-03T17:12:33Z</time>
      </trkpt>
      <trkpt lat="48.18147" lon="6.58042">
        <ele>428.6</ele>
        <time>2023-03-03T17:12:44Z</time>
      </trkpt>
      <trkpt lat="48.18156" lon="6.58044">
        <ele>428.7</ele>
        <time>2023-03-03T17:12:57Z</time>
      </trkpt>
      <trkpt lat="48.18169" lon="6.58045">
        <ele>428.7</ele>
        <time>2023-03-03T17:13:04Z</time>
      </trkpt>
      <trkpt lat="48.18178" lon="6.58052">
        <ele>428.6</ele>
        <time>2023-03-03T17:13:21Z</time>
      </trkpt>
      <trkpt lat="48.18173" lon="6.58064">
        <ele>428.5</ele>
        <time>2023-03-03T17:13:34Z</time>
      </trkpt>
      <trkpt lat="48.18181" lon="6.58056">
        <ele>428.5</ele>
        <time>2023-03-03T17:13:42Z</time>
      </trkpt>
      <trkpt lat="48.18179" lon="6.58071">
        <ele>428.5</ele>
        <time>2023-03-03T17:13:53Z</time>
      </trkpt>
      <trkpt lat="48.18173" lon="6.58058">
        <ele>428.5</ele>
        <time>2023-03-03T17:14:01Z</time>
      </trkpt>
      <trkpt lat="48.18162" lon="6.58055">
        <ele>428.4</ele>
        <time>2023-03-03T17:14:04Z</time>
      </trkpt>
      <trkpt lat="48.18152" lon="6.58054">
        <ele>428.4</ele>
        <time>2023-03-03T17:14:08Z</time>
      </trkpt>
      <trkpt lat="48.18141" lon="6.58053">
        <ele>428.2</ele>
        <time>2023-03-03T17:14:14Z</time>
      </trkpt>
      <trkpt lat="48.1815" lon="6.58048">
        <ele>428.3</ele>
        <time>2023-03-03T17:14:19Z</time>
      </trkpt>
      <trkpt lat="48.18159" lon="6.58053">
        <ele>428.3</ele>
        <time>2023-03-03T17:14:22Z</time>
      </trkpt>
      <trkpt lat="48.18168" lon="6.58054">
        <ele>428.3</ele>
        <time>2023-03-03T17:14:25Z</time>
      </trkpt>
      <trkpt lat="48.18177" lon="6.58058">
        <ele>428.3</ele>
        <time>2023-03-03T17:14:32Z</time>
      </trkpt>
      <trkpt lat="48.18188" lon="6.58065">
        <ele>428.2</ele>
        <time>2023-03-03T17:14:36Z</time>
      </trkpt>
      <trkpt lat="48.18193" lon="6.58077">
        <ele>428.2</ele>
        <time>2023-03-03T17:14:39Z</time>
      </trkpt>
      <trkpt lat="48.18184" lon="6.58083">
        <ele>428.1</ele>
        <time>2023-03-03T17:14:45Z</time>
      </trkpt>
      <trkpt lat="48.18175" lon="6.58076">
        <ele>428.1</ele>
        <time>2023-03-03T17:14:48Z</time>
      </trkpt>
      <trkpt lat="48.18166" lon="6.58063">
        <ele>428.1</ele>
        <time>2023-03-03T17:14:55Z</time>
      </trkpt>
      <trkpt lat="48.18166" lon="6.58048">
        <ele>428.1</ele>
        <time>2023-03-03T17:15:00Z</time>
      </trkpt>
      <trkpt lat="48.18175" lon="6.58046">
        <ele>428.1</ele>
        <time>2023-03-03T17:15:04Z</time>
      </trkpt>
      <trkpt lat="48.18185" lon="6.58047">
        <ele>428</ele>
        <time>2023-03-03T17:15:08Z</time>
      </trkpt>
      <trkpt lat="48.1816" lon="6.58017">
        <ele>427.9</ele>
        <time>2023-03-03T17:18:27Z</time>
      </trkpt>
      <trkpt lat="48.18151" lon="6.58025">
        <ele>427.8</ele>
        <time>2023-03-03T17:18:30Z</time>
      </trkpt>
      <trkpt lat="48.18148" lon="6.5804">
        <ele>427.9</ele>
        <time>2023-03-03T17:18:34Z</time>
      </trkpt>
      <trkpt lat="48.18166" lon="6.58036">
        <ele>428</ele>
        <time>2023-03-03T17:18:58Z</time>
      </trkpt>
      <trkpt lat="48.18177" lon="6.58043">
        <ele>427.9</ele>
        <time>2023-03-03T17:19:01Z</time>
      </trkpt>
      <trkpt lat="48.18177" lon="6.58042">
        <ele>427.9</ele>
        <time>2023-03-03T17:19:02Z</time>
      </trkpt>
      <trkpt lat="48.18165" lon="6.58028">
        <ele>427.9</ele>
        <time>2023-03-03T17:19:19Z</time>
      </trkpt>
      <trkpt lat="48.18165" lon="6.58029">
        <ele>427.8</ele>
        <time>2023-03-03T17:19:20Z</time>
      </trkpt>
      <trkpt lat="48.18171" lon="6.5804">
        <ele>427.9</ele>
        <time>2023-03-03T17:20:00Z</time>
      </trkpt>
      <trkpt lat="48.18173" lon="6.58055">
        <ele>427.8</ele>
        <time>2023-03-03T17:20:12Z</time>
      </trkpt>
      <trkpt lat="48.18163" lon="6.58054">
        <ele>427.7</ele>
        <time>2023-03-03T17:20:40Z</time>
      </trkpt>
      <trkpt lat="48.18156" lon="6.58045">
        <ele>427.7</ele>
        <time>2023-03-03T17:20:47Z</time>
      </trkpt>
      <trkpt lat="48.18153" lon="6.58043">
        <ele>427.7</ele>
        <time>2023-03-03T17:20:55Z</time>
      </trkpt>
      <trkpt lat="48.18153" lon="6.58043">
        <ele>427.6</ele>
        <time>2023-03-03T17:20:56Z</time>
      </trkpt>
      <trkpt lat="48.18161" lon="6.58051">
        <ele>427.6</ele>
        <time>2023-03-03T17:21:27Z</time>
      </trkpt>
      <trkpt lat="48.18159" lon="6.58036">
        <ele>427.6</ele>
        <time>2023-03-03T17:21:39Z</time>
      </trkpt>
      <trkpt lat="48.18163" lon="6.5805">
        <ele>427.6</ele>
        <time>2023-03-03T17:21:53Z</time>
      </trkpt>
      <trkpt lat="48.18157" lon="6.58059">
        <ele>427.5</ele>
        <time>2023-03-03T17:22:15Z</time>
      </trkpt>
      <trkpt lat="48.18166" lon="6.58052">
        <ele>427.5</ele>
        <time>2023-03-03T17:22:44Z</time>
      </trkpt>
      <trkpt lat="48.18178" lon="6.58053">
        <ele>427.5</ele>
        <time>2023-03-03T17:22:53Z</time>
      </trkpt>
      <trkpt lat="48.18184" lon="6.58039">
        <ele>427.4</ele>
        <time>2023-03-03T17:23:05Z</time>
      </trkpt>
      <trkpt lat="48.18174" lon="6.58041">
        <ele>427.4</ele>
        <time>2023-03-03T17:23:15Z</time>
      </trkpt>
      <trkpt lat="48.18169" lon="6.58052">
        <ele>427.4</ele>
        <time>2023-03-03T17:23:29Z</time>
      </trkpt>
      <trkpt lat="48.1816" lon="6.58049">
        <ele>427.4</ele>
        <time>2023-03-03T17:23:33Z</time>
      </trkpt>
      <trkpt lat="48.18153" lon="6.58066">
        <ele>427.2</ele>
        <time>2023-03-03T17:23:37Z</time>
      </trkpt>
      <trkpt lat="48.18161" lon="6.58057">
        <ele>427.3</ele>
        <time>2023-03-03T17:24:03Z</time>
      </trkpt>
      <trkpt lat="48.18172" lon="6.58059">
        <ele>427.3</ele>
        <time>2023-03-03T17:24:17Z</time>
      </trkpt>
      <trkpt lat="48.18172" lon="6.58042">
        <ele>427.3</ele>
        <time>2023-03-03T17:24:52Z</time>
      </trkpt>
      <trkpt lat="48.18177" lon="6.58055">
        <ele>427.2</ele>
        <time>2023-03-03T17:25:02Z</time>
      </trkpt>
      <trkpt lat="48.18141" lon="6.58078">
        <ele>427.1</ele>
        <time>2023-03-03T17:25:24Z</time>
      </trkpt>
      <trkpt lat="48.18151" lon="6.58076">
        <ele>427.1</ele>
        <time>2023-03-03T17:25:27Z</time>
      </trkpt>
      <trkpt lat="48.18138" lon="6.58049">
        <ele>426.9</ele>
        <time>2023-03-03T17:25:35Z</time>
      </trkpt>
      <trkpt lat="48.18145" lon="6.58034">
        <ele>426.9</ele>
        <time>2023-03-03T17:25:40Z</time>
      </trkpt>
      <trkpt lat="48.18156" lon="6.58033">
        <ele>427.1</ele>
        <time>2023-03-03T17:25:43Z</time>
      </trkpt>
      <trkpt lat="48.18144" lon="6.58033">
        <ele>426.8</ele>
        <time>2023-03-03T17:26:12Z</time>
      </trkpt>
      <trkpt lat="48.18138" lon="6.5802">
        <ele>426.4</ele>
        <time>2023-03-03T17:26:18Z</time>
      </trkpt>
      <trkpt lat="48.18145" lon="6.58035">
        <ele>426.8</ele>
        <time>2023-03-03T17:26:25Z</time>
      </trkpt>
      <trkpt lat="48.18155" lon="6.58036">
        <ele>427</ele>
        <time>2023-03-03T17:26:30Z</time>
      </trkpt>
      <trkpt lat="48.18165" lon="6.58035">
        <ele>427</ele>
        <time>2023-03-03T17:26:32Z</time>
      </trkpt>
      <trkpt lat="48.18174" lon="6.58037">
        <ele>426.9</ele>
        <time>2023-03-03T17:26:35Z</time>
      </trkpt>
      <trkpt lat="48.18181" lon="6.58046">
        <ele>426.9</ele>
        <time>2023-03-03T17:26:41Z</time>
      </trkpt>
      <trkpt lat="48.18173" lon="6.58055">
        <ele>426.9</ele>
        <time>2023-03-03T17:26:45Z</time>
      </trkpt>
      <trkpt lat="48.18211" lon="6.5802">
        <ele>425.8</ele>
        <time>2023-03-03T17:27:06Z</time>
      </trkpt>
      <trkpt lat="48.18185" lon="6.58057">
        <ele>426.7</ele>
        <time>2023-03-03T17:28:56Z</time>
      </trkpt>
      <trkpt lat="48.18174" lon="6.58062">
        <ele>426.7</ele>
        <time>2023-03-03T17:29:02Z</time>
      </trkpt>
      <trkpt lat="48.18165" lon="6.58059">
        <ele>426.7</ele>
        <time>2023-03-03T17:29:08Z</time>
      </trkpt>
      <trkpt lat="48.18164" lon="6.58055">
        <ele>426.7</ele>
        <time>2023-03-03T17:29:14Z</time>
      </trkpt>
      <trkpt lat="48.18163" lon="6.58054">
        <ele>426.7</ele>
        <time>2023-03-03T17:29:15Z</time>
      </trkpt>
      <trkpt lat="48.18173" lon="6.58047">
        <ele>426.7</ele>
        <time>2023-03-03T17:29:29Z</time>
      </trkpt>
      <trkpt lat="48.18184" lon="6.58048">
        <ele>426.6</ele>
        <time>2023-03-03T17:29:36Z</time>
      </trkpt>
      <trkpt lat="48.18175" lon="6.58053">
        <ele>426.6</ele>
        <time>2023-03-03T17:29:51Z</time>
      </trkpt>
      <trkpt lat="48.18166" lon="6.58052">
        <ele>426.6</ele>
        <time>2023-03-03T17:30:07Z</time>
      </trkpt>
      <trkpt lat="48.18164" lon="6.58054">
        <ele>426.5</ele>
        <time>2023-03-03T17:30:13Z</time>
      </trkpt>
      <trkpt lat="48.18164" lon="6.58054">
        <ele>426.5</ele>
        <time>2023-03-03T17:30:14Z</time>
      </trkpt>
      <trkpt lat="48.18166" lon="6.58056">
        <ele>426.5</ele>
        <time>2023-03-03T17:30:20Z</time>
      </trkpt>
      <trkpt lat="48.18165" lon="6.58056">
        <ele>426.4</ele>
        <time>2023-03-03T17:30:27Z</time>
      </trkpt>
      <trkpt lat="48.18164" lon="6.58058">
        <ele>426.4</ele>
        <time>2023-03-03T17:30:45Z</time>
      </trkpt>
      <trkpt lat="48.18164" lon="6.58059">
        <ele>426.4</ele>
        <time>2023-03-03T17:30:46Z</time>
      </trkpt>
      <trkpt lat="48.18166" lon="6.58055">
        <ele>426.4</ele>
        <time>2023-03-03T17:31:10Z</time>
      </trkpt>
      <trkpt lat="48.18166" lon="6.58055">
        <ele>426.3</ele>
        <time>2023-03-03T17:31:11Z</time>
      </trkpt>
      <trkpt lat="48.18166" lon="6.58055">
        <ele>426.3</ele>
        <time>2023-03-03T17:31:12Z</time>
      </trkpt>
      <trkpt lat="48.18165" lon="6.58056">
        <ele>426.3</ele>
        <time>2023-03-03T17:31:14Z</time>
      </trkpt>
      <trkpt lat="48.18162" lon="6.58057">
        <ele>426.2</ele>
        <time>2023-03-03T17:31:18Z</time>
      </trkpt>
      <trkpt lat="48.18162" lon="6.58057">
        <ele>426.2</ele>
        <time>2023-03-03T17:31:23Z</time>
      </trkpt>
      <trkpt lat="48.18162" lon="6.58057">
        <ele>426.2</ele>
        <time>2023-03-03T17:31:26Z</time>
      </trkpt>
      <trkpt lat="48.18162" lon="6.58057">
        <ele>426.1</ele>
        <time>2023-03-03T17:31:27Z</time>
      </trkpt>
      <trkpt lat="48.18163" lon="6.5806">
        <ele>426.1</ele>
        <time>2023-03-03T17:31:33Z</time>
      </trkpt>
      <trkpt lat="48.18164" lon="6.5806">
        <ele>426.1</ele>
        <time>2023-03-03T17:31:35Z</time>
      </trkpt>
      <trkpt lat="48.18166" lon="6.58059">
        <ele>426.1</ele>
        <time>2023-03-03T17:31:37Z</time>
      </trkpt>
      <trkpt lat="48.18166" lon="6.58059">
        <ele>426</ele>
        <time>2023-03-03T17:31:39Z</time>
      </trkpt>
      <trkpt lat="48.18166" lon="6.58059">
        <ele>426</ele>
        <time>2023-03-03T17:31:40Z</time>
      </trkpt>
      <trkpt lat="48.18166" lon="6.58059">
        <ele>426</ele>
        <time>2023-03-03T17:31:42Z</time>
      </trkpt>
      <trkpt lat="48.18166" lon="6.58059">
        <ele>425.9</ele>
        <time>2023-03-03T17:31:43Z</time>
      </trkpt>
      <trkpt lat="48.18166" lon="6.58058">
        <ele>425.9</ele>
        <time>2023-03-03T17:31:44Z</time>
      </trkpt>
      <trkpt lat="48.18166" lon="6.58058">
        <ele>425.9</ele>
        <time>2023-03-03T17:31:45Z</time>
      </trkpt>
      <trkpt lat="48.18166" lon="6.58058">
        <ele>425.9</ele>
        <time>2023-03-03T17:31:46Z</time>
      </trkpt>
      <trkpt lat="48.18167" lon="6.58058">
        <ele>425.8</ele>
        <time>2023-03-03T17:31:48Z</time>
      </trkpt>
      <trkpt lat="48.18167" lon="6.58058">
        <ele>425.8</ele>
        <time>2023-03-03T17:31:49Z</time>
      </trkpt>
      <trkpt lat="48.18167" lon="6.58058">
        <ele>425.8</ele>
        <time>2023-03-03T17:31:50Z</time>
      </trkpt>
      <trkpt lat="48.18168" lon="6.58057">
        <ele>425.7</ele>
        <time>2023-03-03T17:31:51Z</time>
      </trkpt>
      <trkpt lat="48.18168" lon="6.58057">
        <ele>425.7</ele>
        <time>2023-03-03T17:31:53Z</time>
      </trkpt>
      <trkpt lat="48.18168" lon="6.58057">
        <ele>425.7</ele>
        <time>2023-03-03T17:32:06Z</time>
      </trkpt>
      <trkpt lat="48.18167" lon="6.58056">
        <ele>425.7</ele>
        <time>2023-03-03T17:32:09Z</time>
      </trkpt>
      <trkpt lat="48.18167" lon="6.58056">
        <ele>425.6</ele>
        <time>2023-03-03T17:32:12Z</time>
      </trkpt>
      <trkpt lat="48.18167" lon="6.58056">
        <ele>425.6</ele>
        <time>2023-03-03T17:32:13Z</time>
      </trkpt>
      <trkpt lat="48.18167" lon="6.58056">
        <ele>425.6</ele>
        <time>2023-03-03T17:32:14Z</time>
      </trkpt>
      <trkpt lat="48.18166" lon="6.58055">
        <ele>425.6</ele>
        <time>2023-03-03T17:32:20Z</time>
      </trkpt>
      <trkpt lat="48.18166" lon="6.58054">
        <ele>425.5</ele>
        <time>2023-03-03T17:32:22Z</time>
      </trkpt>
      <trkpt lat="48.18167" lon="6.58053">
        <ele>425.5</ele>
        <time>2023-03-03T17:32:26Z</time>
      </trkpt>
      <trkpt lat="48.18168" lon="6.58053">
        <ele>425.5</ele>
        <time>2023-03-03T17:32:34Z</time>
      </trkpt>
      <trkpt lat="48.18168" lon="6.58053">
        <ele>425.5</ele>
        <time>2023-03-03T17:32:38Z</time>
      </trkpt>
      <trkpt lat="48.18168" lon="6.58054">
        <ele>425.4</ele>
        <time>2023-03-03T17:32:50Z</time>
      </trkpt>
      <trkpt lat="48.18167" lon="6.58055">
        <ele>425.4</ele>
        <time>2023-03-03T17:32:56Z</time>
      </trkpt>
      <trkpt lat="48.18167" lon="6.58055">
        <ele>425.4</ele>
        <time>2023-03-03T17:32:57Z</time>
      </trkpt>
      <trkpt lat="48.18166" lon="6.58055">
        <ele>425.3</ele>
        <time>2023-03-03T17:33:00Z</time>
      </trkpt>
      <trkpt lat="48.18166" lon="6.58056">
        <ele>425.3</ele>
        <time>2023-03-03T17:33:01Z</time>
      </trkpt>
      <trkpt lat="48.18165" lon="6.58055">
        <ele>425.3</ele>
        <time>2023-03-03T17:33:06Z</time>
      </trkpt>
      <trkpt lat="48.18165" lon="6.58055">
        <ele>425.3</ele>
        <time>2023-03-03T17:33:08Z</time>
      </trkpt>
      <trkpt lat="48.18165" lon="6.58056">
        <ele>425.2</ele>
        <time>2023-03-03T17:33:09Z</time>
      </trkpt>
      <trkpt lat="48.18165" lon="6.58055">
        <ele>425.2</ele>
        <time>2023-03-03T17:33:10Z</time>
      </trkpt>
      <trkpt lat="48.18165" lon="6.58055">
        <ele>425.2</ele>
        <time>2023-03-03T17:33:14Z</time>
      </trkpt>
      <trkpt lat="48.18164" lon="6.58055">
        <ele>425.1</ele>
        <time>2023-03-03T17:33:15Z</time>
      </trkpt>
      <trkpt lat="48.18164" lon="6.58054">
        <ele>425.1</ele>
        <time>2023-03-03T17:33:18Z</time>
      </trkpt>
      <trkpt lat="48.18164" lon="6.58053">
        <ele>425.1</ele>
        <time>2023-03-03T17:33:19Z</time>
      </trkpt>
      <trkpt lat="48.18164" lon="6.58053">
        <ele>425.1</ele>
        <time>2023-03-03T17:33:21Z</time>
      </trkpt>
      <trkpt lat="48.18165" lon="6.58053">
        <ele>425</ele>
        <time>2023-03-03T17:33:22Z</time>
      </trkpt>
      <trkpt lat="48.18167" lon="6.58055">
        <ele>425</ele>
        <time>2023-03-03T17:33:35Z</time>
      </trkpt>
      <trkpt lat="48.18167" lon="6.58055">
        <ele>425</ele>
        <time>2023-03-03T17:33:36Z</time>
      </trkpt>
      <trkpt lat="48.18165" lon="6.58056">
        <ele>424.9</ele>
        <time>2023-03-03T17:33:44Z</time>
      </trkpt>
      <trkpt lat="48.18165" lon="6.58056">
        <ele>424.9</ele>
        <time>2023-03-03T17:33:45Z</time>
      </trkpt>
      <trkpt lat="48.18165" lon="6.58056">
        <ele>424.9</ele>
        <time>2023-03-03T17:33:46Z</time>
      </trkpt>
      <trkpt lat="48.18165" lon="6.58056">
        <ele>424.8</ele>
        <time>2023-03-03T17:33:48Z</time>
      </trkpt>
      <trkpt lat="48.18171" lon="6.58053">
        <ele>424.8</ele>
        <time>2023-03-03T17:34:05Z</time>
      </trkpt>
      <trkpt lat="48.18171" lon="6.58053">
        <ele>424.8</ele>
        <time>2023-03-03T17:34:06Z</time>
      </trkpt>
      <trkpt lat="48.18172" lon="6.58052">
        <ele>424.8</ele>
        <time>2023-03-03T17:34:09Z</time>
      </trkpt>
      <trkpt lat="48.18172" lon="6.58052">
        <ele>424.8</ele>
        <time>2023-03-03T17:34:23Z</time>
      </trkpt>
      <trkpt lat="48.18169" lon="6.58053">
        <ele>424.7</ele>
        <time>2023-03-03T17:34:34Z</time>
      </trkpt>
      <trkpt lat="48.18169" lon="6.58053">
        <ele>424.7</ele>
        <time>2023-03-03T17:34:38Z</time>
      </trkpt>
      <trkpt lat="48.18169" lon="6.58053">
        <ele>424.7</ele>
        <time>2023-03-03T17:34:39Z</time>
      </trkpt>
      <trkpt lat="48.18169" lon="6.58053">
        <ele>424.6</ele>
        <time>2023-03-03T17:34:40Z</time>
      </trkpt>
      <trkpt lat="48.18169" lon="6.58053">
        <ele>424.6</ele>
        <time>2023-03-03T17:34:41Z</time>
      </trkpt>
      <trkpt lat="48.18168" lon="6.58052">
        <ele>424.6</ele>
        <time>2023-03-03T17:34:42Z</time>
      </trkpt>
      <trkpt lat="48.18168" lon="6.58052">
        <ele>424.5</ele>
        <time>2023-03-03T17:34:44Z</time>
      </trkpt>
      <trkpt lat="48.18167" lon="6.58052">
        <ele>424.5</ele>
        <time>2023-03-03T17:34:48Z</time>
      </trkpt>
      <trkpt lat="48.18167" lon="6.58052">
        <ele>424.5</ele>
        <time>2023-03-03T17:34:49Z</time>
      </trkpt>
      <trkpt lat="48.18168" lon="6.58052">
        <ele>424.5</ele>
        <time>2023-03-03T17:35:18Z</time>
      </trkpt>
      <trkpt lat="48.18168" lon="6.58052">
        <ele>424.4</ele>
        <time>2023-03-03T17:35:19Z</time>
      </trkpt>
      <trkpt lat="48.18167" lon="6.58052">
        <ele>424.4</ele>
        <time>2023-03-03T17:35:44Z</time>
      </trkpt>
      <trkpt lat="48.18167" lon="6.58052">
        <ele>424.4</ele>
        <time>2023-03-03T17:35:45Z</time>
      </trkpt>
      <trkpt lat="48.18167" lon="6.58052">
        <ele>424.3</ele>
        <time>2023-03-03T17:35:49Z</time>
      </trkpt>
      <trkpt lat="48.18167" lon="6.58052">
        <ele>424.3</ele>
        <time>2023-03-03T17:35:51Z</time>
      </trkpt>
      <trkpt lat="48.18167" lon="6.58052">
        <ele>424.3</ele>
        <time>2023-03-03T17:35:56Z</time>
      </trkpt>
      <trkpt lat="48.18167" lon="6.58051">
        <ele>424.3</ele>
        <time>2023-03-03T17:35:58Z</time>
      </trkpt>
      <trkpt lat="48.18167" lon="6.58051">
        <ele>424.2</ele>
        <time>2023-03-03T17:35:59Z</time>
      </trkpt>
      <trkpt lat="48.18167" lon="6.58051">
        <ele>424.2</ele>
        <time>2023-03-03T17:36:00Z</time>
      </trkpt>
      <trkpt lat="48.18166" lon="6.58051">
        <ele>424.2</ele>
        <time>2023-03-03T17:36:03Z</time>
      </trkpt>
      <trkpt lat="48.18166" lon="6.5805">
        <ele>424.2</ele>
        <time>2023-03-03T17:36:05Z</time>
      </trkpt>
      <trkpt lat="48.18166" lon="6.5805">
        <ele>424.1</ele>
        <time>2023-03-03T17:36:06Z</time>
      </trkpt>
      <trkpt lat="48.18166" lon="6.5805">
        <ele>424.1</ele>
        <time>2023-03-03T17:36:07Z</time>
      </trkpt>
      <trkpt lat="48.18166" lon="6.5805">
        <ele>424.1</ele>
        <time>2023-03-03T17:36:08Z</time>
      </trkpt>
      <trkpt lat="48.18166" lon="6.5805">
        <ele>424.1</ele>
        <time>2023-03-03T17:36:09Z</time>
      </trkpt>
      <trkpt lat="48.18166" lon="6.5805">
        <ele>424</ele>
        <time>2023-03-03T17:36:14Z</time>
      </trkpt>
      <trkpt lat="48.18166" lon="6.5805">
        <ele>424</ele>
        <time>2023-03-03T17:36:15Z</time>
      </trkpt>
      <trkpt lat="48.18165" lon="6.5805">
        <ele>424</ele>
        <time>2023-03-03T17:38:15Z</time>
      </trkpt>
      <trkpt lat="48.18165" lon="6.5805">
        <ele>423.9</ele>
        <time>2023-03-03T17:38:16Z</time>
      </trkpt>
      <trkpt lat="48.18165" lon="6.5805">
        <ele>423.9</ele>
        <time>2023-03-03T17:38:34Z</time>
      </trkpt>
      <trkpt lat="48.18165" lon="6.5805">
        <ele>423.9</ele>
        <time>2023-03-03T17:38:35Z</time>
      </trkpt>
      <trkpt lat="48.18165" lon="6.5805">
        <ele>423.9</ele>
        <time>2023-03-03T17:40:43Z</time>
      </trkpt>
      <trkpt lat="48.18165" lon="6.5805">
        <ele>423.8</ele>
        <time>2023-03-03T17:40:44Z</time>
      </trkpt>
      <trkpt lat="48.18166" lon="6.5805">
        <ele>423.8</ele>
        <time>2023-03-03T17:40:48Z</time>
      </trkpt>
      <trkpt lat="48.18166" lon="6.5805">
        <ele>423.8</ele>
        <time>2023-03-03T17:40:49Z</time>
      </trkpt>
      <trkpt lat="48.18166" lon="6.5805">
        <ele>423.7</ele>
        <time>2023-03-03T17:40:50Z</time>
      </trkpt>
      <trkpt lat="48.18166" lon="6.5805">
        <ele>423.7</ele>
        <time>2023-03-03T17:40:51Z</time>
      </trkpt>
      <trkpt lat="48.18166" lon="6.5805">
        <ele>423.7</ele>
        <time>2023-03-03T17:40:53Z</time>
      </trkpt>
      <trkpt lat="48.18166" lon="6.5805">
        <ele>423.7</ele>
        <time>2023-03-03T17:40:54Z</time>
      </trkpt>
      <trkpt lat="48.18166" lon="6.5805">
        <ele>423.6</ele>
        <time>2023-03-03T17:40:56Z</time>
      </trkpt>
      <trkpt lat="48.18166" lon="6.5805">
        <ele>423.6</ele>
        <time>2023-03-03T17:40:58Z</time>
      </trkpt>
      <trkpt lat="48.18166" lon="6.5805">
        <ele>423.6</ele>
        <time>2023-03-03T17:41:01Z</time>
      </trkpt>
      <trkpt lat="48.18166" lon="6.58049">
        <ele>423.5</ele>
        <time>2023-03-03T17:41:04Z</time>
      </trkpt>
      <trkpt lat="48.18165" lon="6.5805">
        <ele>423.5</ele>
        <time>2023-03-03T17:41:15Z</time>
      </trkpt>
      <trkpt lat="48.18165" lon="6.58051">
        <ele>423.5</ele>
        <time>2023-03-03T17:41:18Z</time>
      </trkpt>
      <trkpt lat="48.18165" lon="6.58051">
        <ele>423.5</ele>
        <time>2023-03-03T17:41:29Z</time>
      </trkpt>
      <trkpt lat="48.18165" lon="6.58051">
        <ele>423.4</ele>
        <time>2023-03-03T17:41:30Z</time>
      </trkpt>
      <trkpt lat="48.18165" lon="6.58051">
        <ele>423.4</ele>
        <time>2023-03-03T17:41:31Z</time>
      </trkpt>
      <trkpt lat="48.18165" lon="6.58051">
        <ele>423.3</ele>
        <time>2023-03-03T17:41:33Z</time>
      </trkpt>
      <trkpt lat="48.18165" lon="6.58051">
        <ele>423.3</ele>
        <time>2023-03-03T17:41:34Z</time>
      </trkpt>
      <trkpt lat="48.18165" lon="6.58052">
        <ele>423.3</ele>
        <time>2023-03-03T17:41:35Z</time>
      </trkpt>
      <trkpt lat="48.18165" lon="6.58052">
        <ele>423.2</ele>
        <time>2023-03-03T17:41:36Z</time>
      </trkpt>
      <trkpt lat="48.18165" lon="6.58052">
        <ele>423.2</ele>
        <time>2023-03-03T17:41:37Z</time>
      </trkpt>
      <trkpt lat="48.18166" lon="6.58052">
        <ele>423.2</ele>
        <time>2023-03-03T17:41:42Z</time>
      </trkpt>
      <trkpt lat="48.18168" lon="6.5805">
        <ele>423.2</ele>
        <time>2023-03-03T17:41:53Z</time>
      </trkpt>
      <trkpt lat="48.18168" lon="6.5805">
        <ele>423.2</ele>
        <time>2023-03-03T17:41:55Z</time>
      </trkpt>
      <trkpt lat="48.18168" lon="6.5805">
        <ele>423.1</ele>
        <time>2023-03-03T17:41:58Z</time>
      </trkpt>
      <trkpt lat="48.18169" lon="6.5805">
        <ele>423.1</ele>
        <time>2023-03-03T17:41:59Z</time>
      </trkpt>
      <trkpt lat="48.18167" lon="6.5805">
        <ele>423.1</ele>
        <time>2023-03-03T17:42:03Z</time>
      </trkpt>
      <trkpt lat="48.18167" lon="6.5805">
        <ele>423.1</ele>
        <time>2023-03-03T17:42:04Z</time>
      </trkpt>
      <trkpt lat="48.18167" lon="6.5805">
        <ele>423</ele>
        <time>2023-03-03T17:42:05Z</time>
      </trkpt>
      <trkpt lat="48.18167" lon="6.58051">
        <ele>423</ele>
        <time>2023-03-03T17:42:06Z</time>
      </trkpt>
      <trkpt lat="48.18167" lon="6.58051">
        <ele>423</ele>
        <time>2023-03-03T17:42:08Z</time>
      </trkpt>
      <trkpt lat="48.18167" lon="6.58051">
        <ele>422.9</ele>
        <time>2023-03-03T17:42:10Z</time>
      </trkpt>
      <trkpt lat="48.18167" lon="6.58051">
        <ele>422.9</ele>
        <time>2023-03-03T17:42:11Z</time>
      </trkpt>
      <trkpt lat="48.18167" lon="6.58051">
        <ele>422.9</ele>
        <time>2023-03-03T17:42:12Z</time>
      </trkpt>
      <trkpt lat="48.18169" lon="6.58052">
        <ele>422.8</ele>
        <time>2023-03-03T17:42:17Z</time>
      </trkpt>
      <trkpt lat="48.18169" lon="6.58052">
        <ele>422.8</ele>
        <time>2023-03-03T17:42:18Z</time>
      </trkpt>
      <trkpt lat="48.18169" lon="6.58052">
        <ele>422.8</ele>
        <time>2023-03-03T17:42:29Z</time>
      </trkpt>
      <trkpt lat="48.1817" lon="6.58052">
        <ele>422.8</ele>
        <time>2023-03-03T17:42:30Z</time>
      </trkpt>
      <trkpt lat="48.18171" lon="6.58051">
        <ele>422.7</ele>
        <time>2023-03-03T17:42:35Z</time>
      </trkpt>
      <trkpt lat="48.18171" lon="6.5805">
        <ele>422.7</ele>
        <time>2023-03-03T17:42:39Z</time>
      </trkpt>
      <trkpt lat="48.18171" lon="6.5805">
        <ele>422.7</ele>
        <time>2023-03-03T17:42:41Z</time>
      </trkpt>
      <trkpt lat="48.1817" lon="6.5805">
        <ele>422.7</ele>
        <time>2023-03-03T17:42:43Z</time>
      </trkpt>
      <trkpt lat="48.18168" lon="6.58051">
        <ele>422.6</ele>
        <time>2023-03-03T17:42:51Z</time>
      </trkpt>
      <trkpt lat="48.18168" lon="6.58051">
        <ele>422.6</ele>
        <time>2023-03-03T17:42:55Z</time>
      </trkpt>
      <trkpt lat="48.18168" lon="6.58051">
        <ele>422.5</ele>
        <time>2023-03-03T17:42:56Z</time>
      </trkpt>
      <trkpt lat="48.18167" lon="6.58051">
        <ele>422.5</ele>
        <time>2023-03-03T17:42:58Z</time>
      </trkpt>
      <trkpt lat="48.18168" lon="6.58051">
        <ele>422.5</ele>
        <time>2023-03-03T17:43:00Z</time>
      </trkpt>
      <trkpt lat="48.18168" lon="6.58052">
        <ele>422.5</ele>
        <time>2023-03-03T17:43:05Z</time>
      </trkpt>
      <trkpt lat="48.18168" lon="6.58052">
        <ele>422.4</ele>
        <time>2023-03-03T17:43:06Z</time>
      </trkpt>
      <trkpt lat="48.18168" lon="6.58052">
        <ele>422.4</ele>
        <time>2023-03-03T17:43:11Z</time>
      </trkpt>
      <trkpt lat="48.18168" lon="6.58052">
        <ele>422.4</ele>
        <time>2023-03-03T17:43:12Z</time>
      </trkpt>
      <trkpt lat="48.18168" lon="6.58052">
        <ele>422.3</ele>
        <time>2023-03-03T17:43:14Z</time>
      </trkpt>
      <trkpt lat="48.18168" lon="6.58052">
        <ele>422.3</ele>
        <time>2023-03-03T17:43:15Z</time>
      </trkpt>
      <trkpt lat="48.18168" lon="6.58052">
        <ele>422.3</ele>
        <time>2023-03-03T17:43:24Z</time>
      </trkpt>
      <trkpt lat="48.18161" lon="6.58052">
        <ele>422.2</ele>
        <time>2023-03-03T17:43:36Z</time>
      </trkpt>
      <trkpt lat="48.18161" lon="6.58052">
        <ele>422.2</ele>
        <time>2023-03-03T17:43:37Z</time>
      </trkpt>
      <trkpt lat="48.18162" lon="6.58051">
        <ele>422.2</ele>
        <time>2023-03-03T17:43:48Z</time>
      </trkpt>
      <trkpt lat="48.18163" lon="6.58051">
        <ele>422.2</ele>
        <time>2023-03-03T17:43:50Z</time>
      </trkpt>
      <trkpt lat="48.18163" lon="6.58051">
        <ele>422.2</ele>
        <time>2023-03-03T17:43:51Z</time>
      </trkpt>
      <trkpt lat="48.18162" lon="6.58051">
        <ele>422.1</ele>
        <time>2023-03-03T17:44:09Z</time>
      </trkpt>
      <trkpt lat="48.18162" lon="6.58058">
        <ele>422</ele>
        <time>2023-03-03T17:44:55Z</time>
      </trkpt>
      <trkpt lat="48.18162" lon="6.58058">
        <ele>422</ele>
        <time>2023-03-03T17:44:56Z</time>
      </trkpt>
      <trkpt lat="48.18154" lon="6.58053">
        <ele>422</ele>
        <time>2023-03-03T17:45:13Z</time>
      </trkpt>
      <trkpt lat="48.18152" lon="6.58039">
        <ele>422</ele>
        <time>2023-03-03T17:45:24Z</time>
      </trkpt>
      <trkpt lat="48.1815" lon="6.58025">
        <ele>421.8</ele>
        <time>2023-03-03T17:45:31Z</time>
      </trkpt>
      <trkpt lat="48.18151" lon="6.58012">
        <ele>421.4</ele>
        <time>2023-03-03T17:45:39Z</time>
      </trkpt>
      <trkpt lat="48.18152" lon="6.57998">
        <ele>420.9</ele>
        <time>2023-03-03T17:45:46Z</time>
      </trkpt>
      <trkpt lat="48.18157" lon="6.57987">
        <ele>420.4</ele>
        <time>2023-03-03T17:45:55Z</time>
      </trkpt>
      <trkpt lat="48.18156" lon="6.57973">
        <ele>419.1</ele>
        <time>2023-03-03T17:46:01Z</time>
      </trkpt>
      <trkpt lat="48.18155" lon="6.5796">
        <ele>418</ele>
        <time>2023-03-03T17:46:10Z</time>
      </trkpt>
      <trkpt lat="48.18151" lon="6.57947">
        <ele>416.5</ele>
        <time>2023-03-03T17:46:23Z</time>
      </trkpt>
      <trkpt lat="48.18141" lon="6.57949">
        <ele>417.1</ele>
        <time>2023-03-03T17:46:30Z</time>
      </trkpt>
      <trkpt lat="48.18131" lon="6.57951">
        <ele>416.9</ele>
        <time>2023-03-03T17:46:38Z</time>
      </trkpt>
      <trkpt lat="48.18122" lon="6.57955">
        <ele>416.8</ele>
        <time>2023-03-03T17:46:46Z</time>
      </trkpt>
      <trkpt lat="48.18113" lon="6.57952">
        <ele>416.6</ele>
        <time>2023-03-03T17:46:54Z</time>
      </trkpt>
      <trkpt lat="48.18104" lon="6.57949">
        <ele>416.3</ele>
        <time>2023-03-03T17:46:59Z</time>
      </trkpt>
      <trkpt lat="48.18094" lon="6.57946">
        <ele>416</ele>
        <time>2023-03-03T17:47:06Z</time>
      </trkpt>
      <trkpt lat="48.18086" lon="6.5794">
        <ele>415.8</ele>
        <time>2023-03-03T17:47:12Z</time>
      </trkpt>
      <trkpt lat="48.18075" lon="6.57939">
        <ele>415.7</ele>
        <time>2023-03-03T17:47:18Z</time>
      </trkpt>
      <trkpt lat="48.18065" lon="6.57937">
        <ele>415.8</ele>
        <time>2023-03-03T17:47:23Z</time>
      </trkpt>
      <trkpt lat="48.18055" lon="6.57938">
        <ele>416</ele>
        <time>2023-03-03T17:47:29Z</time>
      </trkpt>
      <trkpt lat="48.18045" lon="6.57939">
        <ele>416.4</ele>
        <time>2023-03-03T17:47:35Z</time>
      </trkpt>
      <trkpt lat="48.18036" lon="6.5794">
        <ele>416.8</ele>
        <time>2023-03-03T17:47:43Z</time>
      </trkpt>
      <trkpt lat="48.18027" lon="6.57937">
        <ele>417.2</ele>
        <time>2023-03-03T17:47:51Z</time>
      </trkpt>
      <trkpt lat="48.18017" lon="6.57936">
        <ele>417.6</ele>
        <time>2023-03-03T17:47:57Z</time>
      </trkpt>
      <trkpt lat="48.18007" lon="6.57935">
        <ele>418</ele>
        <time>2023-03-03T17:48:03Z</time>
      </trkpt>
      <trkpt lat="48.17997" lon="6.57936">
        <ele>418.3</ele>
        <time>2023-03-03T17:48:09Z</time>
      </trkpt>
      <trkpt lat="48.17988" lon="6.57936">
        <ele>418.6</ele>
        <time>2023-03-03T17:48:17Z</time>
      </trkpt>
      <trkpt lat="48.17978" lon="6.57938">
        <ele>418.9</ele>
        <time>2023-03-03T17:48:24Z</time>
      </trkpt>
      <trkpt lat="48.17967" lon="6.57937">
        <ele>419.1</ele>
        <time>2023-03-03T17:48:30Z</time>
      </trkpt>
      <trkpt lat="48.17957" lon="6.57939">
        <ele>419.3</ele>
        <time>2023-03-03T17:48:37Z</time>
      </trkpt>
      <trkpt lat="48.17946" lon="6.57943">
        <ele>419.5</ele>
        <time>2023-03-03T17:48:45Z</time>
      </trkpt>
      <trkpt lat="48.17937" lon="6.57944">
        <ele>419.4</ele>
        <time>2023-03-03T17:48:51Z</time>
      </trkpt>
      <trkpt lat="48.17927" lon="6.57948">
        <ele>419.3</ele>
        <time>2023-03-03T17:48:57Z</time>
      </trkpt>
      <trkpt lat="48.17917" lon="6.57948">
        <ele>419.2</ele>
        <time>2023-03-03T17:49:04Z</time>
      </trkpt>
      <trkpt lat="48.17907" lon="6.57947">
        <ele>419</ele>
        <time>2023-03-03T17:49:12Z</time>
      </trkpt>
      <trkpt lat="48.17898" lon="6.57949">
        <ele>418.9</ele>
        <time>2023-03-03T17:49:20Z</time>
      </trkpt>
      <trkpt lat="48.17889" lon="6.5795">
        <ele>418.8</ele>
        <time>2023-03-03T17:49:29Z</time>
      </trkpt>
      <trkpt lat="48.17879" lon="6.57947">
        <ele>418.7</ele>
        <time>2023-03-03T17:49:38Z</time>
      </trkpt>
      <trkpt lat="48.17876" lon="6.57934">
        <ele>418.5</ele>
        <time>2023-03-03T17:49:48Z</time>
      </trkpt>
      <trkpt lat="48.17871" lon="6.57921">
        <ele>418.1</ele>
        <time>2023-03-03T17:49:59Z</time>
      </trkpt>
      <trkpt lat="48.17867" lon="6.5791">
        <ele>417.8</ele>
        <time>2023-03-03T17:50:08Z</time>
      </trkpt>
      <trkpt lat="48.17861" lon="6.57898">
        <ele>417.4</ele>
        <time>2023-03-03T17:50:15Z</time>
      </trkpt>
      <trkpt lat="48.17856" lon="6.57886">
        <ele>416.9</ele>
        <time>2023-03-03T17:50:23Z</time>
      </trkpt>
      <trkpt lat="48.17848" lon="6.57879">
        <ele>416.3</ele>
        <time>2023-03-03T17:50:32Z</time>
      </trkpt>
      <trkpt lat="48.1784" lon="6.5787">
        <ele>415.6</ele>
        <time>2023-03-03T17:50:43Z</time>
      </trkpt>
      <trkpt lat="48.17831" lon="6.57865">
        <ele>414.7</ele>
        <time>2023-03-03T17:50:53Z</time>
      </trkpt>
      <trkpt lat="48.17826" lon="6.57852">
        <ele>413.9</ele>
        <time>2023-03-03T17:51:08Z</time>
      </trkpt>
      <trkpt lat="48.17819" lon="6.57842">
        <ele>413</ele>
        <time>2023-03-03T17:51:17Z</time>
      </trkpt>
      <trkpt lat="48.17813" lon="6.57826">
        <ele>411.8</ele>
        <time>2023-03-03T17:51:29Z</time>
      </trkpt>
      <trkpt lat="48.17805" lon="6.57818">
        <ele>410.7</ele>
        <time>2023-03-03T17:51:38Z</time>
      </trkpt>
      <trkpt lat="48.17801" lon="6.57806">
        <ele>409.7</ele>
        <time>2023-03-03T17:51:44Z</time>
      </trkpt>
      <trkpt lat="48.17796" lon="6.57794">
        <ele>408.7</ele>
        <time>2023-03-03T17:51:54Z</time>
      </trkpt>
      <trkpt lat="48.17793" lon="6.57781">
        <ele>407.7</ele>
        <time>2023-03-03T17:52:07Z</time>
      </trkpt>
      <trkpt lat="48.17789" lon="6.57768">
        <ele>406.8</ele>
        <time>2023-03-03T17:52:15Z</time>
      </trkpt>
      <trkpt lat="48.17781" lon="6.57757">
        <ele>405.6</ele>
        <time>2023-03-03T17:52:24Z</time>
      </trkpt>
      <trkpt lat="48.17776" lon="6.57746">
        <ele>404.4</ele>
        <time>2023-03-03T17:52:38Z</time>
      </trkpt>
      <trkpt lat="48.17774" lon="6.57731">
        <ele>402.9</ele>
        <time>2023-03-03T17:52:53Z</time>
      </trkpt>
      <trkpt lat="48.17768" lon="6.5772">
        <ele>401.2</ele>
        <time>2023-03-03T17:53:01Z</time>
      </trkpt>
      <trkpt lat="48.17761" lon="6.57709">
        <ele>398.7</ele>
        <time>2023-03-03T17:53:10Z</time>
      </trkpt>
      <trkpt lat="48.17752" lon="6.57699">
        <ele>396</ele>
        <time>2023-03-03T17:53:18Z</time>
      </trkpt>
      <trkpt lat="48.17745" lon="6.57692">
        <ele>391.2</ele>
        <time>2023-03-03T17:53:23Z</time>
      </trkpt>
      <trkpt lat="48.17739" lon="6.5768">
        <ele>392.3</ele>
        <time>2023-03-03T17:53:34Z</time>
      </trkpt>
      <trkpt lat="48.17732" lon="6.5767">
        <ele>393.7</ele>
        <time>2023-03-03T17:53:44Z</time>
      </trkpt>
      <trkpt lat="48.17726" lon="6.57658">
        <ele>395.4</ele>
        <time>2023-03-03T17:53:49Z</time>
      </trkpt>
      <trkpt lat="48.17725" lon="6.57645">
        <ele>397</ele>
        <time>2023-03-03T17:53:56Z</time>
      </trkpt>
      <trkpt lat="48.17718" lon="6.57632">
        <ele>399.1</ele>
        <time>2023-03-03T17:54:05Z</time>
      </trkpt>
      <trkpt lat="48.1772" lon="6.57618">
        <ele>400.9</ele>
        <time>2023-03-03T17:54:10Z</time>
      </trkpt>
      <trkpt lat="48.17721" lon="6.57603">
        <ele>403</ele>
        <time>2023-03-03T17:54:17Z</time>
      </trkpt>
      <trkpt lat="48.17713" lon="6.57596">
        <ele>405.4</ele>
        <time>2023-03-03T17:54:25Z</time>
      </trkpt>
      <trkpt lat="48.17706" lon="6.57587">
        <ele>407.7</ele>
        <time>2023-03-03T17:54:38Z</time>
      </trkpt>
      <trkpt lat="48.17698" lon="6.57578">
        <ele>409.5</ele>
        <time>2023-03-03T17:54:50Z</time>
      </trkpt>
      <trkpt lat="48.17694" lon="6.57565">
        <ele>411</ele>
        <time>2023-03-03T17:55:00Z</time>
      </trkpt>
      <trkpt lat="48.1769" lon="6.57553">
        <ele>412.2</ele>
        <time>2023-03-03T17:55:10Z</time>
      </trkpt>
      <trkpt lat="48.17681" lon="6.57543">
        <ele>413.4</ele>
        <time>2023-03-03T17:55:15Z</time>
      </trkpt>
      <trkpt lat="48.17675" lon="6.57533">
        <ele>414.2</ele>
        <time>2023-03-03T17:55:22Z</time>
      </trkpt>
      <trkpt lat="48.17667" lon="6.57521">
        <ele>415.2</ele>
        <time>2023-03-03T17:55:34Z</time>
      </trkpt>
      <trkpt lat="48.1766" lon="6.5751">
        <ele>416.1</ele>
        <time>2023-03-03T17:55:40Z</time>
      </trkpt>
      <trkpt lat="48.17652" lon="6.57501">
        <ele>416.8</ele>
        <time>2023-03-03T17:55:50Z</time>
      </trkpt>
      <trkpt lat="48.17645" lon="6.57491">
        <ele>417.6</ele>
        <time>2023-03-03T17:55:57Z</time>
      </trkpt>
      <trkpt lat="48.1764" lon="6.57479">
        <ele>418.5</ele>
        <time>2023-03-03T17:56:03Z</time>
      </trkpt>
      <trkpt lat="48.17634" lon="6.57469">
        <ele>419.4</ele>
        <time>2023-03-03T17:56:08Z</time>
      </trkpt>
      <trkpt lat="48.1763" lon="6.57456">
        <ele>420.2</ele>
        <time>2023-03-03T17:56:13Z</time>
      </trkpt>
      <trkpt lat="48.17633" lon="6.5744">
        <ele>421.1</ele>
        <time>2023-03-03T17:56:18Z</time>
      </trkpt>
      <trkpt lat="48.17634" lon="6.57425">
        <ele>421.8</ele>
        <time>2023-03-03T17:56:24Z</time>
      </trkpt>
      <trkpt lat="48.17635" lon="6.57412">
        <ele>421.9</ele>
        <time>2023-03-03T17:56:30Z</time>
      </trkpt>
      <trkpt lat="48.1764" lon="6.57399">
        <ele>421.9</ele>
        <time>2023-03-03T17:56:35Z</time>
      </trkpt>
      <trkpt lat="48.17642" lon="6.57384">
        <ele>421.9</ele>
        <time>2023-03-03T17:56:43Z</time>
      </trkpt>
      <trkpt lat="48.17649" lon="6.57373">
        <ele>422</ele>
        <time>2023-03-03T17:56:50Z</time>
      </trkpt>
      <trkpt lat="48.17655" lon="6.57362">
        <ele>422.2</ele>
        <time>2023-03-03T17:56:57Z</time>
      </trkpt>
      <trkpt lat="48.17661" lon="6.57352">
        <ele>422.4</ele>
        <time>2023-03-03T17:57:05Z</time>
      </trkpt>
      <trkpt lat="48.17665" lon="6.57338">
        <ele>422.5</ele>
        <time>2023-03-03T17:57:13Z</time>
      </trkpt>
      <trkpt lat="48.17667" lon="6.57325">
        <ele>422.3</ele>
        <time>2023-03-03T17:57:21Z</time>
      </trkpt>
      <trkpt lat="48.17672" lon="6.57313">
        <ele>422</ele>
        <time>2023-03-03T17:57:28Z</time>
      </trkpt>
      <trkpt lat="48.17676" lon="6.57299">
        <ele>421.5</ele>
        <time>2023-03-03T17:57:38Z</time>
      </trkpt>
      <trkpt lat="48.17681" lon="6.57287">
        <ele>420.9</ele>
        <time>2023-03-03T17:57:45Z</time>
      </trkpt>
      <trkpt lat="48.17685" lon="6.57274">
        <ele>420.3</ele>
        <time>2023-03-03T17:57:55Z</time>
      </trkpt>
      <trkpt lat="48.17685" lon="6.57259">
        <ele>419.4</ele>
        <time>2023-03-03T17:58:12Z</time>
      </trkpt>
      <trkpt lat="48.17685" lon="6.57245">
        <ele>418.4</ele>
        <time>2023-03-03T17:58:21Z</time>
      </trkpt>
      <trkpt lat="48.1769" lon="6.57234">
        <ele>417.1</ele>
        <time>2023-03-03T17:58:31Z</time>
      </trkpt>
      <trkpt lat="48.17694" lon="6.5722">
        <ele>415.8</ele>
        <time>2023-03-03T17:58:39Z</time>
      </trkpt>
      <trkpt lat="48.17697" lon="6.57208">
        <ele>413.1</ele>
        <time>2023-03-03T17:58:47Z</time>
      </trkpt>
      <trkpt lat="48.17694" lon="6.57194">
        <ele>411.3</ele>
        <time>2023-03-03T17:58:56Z</time>
      </trkpt>
      <trkpt lat="48.17695" lon="6.5718">
        <ele>409.2</ele>
        <time>2023-03-03T17:59:02Z</time>
      </trkpt>
      <trkpt lat="48.17694" lon="6.57167">
        <ele>407.3</ele>
        <time>2023-03-03T17:59:11Z</time>
      </trkpt>
      <trkpt lat="48.17703" lon="6.57166">
        <ele>404.8</ele>
        <time>2023-03-03T17:59:41Z</time>
      </trkpt>
      <trkpt lat="48.17706" lon="6.57179">
        <ele>404.1</ele>
        <time>2023-03-03T17:59:51Z</time>
      </trkpt>
      <trkpt lat="48.17714" lon="6.57189">
        <ele>403.3</ele>
        <time>2023-03-03T18:00:01Z</time>
      </trkpt>
      <trkpt lat="48.17723" lon="6.5719">
        <ele>402.4</ele>
        <time>2023-03-03T18:00:10Z</time>
      </trkpt>
      <trkpt lat="48.17727" lon="6.57203">
        <ele>401.4</ele>
        <time>2023-03-03T18:00:22Z</time>
      </trkpt>
      <trkpt lat="48.17736" lon="6.572">
        <ele>400.1</ele>
        <time>2023-03-03T18:00:30Z</time>
      </trkpt>
      <trkpt lat="48.17745" lon="6.57195">
        <ele>398.9</ele>
        <time>2023-03-03T18:00:38Z</time>
      </trkpt>
      <trkpt lat="48.17753" lon="6.57195">
        <ele>397.8</ele>
        <time>2023-03-03T18:00:58Z</time>
      </trkpt>
      <trkpt lat="48.17753" lon="6.57196">
        <ele>397.8</ele>
        <time>2023-03-03T18:00:59Z</time>
      </trkpt>
      <trkpt lat="48.1775" lon="6.572">
        <ele>397.2</ele>
        <time>2023-03-03T18:01:38Z</time>
      </trkpt>
      <trkpt lat="48.1775" lon="6.57199">
        <ele>397.1</ele>
        <time>2023-03-03T18:01:39Z</time>
      </trkpt>
      <trkpt lat="48.17747" lon="6.57202">
        <ele>396.7</ele>
        <time>2023-03-03T18:01:47Z</time>
      </trkpt>
      <trkpt lat="48.17747" lon="6.57203">
        <ele>396.6</ele>
        <time>2023-03-03T18:01:50Z</time>
      </trkpt>
      <trkpt lat="48.17745" lon="6.57204">
        <ele>396.4</ele>
        <time>2023-03-03T18:01:55Z</time>
      </trkpt>
      <trkpt lat="48.17746" lon="6.57203">
        <ele>396.2</ele>
        <time>2023-03-03T18:01:56Z</time>
      </trkpt>
      <trkpt lat="48.17748" lon="6.57202">
        <ele>396</ele>
        <time>2023-03-03T18:01:59Z</time>
      </trkpt>
      <trkpt lat="48.17748" lon="6.57202">
        <ele>396</ele>
        <time>2023-03-03T18:02:00Z</time>
      </trkpt>
      <trkpt lat="48.17739" lon="6.57207">
        <ele>394.9</ele>
        <time>2023-03-03T18:02:11Z</time>
      </trkpt>
      <trkpt lat="48.1774" lon="6.5721">
        <ele>394.7</ele>
        <time>2023-03-03T18:02:19Z</time>
      </trkpt>
      <trkpt lat="48.1774" lon="6.5721">
        <ele>394.7</ele>
        <time>2023-03-03T18:02:20Z</time>
      </trkpt>
      <trkpt lat="48.17749" lon="6.57208">
        <ele>393.9</ele>
        <time>2023-03-03T18:02:38Z</time>
      </trkpt>
      <trkpt lat="48.17758" lon="6.57211">
        <ele>393.3</ele>
        <time>2023-03-03T18:02:54Z</time>
      </trkpt>
      <trkpt lat="48.17766" lon="6.57219">
        <ele>392.8</ele>
        <time>2023-03-03T18:03:05Z</time>
      </trkpt>
      <trkpt lat="48.17776" lon="6.57219">
        <ele>392.4</ele>
        <time>2023-03-03T18:03:12Z</time>
      </trkpt>
      <trkpt lat="48.17785" lon="6.57214">
        <ele>392.8</ele>
        <time>2023-03-03T18:03:23Z</time>
      </trkpt>
      <trkpt lat="48.17789" lon="6.57202">
        <ele>393.2</ele>
        <time>2023-03-03T18:03:31Z</time>
      </trkpt>
      <trkpt lat="48.17788" lon="6.57187">
        <ele>393.8</ele>
        <time>2023-03-03T18:03:44Z</time>
      </trkpt>
      <trkpt lat="48.17793" lon="6.57176">
        <ele>394.5</ele>
        <time>2023-03-03T18:03:51Z</time>
      </trkpt>
      <trkpt lat="48.17797" lon="6.57163">
        <ele>395.6</ele>
        <time>2023-03-03T18:03:59Z</time>
      </trkpt>
      <trkpt lat="48.17796" lon="6.5715">
        <ele>396.8</ele>
        <time>2023-03-03T18:04:06Z</time>
      </trkpt>
      <trkpt lat="48.17799" lon="6.57136">
        <ele>397.9</ele>
        <time>2023-03-03T18:04:16Z</time>
      </trkpt>
      <trkpt lat="48.17802" lon="6.57123">
        <ele>398.8</ele>
        <time>2023-03-03T18:04:25Z</time>
      </trkpt>
      <trkpt lat="48.17806" lon="6.5711">
        <ele>399.6</ele>
        <time>2023-03-03T18:04:35Z</time>
      </trkpt>
      <trkpt lat="48.17811" lon="6.57097">
        <ele>400.4</ele>
        <time>2023-03-03T18:04:41Z</time>
      </trkpt>
      <trkpt lat="48.17814" lon="6.57084">
        <ele>401.3</ele>
        <time>2023-03-03T18:04:51Z</time>
      </trkpt>
      <trkpt lat="48.17815" lon="6.57069">
        <ele>402.2</ele>
        <time>2023-03-03T18:05:03Z</time>
      </trkpt>
      <trkpt lat="48.17818" lon="6.57057">
        <ele>403.2</ele>
        <time>2023-03-03T18:05:15Z</time>
      </trkpt>
      <trkpt lat="48.17816" lon="6.5705">
        <ele>403.8</ele>
        <time>2023-03-03T18:05:23Z</time>
      </trkpt>
      <trkpt lat="48.17816" lon="6.5705">
        <ele>403.8</ele>
        <time>2023-03-03T18:05:24Z</time>
      </trkpt>
      <trkpt lat="48.17817" lon="6.57036">
        <ele>404.7</ele>
        <time>2023-03-03T18:05:31Z</time>
      </trkpt>
      <trkpt lat="48.17822" lon="6.57024">
        <ele>405.5</ele>
        <time>2023-03-03T18:05:43Z</time>
      </trkpt>
      <trkpt lat="48.17823" lon="6.5701">
        <ele>406</ele>
        <time>2023-03-03T18:05:56Z</time>
      </trkpt>
      <trkpt lat="48.17823" lon="6.56996">
        <ele>406.4</ele>
        <time>2023-03-03T18:06:07Z</time>
      </trkpt>
      <trkpt lat="48.17829" lon="6.56986">
        <ele>406.6</ele>
        <time>2023-03-03T18:06:13Z</time>
      </trkpt>
      <trkpt lat="48.17835" lon="6.56974">
        <ele>406.7</ele>
        <time>2023-03-03T18:06:22Z</time>
      </trkpt>
      <trkpt lat="48.1784" lon="6.56962">
        <ele>406.8</ele>
        <time>2023-03-03T18:06:29Z</time>
      </trkpt>
      <trkpt lat="48.17845" lon="6.56948">
        <ele>406.9</ele>
        <time>2023-03-03T18:06:36Z</time>
      </trkpt>
      <trkpt lat="48.17847" lon="6.56933">
        <ele>407</ele>
        <time>2023-03-03T18:06:41Z</time>
      </trkpt>
      <trkpt lat="48.17849" lon="6.56919">
        <ele>406.9</ele>
        <time>2023-03-03T18:06:50Z</time>
      </trkpt>
      <trkpt lat="48.17852" lon="6.56905">
        <ele>406.9</ele>
        <time>2023-03-03T18:06:57Z</time>
      </trkpt>
      <trkpt lat="48.17849" lon="6.5689">
        <ele>406.8</ele>
        <time>2023-03-03T18:07:04Z</time>
      </trkpt>
      <trkpt lat="48.17853" lon="6.56877">
        <ele>406.8</ele>
        <time>2023-03-03T18:07:13Z</time>
      </trkpt>
      <trkpt lat="48.17855" lon="6.56861">
        <ele>406.9</ele>
        <time>2023-03-03T18:07:20Z</time>
      </trkpt>
      <trkpt lat="48.17856" lon="6.56847">
        <ele>406.9</ele>
        <time>2023-03-03T18:07:23Z</time>
      </trkpt>
      <trkpt lat="48.17854" lon="6.56831">
        <ele>407</ele>
        <time>2023-03-03T18:07:28Z</time>
      </trkpt>
      <trkpt lat="48.1785" lon="6.56817">
        <ele>407</ele>
        <time>2023-03-03T18:07:35Z</time>
      </trkpt>
      <trkpt lat="48.1785" lon="6.56806">
        <ele>407</ele>
        <time>2023-03-03T18:07:45Z</time>
      </trkpt>
      <trkpt lat="48.1785" lon="6.56805">
        <ele>407</ele>
        <time>2023-03-03T18:07:46Z</time>
      </trkpt>
      <trkpt lat="48.17848" lon="6.56789">
        <ele>407</ele>
        <time>2023-03-03T18:07:58Z</time>
      </trkpt>
      <trkpt lat="48.17848" lon="6.56775">
        <ele>407</ele>
        <time>2023-03-03T18:08:07Z</time>
      </trkpt>
      <trkpt lat="48.1785" lon="6.56759">
        <ele>407.2</ele>
        <time>2023-03-03T18:08:14Z</time>
      </trkpt>
      <trkpt lat="48.17847" lon="6.56746">
        <ele>407.5</ele>
        <time>2023-03-03T18:08:21Z</time>
      </trkpt>
      <trkpt lat="48.1784" lon="6.56732">
        <ele>407.8</ele>
        <time>2023-03-03T18:08:30Z</time>
      </trkpt>
      <trkpt lat="48.17833" lon="6.56722">
        <ele>408.2</ele>
        <time>2023-03-03T18:08:43Z</time>
      </trkpt>
      <trkpt lat="48.17826" lon="6.56713">
        <ele>408.6</ele>
        <time>2023-03-03T18:08:50Z</time>
      </trkpt>
      <trkpt lat="48.17821" lon="6.56702">
        <ele>409.2</ele>
        <time>2023-03-03T18:08:57Z</time>
      </trkpt>
      <trkpt lat="48.17816" lon="6.5669">
        <ele>409.9</ele>
        <time>2023-03-03T18:09:07Z</time>
      </trkpt>
      <trkpt lat="48.17807" lon="6.56689">
        <ele>413</ele>
        <time>2023-03-03T18:09:26Z</time>
      </trkpt>
      <trkpt lat="48.17799" lon="6.56697">
        <ele>413.8</ele>
        <time>2023-03-03T18:09:35Z</time>
      </trkpt>
      <trkpt lat="48.17791" lon="6.56704">
        <ele>414.6</ele>
        <time>2023-03-03T18:09:43Z</time>
      </trkpt>
      <trkpt lat="48.17782" lon="6.56707">
        <ele>415.5</ele>
        <time>2023-03-03T18:09:49Z</time>
      </trkpt>
      <trkpt lat="48.17772" lon="6.56715">
        <ele>416.5</ele>
        <time>2023-03-03T18:09:58Z</time>
      </trkpt>
      <trkpt lat="48.17765" lon="6.56722">
        <ele>417.1</ele>
        <time>2023-03-03T18:10:06Z</time>
      </trkpt>
      <trkpt lat="48.17756" lon="6.56731">
        <ele>417.8</ele>
        <time>2023-03-03T18:10:14Z</time>
      </trkpt>
      <trkpt lat="48.17747" lon="6.56734">
        <ele>418.1</ele>
        <time>2023-03-03T18:10:22Z</time>
      </trkpt>
      <trkpt lat="48.17737" lon="6.56731">
        <ele>418.3</ele>
        <time>2023-03-03T18:10:32Z</time>
      </trkpt>
      <trkpt lat="48.17728" lon="6.56728">
        <ele>418.3</ele>
        <time>2023-03-03T18:10:42Z</time>
      </trkpt>
      <trkpt lat="48.17718" lon="6.56725">
        <ele>418.2</ele>
        <time>2023-03-03T18:10:52Z</time>
      </trkpt>
      <trkpt lat="48.17709" lon="6.56725">
        <ele>418</ele>
        <time>2023-03-03T18:10:58Z</time>
      </trkpt>
      <trkpt lat="48.17701" lon="6.56717">
        <ele>417.6</ele>
        <time>2023-03-03T18:11:06Z</time>
      </trkpt>
      <trkpt lat="48.17695" lon="6.56708">
        <ele>417.3</ele>
        <time>2023-03-03T18:11:13Z</time>
      </trkpt>
      <trkpt lat="48.17688" lon="6.56698">
        <ele>417.1</ele>
        <time>2023-03-03T18:11:20Z</time>
      </trkpt>
      <trkpt lat="48.17681" lon="6.56687">
        <ele>416.8</ele>
        <time>2023-03-03T18:11:28Z</time>
      </trkpt>
      <trkpt lat="48.17678" lon="6.56673">
        <ele>416.6</ele>
        <time>2023-03-03T18:11:35Z</time>
      </trkpt>
      <trkpt lat="48.17671" lon="6.56663">
        <ele>416.5</ele>
        <time>2023-03-03T18:11:46Z</time>
      </trkpt>
      <trkpt lat="48.17662" lon="6.56655">
        <ele>416.5</ele>
        <time>2023-03-03T18:11:53Z</time>
      </trkpt>
      <trkpt lat="48.17654" lon="6.56648">
        <ele>416.6</ele>
        <time>2023-03-03T18:12:02Z</time>
      </trkpt>
      <trkpt lat="48.17645" lon="6.56644">
        <ele>416.8</ele>
        <time>2023-03-03T18:12:10Z</time>
      </trkpt>
      <trkpt lat="48.17636" lon="6.56638">
        <ele>417</ele>
        <time>2023-03-03T18:12:20Z</time>
      </trkpt>
      <trkpt lat="48.17627" lon="6.56631">
        <ele>417.4</ele>
        <time>2023-03-03T18:12:29Z</time>
      </trkpt>
      <trkpt lat="48.17619" lon="6.56624">
        <ele>417.6</ele>
        <time>2023-03-03T18:12:37Z</time>
      </trkpt>
      <trkpt lat="48.17611" lon="6.56618">
        <ele>417.8</ele>
        <time>2023-03-03T18:12:42Z</time>
      </trkpt>
      <trkpt lat="48.17602" lon="6.56614">
        <ele>417.9</ele>
        <time>2023-03-03T18:12:51Z</time>
      </trkpt>
      <trkpt lat="48.17593" lon="6.566">
        <ele>417.9</ele>
        <time>2023-03-03T18:12:59Z</time>
      </trkpt>
      <trkpt lat="48.17585" lon="6.56591">
        <ele>417.9</ele>
        <time>2023-03-03T18:13:07Z</time>
      </trkpt>
      <trkpt lat="48.17577" lon="6.56582">
        <ele>417.8</ele>
        <time>2023-03-03T18:13:12Z</time>
      </trkpt>
      <trkpt lat="48.17568" lon="6.56576">
        <ele>417.9</ele>
        <time>2023-03-03T18:13:19Z</time>
      </trkpt>
      <trkpt lat="48.17561" lon="6.56568">
        <ele>418.1</ele>
        <time>2023-03-03T18:13:25Z</time>
      </trkpt>
      <trkpt lat="48.17553" lon="6.56559">
        <ele>418.4</ele>
        <time>2023-03-03T18:13:33Z</time>
      </trkpt>
      <trkpt lat="48.17544" lon="6.56552">
        <ele>418.7</ele>
        <time>2023-03-03T18:13:40Z</time>
      </trkpt>
      <trkpt lat="48.17536" lon="6.56543">
        <ele>419.1</ele>
        <time>2023-03-03T18:13:47Z</time>
      </trkpt>
      <trkpt lat="48.17528" lon="6.56531">
        <ele>419.4</ele>
        <time>2023-03-03T18:13:53Z</time>
      </trkpt>
      <trkpt lat="48.17518" lon="6.56531">
        <ele>419.6</ele>
        <time>2023-03-03T18:14:01Z</time>
      </trkpt>
      <trkpt lat="48.1751" lon="6.56524">
        <ele>419.7</ele>
        <time>2023-03-03T18:14:09Z</time>
      </trkpt>
      <trkpt lat="48.17502" lon="6.56517">
        <ele>419.8</ele>
        <time>2023-03-03T18:14:16Z</time>
      </trkpt>
      <trkpt lat="48.17495" lon="6.56509">
        <ele>419.8</ele>
        <time>2023-03-03T18:14:24Z</time>
      </trkpt>
      <trkpt lat="48.17489" lon="6.56498">
        <ele>419.8</ele>
        <time>2023-03-03T18:14:29Z</time>
      </trkpt>
      <trkpt lat="48.17482" lon="6.56486">
        <ele>419.9</ele>
        <time>2023-03-03T18:14:35Z</time>
      </trkpt>
      <trkpt lat="48.17475" lon="6.56477">
        <ele>420</ele>
        <time>2023-03-03T18:14:41Z</time>
      </trkpt>
      <trkpt lat="48.17468" lon="6.56467">
        <ele>420.1</ele>
        <time>2023-03-03T18:14:49Z</time>
      </trkpt>
      <trkpt lat="48.17459" lon="6.56462">
        <ele>420.4</ele>
        <time>2023-03-03T18:14:57Z</time>
      </trkpt>
      <trkpt lat="48.1745" lon="6.56457">
        <ele>420.8</ele>
        <time>2023-03-03T18:15:07Z</time>
      </trkpt>
      <trkpt lat="48.17439" lon="6.56454">
        <ele>421.3</ele>
        <time>2023-03-03T18:15:14Z</time>
      </trkpt>
      <trkpt lat="48.17431" lon="6.56446">
        <ele>421.9</ele>
        <time>2023-03-03T18:15:21Z</time>
      </trkpt>
      <trkpt lat="48.17422" lon="6.5644">
        <ele>422.3</ele>
        <time>2023-03-03T18:15:28Z</time>
      </trkpt>
      <trkpt lat="48.17414" lon="6.56435">
        <ele>422.7</ele>
        <time>2023-03-03T18:15:39Z</time>
      </trkpt>
      <trkpt lat="48.17406" lon="6.56427">
        <ele>423</ele>
        <time>2023-03-03T18:15:47Z</time>
      </trkpt>
      <trkpt lat="48.17405" lon="6.56413">
        <ele>423.3</ele>
        <time>2023-03-03T18:16:02Z</time>
      </trkpt>
      <trkpt lat="48.17407" lon="6.56398">
        <ele>423.6</ele>
        <time>2023-03-03T18:16:11Z</time>
      </trkpt>
      <trkpt lat="48.17408" lon="6.56385">
        <ele>424.1</ele>
        <time>2023-03-03T18:16:17Z</time>
      </trkpt>
      <trkpt lat="48.1741" lon="6.56369">
        <ele>424.1</ele>
        <time>2023-03-03T18:16:23Z</time>
      </trkpt>
      <trkpt lat="48.17412" lon="6.56355">
        <ele>424.2</ele>
        <time>2023-03-03T18:16:29Z</time>
      </trkpt>
      <trkpt lat="48.17415" lon="6.56341">
        <ele>424.3</ele>
        <time>2023-03-03T18:16:35Z</time>
      </trkpt>
      <trkpt lat="48.17417" lon="6.56326">
        <ele>424.5</ele>
        <time>2023-03-03T18:16:43Z</time>
      </trkpt>
      <trkpt lat="48.17422" lon="6.56313">
        <ele>424.7</ele>
        <time>2023-03-03T18:16:51Z</time>
      </trkpt>
      <trkpt lat="48.17428" lon="6.56304">
        <ele>424.9</ele>
        <time>2023-03-03T18:16:55Z</time>
      </trkpt>
      <trkpt lat="48.17432" lon="6.56291">
        <ele>425.1</ele>
        <time>2023-03-03T18:17:04Z</time>
      </trkpt>
      <trkpt lat="48.17435" lon="6.56278">
        <ele>425.5</ele>
        <time>2023-03-03T18:17:14Z</time>
      </trkpt>
      <trkpt lat="48.17439" lon="6.56264">
        <ele>425.9</ele>
        <time>2023-03-03T18:17:22Z</time>
      </trkpt>
      <trkpt lat="48.17445" lon="6.56252">
        <ele>426.3</ele>
        <time>2023-03-03T18:17:31Z</time>
      </trkpt>
      <trkpt lat="48.17451" lon="6.56239">
        <ele>426.5</ele>
        <time>2023-03-03T18:17:37Z</time>
      </trkpt>
      <trkpt lat="48.17455" lon="6.56225">
        <ele>426.6</ele>
        <time>2023-03-03T18:17:42Z</time>
      </trkpt>
      <trkpt lat="48.17459" lon="6.56213">
        <ele>426.5</ele>
        <time>2023-03-03T18:17:48Z</time>
      </trkpt>
      <trkpt lat="48.17463" lon="6.562">
        <ele>426.3</ele>
        <time>2023-03-03T18:17:54Z</time>
      </trkpt>
      <trkpt lat="48.17465" lon="6.56194">
        <ele>426.2</ele>
        <time>2023-03-03T18:18:03Z</time>
      </trkpt>
      <trkpt lat="48.17466" lon="6.56193">
        <ele>426.2</ele>
        <time>2023-03-03T18:18:04Z</time>
      </trkpt>
      <trkpt lat="48.17466" lon="6.5618">
        <ele>425.8</ele>
        <time>2023-03-03T18:18:13Z</time>
      </trkpt>
      <trkpt lat="48.17468" lon="6.56165">
        <ele>425.1</ele>
        <time>2023-03-03T18:18:20Z</time>
      </trkpt>
      <trkpt lat="48.17472" lon="6.56151">
        <ele>424.6</ele>
        <time>2023-03-03T18:18:28Z</time>
      </trkpt>
      <trkpt lat="48.17475" lon="6.56138">
        <ele>424</ele>
        <time>2023-03-03T18:18:36Z</time>
      </trkpt>
      <trkpt lat="48.17477" lon="6.56124">
        <ele>423.5</ele>
        <time>2023-03-03T18:18:44Z</time>
      </trkpt>
      <trkpt lat="48.17484" lon="6.56113">
        <ele>422.8</ele>
        <time>2023-03-03T18:18:53Z</time>
      </trkpt>
      <trkpt lat="48.17492" lon="6.56104">
        <ele>422.2</ele>
        <time>2023-03-03T18:19:00Z</time>
      </trkpt>
      <trkpt lat="48.17498" lon="6.56094">
        <ele>421.7</ele>
        <time>2023-03-03T18:19:05Z</time>
      </trkpt>
      <trkpt lat="48.17501" lon="6.5608">
        <ele>421.2</ele>
        <time>2023-03-03T18:19:11Z</time>
      </trkpt>
      <trkpt lat="48.17507" lon="6.56068">
        <ele>420.8</ele>
        <time>2023-03-03T18:19:18Z</time>
      </trkpt>
      <trkpt lat="48.17515" lon="6.56057">
        <ele>420.5</ele>
        <time>2023-03-03T18:19:23Z</time>
      </trkpt>
      <trkpt lat="48.1752" lon="6.56045">
        <ele>420.2</ele>
        <time>2023-03-03T18:19:32Z</time>
      </trkpt>
      <trkpt lat="48.17527" lon="6.56034">
        <ele>420</ele>
        <time>2023-03-03T18:19:38Z</time>
      </trkpt>
      <trkpt lat="48.17533" lon="6.56024">
        <ele>419.9</ele>
        <time>2023-03-03T18:19:43Z</time>
      </trkpt>
      <trkpt lat="48.17537" lon="6.56009">
        <ele>419.8</ele>
        <time>2023-03-03T18:19:50Z</time>
      </trkpt>
      <trkpt lat="48.17544" lon="6.55998">
        <ele>419.8</ele>
        <time>2023-03-03T18:19:56Z</time>
      </trkpt>
      <trkpt lat="48.17549" lon="6.55986">
        <ele>419.8</ele>
        <time>2023-03-03T18:20:01Z</time>
      </trkpt>
      <trkpt lat="48.17551" lon="6.55971">
        <ele>420</ele>
        <time>2023-03-03T18:20:09Z</time>
      </trkpt>
      <trkpt lat="48.17554" lon="6.55958">
        <ele>420.1</ele>
        <time>2023-03-03T18:20:20Z</time>
      </trkpt>
      <trkpt lat="48.17553" lon="6.55944">
        <ele>420.3</ele>
        <time>2023-03-03T18:20:27Z</time>
      </trkpt>
      <trkpt lat="48.17552" lon="6.5593">
        <ele>420.5</ele>
        <time>2023-03-03T18:20:38Z</time>
      </trkpt>
      <trkpt lat="48.17552" lon="6.55914">
        <ele>420.7</ele>
        <time>2023-03-03T18:20:46Z</time>
      </trkpt>
      <trkpt lat="48.1755" lon="6.55899">
        <ele>421</ele>
        <time>2023-03-03T18:20:55Z</time>
      </trkpt>
      <trkpt lat="48.17548" lon="6.55886">
        <ele>421.2</ele>
        <time>2023-03-03T18:21:04Z</time>
      </trkpt>
      <trkpt lat="48.17548" lon="6.55873">
        <ele>421.4</ele>
        <time>2023-03-03T18:21:14Z</time>
      </trkpt>
      <trkpt lat="48.17548" lon="6.55858">
        <ele>421.7</ele>
        <time>2023-03-03T18:21:24Z</time>
      </trkpt>
      <trkpt lat="48.17544" lon="6.55845">
        <ele>421.9</ele>
        <time>2023-03-03T18:21:34Z</time>
      </trkpt>
      <trkpt lat="48.17543" lon="6.5583">
        <ele>422.2</ele>
        <time>2023-03-03T18:21:40Z</time>
      </trkpt>
      <trkpt lat="48.17542" lon="6.55815">
        <ele>422.4</ele>
        <time>2023-03-03T18:21:44Z</time>
      </trkpt>
      <trkpt lat="48.17544" lon="6.55799">
        <ele>422.5</ele>
        <time>2023-03-03T18:21:50Z</time>
      </trkpt>
      <trkpt lat="48.17544" lon="6.55784">
        <ele>422.6</ele>
        <time>2023-03-03T18:21:56Z</time>
      </trkpt>
      <trkpt lat="48.17545" lon="6.5577">
        <ele>422.6</ele>
        <time>2023-03-03T18:22:04Z</time>
      </trkpt>
      <trkpt lat="48.17546" lon="6.55755">
        <ele>422.5</ele>
        <time>2023-03-03T18:22:14Z</time>
      </trkpt>
      <trkpt lat="48.17545" lon="6.55739">
        <ele>422.5</ele>
        <time>2023-03-03T18:22:19Z</time>
      </trkpt>
      <trkpt lat="48.17548" lon="6.55726">
        <ele>422.5</ele>
        <time>2023-03-03T18:22:25Z</time>
      </trkpt>
      <trkpt lat="48.17549" lon="6.55711">
        <ele>422.5</ele>
        <time>2023-03-03T18:22:32Z</time>
      </trkpt>
      <trkpt lat="48.17551" lon="6.55697">
        <ele>422.5</ele>
        <time>2023-03-03T18:22:42Z</time>
      </trkpt>
      <trkpt lat="48.17555" lon="6.55684">
        <ele>422.6</ele>
        <time>2023-03-03T18:22:47Z</time>
      </trkpt>
      <trkpt lat="48.17553" lon="6.5567">
        <ele>422.6</ele>
        <time>2023-03-03T18:22:56Z</time>
      </trkpt>
      <trkpt lat="48.17552" lon="6.55656">
        <ele>422.5</ele>
        <time>2023-03-03T18:23:04Z</time>
      </trkpt>
      <trkpt lat="48.17554" lon="6.55642">
        <ele>422.4</ele>
        <time>2023-03-03T18:23:12Z</time>
      </trkpt>
      <trkpt lat="48.17557" lon="6.55627">
        <ele>422.2</ele>
        <time>2023-03-03T18:23:17Z</time>
      </trkpt>
      <trkpt lat="48.17558" lon="6.55613">
        <ele>421.9</ele>
        <time>2023-03-03T18:23:25Z</time>
      </trkpt>
      <trkpt lat="48.17559" lon="6.55598">
        <ele>421.8</ele>
        <time>2023-03-03T18:23:33Z</time>
      </trkpt>
      <trkpt lat="48.17562" lon="6.55583">
        <ele>421.6</ele>
        <time>2023-03-03T18:23:38Z</time>
      </trkpt>
      <trkpt lat="48.17561" lon="6.55568">
        <ele>421.6</ele>
        <time>2023-03-03T18:23:46Z</time>
      </trkpt>
      <trkpt lat="48.17563" lon="6.55553">
        <ele>421.5</ele>
        <time>2023-03-03T18:23:51Z</time>
      </trkpt>
      <trkpt lat="48.17562" lon="6.55538">
        <ele>421.5</ele>
        <time>2023-03-03T18:23:56Z</time>
      </trkpt>
      <trkpt lat="48.17559" lon="6.55522">
        <ele>421.6</ele>
        <time>2023-03-03T18:24:01Z</time>
      </trkpt>
      <trkpt lat="48.17558" lon="6.55508">
        <ele>421.7</ele>
        <time>2023-03-03T18:24:09Z</time>
      </trkpt>
      <trkpt lat="48.17559" lon="6.55494">
        <ele>421.8</ele>
        <time>2023-03-03T18:24:20Z</time>
      </trkpt>
      <trkpt lat="48.17562" lon="6.55477">
        <ele>422</ele>
        <time>2023-03-03T18:24:26Z</time>
      </trkpt>
      <trkpt lat="48.1756" lon="6.55462">
        <ele>422.2</ele>
        <time>2023-03-03T18:24:32Z</time>
      </trkpt>
      <trkpt lat="48.17557" lon="6.55447">
        <ele>422.6</ele>
        <time>2023-03-03T18:24:40Z</time>
      </trkpt>
      <trkpt lat="48.17556" lon="6.55433">
        <ele>423</ele>
        <time>2023-03-03T18:24:46Z</time>
      </trkpt>
      <trkpt lat="48.17557" lon="6.55417">
        <ele>423.5</ele>
        <time>2023-03-03T18:24:53Z</time>
      </trkpt>
      <trkpt lat="48.17554" lon="6.55403">
        <ele>423.6</ele>
        <time>2023-03-03T18:25:00Z</time>
      </trkpt>
      <trkpt lat="48.17551" lon="6.5539">
        <ele>424</ele>
        <time>2023-03-03T18:25:05Z</time>
      </trkpt>
      <trkpt lat="48.17547" lon="6.55378">
        <ele>424.3</ele>
        <time>2023-03-03T18:25:12Z</time>
      </trkpt>
      <trkpt lat="48.17542" lon="6.55366">
        <ele>424.7</ele>
        <time>2023-03-03T18:25:19Z</time>
      </trkpt>
      <trkpt lat="48.17542" lon="6.55352">
        <ele>425</ele>
        <time>2023-03-03T18:25:25Z</time>
      </trkpt>
      <trkpt lat="48.17536" lon="6.5534">
        <ele>425.4</ele>
        <time>2023-03-03T18:25:32Z</time>
      </trkpt>
      <trkpt lat="48.17534" lon="6.55327">
        <ele>425.7</ele>
        <time>2023-03-03T18:25:39Z</time>
      </trkpt>
      <trkpt lat="48.17532" lon="6.5531">
        <ele>426</ele>
        <time>2023-03-03T18:25:49Z</time>
      </trkpt>
      <trkpt lat="48.17529" lon="6.55296">
        <ele>426.4</ele>
        <time>2023-03-03T18:26:00Z</time>
      </trkpt>
      <trkpt lat="48.17523" lon="6.55285">
        <ele>426.8</ele>
        <time>2023-03-03T18:26:08Z</time>
      </trkpt>
      <trkpt lat="48.1752" lon="6.55273">
        <ele>427.1</ele>
        <time>2023-03-03T18:26:16Z</time>
      </trkpt>
      <trkpt lat="48.17516" lon="6.55258">
        <ele>427.5</ele>
        <time>2023-03-03T18:26:21Z</time>
      </trkpt>
      <trkpt lat="48.17517" lon="6.55245">
        <ele>427.8</ele>
        <time>2023-03-03T18:26:27Z</time>
      </trkpt>
      <trkpt lat="48.17514" lon="6.55231">
        <ele>428.2</ele>
        <time>2023-03-03T18:26:36Z</time>
      </trkpt>
      <trkpt lat="48.1751" lon="6.55218">
        <ele>428.7</ele>
        <time>2023-03-03T18:26:45Z</time>
      </trkpt>
      <trkpt lat="48.17509" lon="6.55204">
        <ele>429.2</ele>
        <time>2023-03-03T18:26:53Z</time>
      </trkpt>
      <trkpt lat="48.17506" lon="6.55191">
        <ele>429.7</ele>
        <time>2023-03-03T18:27:00Z</time>
      </trkpt>
      <trkpt lat="48.17505" lon="6.55176">
        <ele>430.3</ele>
        <time>2023-03-03T18:27:07Z</time>
      </trkpt>
      <trkpt lat="48.17502" lon="6.55161">
        <ele>431.1</ele>
        <time>2023-03-03T18:27:13Z</time>
      </trkpt>
      <trkpt lat="48.17499" lon="6.55144">
        <ele>431.9</ele>
        <time>2023-03-03T18:27:19Z</time>
      </trkpt>
      <trkpt lat="48.17498" lon="6.5513">
        <ele>432.6</ele>
        <time>2023-03-03T18:27:24Z</time>
      </trkpt>
      <trkpt lat="48.17496" lon="6.55113">
        <ele>433.5</ele>
        <time>2023-03-03T18:27:33Z</time>
      </trkpt>
      <trkpt lat="48.17494" lon="6.55099">
        <ele>434</ele>
        <time>2023-03-03T18:27:39Z</time>
      </trkpt>
      <trkpt lat="48.1749" lon="6.55085">
        <ele>434.1</ele>
        <time>2023-03-03T18:27:53Z</time>
      </trkpt>
      <trkpt lat="48.17499" lon="6.55079">
        <ele>433.9</ele>
        <time>2023-03-03T18:28:08Z</time>
      </trkpt>
      <trkpt lat="48.17506" lon="6.55069">
        <ele>433.7</ele>
        <time>2023-03-03T18:28:15Z</time>
      </trkpt>
      <trkpt lat="48.17512" lon="6.55058">
        <ele>433.5</ele>
        <time>2023-03-03T18:28:26Z</time>
      </trkpt>
      <trkpt lat="48.17502" lon="6.55059">
        <ele>433.2</ele>
        <time>2023-03-03T18:28:36Z</time>
      </trkpt>
      <trkpt lat="48.17499" lon="6.55058">
        <ele>433.1</ele>
        <time>2023-03-03T18:28:48Z</time>
      </trkpt>
      <trkpt lat="48.175" lon="6.5506">
        <ele>433</ele>
        <time>2023-03-03T18:28:51Z</time>
      </trkpt>
      <trkpt lat="48.17509" lon="6.55055">
        <ele>432.7</ele>
        <time>2023-03-03T18:29:01Z</time>
      </trkpt>
      <trkpt lat="48.17502" lon="6.55045">
        <ele>432.3</ele>
        <time>2023-03-03T18:29:28Z</time>
      </trkpt>
      <trkpt lat="48.17498" lon="6.55033">
        <ele>432</ele>
        <time>2023-03-03T18:29:40Z</time>
      </trkpt>
      <trkpt lat="48.17489" lon="6.55037">
        <ele>431.6</ele>
        <time>2023-03-03T18:29:50Z</time>
      </trkpt>
      <trkpt lat="48.17491" lon="6.55036">
        <ele>431.5</ele>
        <time>2023-03-03T18:29:57Z</time>
      </trkpt>
      <trkpt lat="48.17491" lon="6.55037">
        <ele>431.5</ele>
        <time>2023-03-03T18:29:58Z</time>
      </trkpt>
      <trkpt lat="48.1749" lon="6.55037">
        <ele>431.5</ele>
        <time>2023-03-03T18:30:02Z</time>
      </trkpt>
      <trkpt lat="48.1749" lon="6.55037">
        <ele>431.4</ele>
        <time>2023-03-03T18:30:03Z</time>
      </trkpt>
      <trkpt lat="48.1748" lon="6.55041">
        <ele>431</ele>
        <time>2023-03-03T18:30:17Z</time>
      </trkpt>
      <trkpt lat="48.17472" lon="6.55048">
        <ele>430.6</ele>
        <time>2023-03-03T18:30:21Z</time>
      </trkpt>
      <trkpt lat="48.17463" lon="6.55057">
        <ele>430.2</ele>
        <time>2023-03-03T18:30:29Z</time>
      </trkpt>
      <trkpt lat="48.17467" lon="6.55044">
        <ele>429.9</ele>
        <time>2023-03-03T18:30:36Z</time>
      </trkpt>
      <trkpt lat="48.17475" lon="6.55037">
        <ele>429.6</ele>
        <time>2023-03-03T18:30:39Z</time>
      </trkpt>
      <trkpt lat="48.17483" lon="6.55028">
        <ele>429.3</ele>
        <time>2023-03-03T18:30:44Z</time>
      </trkpt>
      <trkpt lat="48.17489" lon="6.55018">
        <ele>429.1</ele>
        <time>2023-03-03T18:30:52Z</time>
      </trkpt>
      <trkpt lat="48.17495" lon="6.55006">
        <ele>428.9</ele>
        <time>2023-03-03T18:31:02Z</time>
      </trkpt>
      <trkpt lat="48.17503" lon="6.54999">
        <ele>428.6</ele>
        <time>2023-03-03T18:31:09Z</time>
      </trkpt>
      <trkpt lat="48.17511" lon="6.54991">
        <ele>428.4</ele>
        <time>2023-03-03T18:31:15Z</time>
      </trkpt>
      <trkpt lat="48.17518" lon="6.54981">
        <ele>428.2</ele>
        <time>2023-03-03T18:31:26Z</time>
      </trkpt>
      <trkpt lat="48.17528" lon="6.54975">
        <ele>427.9</ele>
        <time>2023-03-03T18:31:32Z</time>
      </trkpt>
      <trkpt lat="48.17536" lon="6.54967">
        <ele>427.7</ele>
        <time>2023-03-03T18:31:39Z</time>
      </trkpt>
      <trkpt lat="48.17546" lon="6.5496">
        <ele>427.4</ele>
        <time>2023-03-03T18:31:46Z</time>
      </trkpt>
      <trkpt lat="48.17555" lon="6.54951">
        <ele>427.1</ele>
        <time>2023-03-03T18:31:49Z</time>
      </trkpt>
      <trkpt lat="48.17564" lon="6.54945">
        <ele>426.8</ele>
        <time>2023-03-03T18:31:52Z</time>
      </trkpt>
      <trkpt lat="48.17574" lon="6.5494">
        <ele>426.5</ele>
        <time>2023-03-03T18:31:54Z</time>
      </trkpt>
      <trkpt lat="48.17585" lon="6.54936">
        <ele>426.2</ele>
        <time>2023-03-03T18:31:58Z</time>
      </trkpt>
      <trkpt lat="48.17592" lon="6.54928">
        <ele>425.9</ele>
        <time>2023-03-03T18:32:04Z</time>
      </trkpt>
      <trkpt lat="48.176" lon="6.5492">
        <ele>425.6</ele>
        <time>2023-03-03T18:32:13Z</time>
      </trkpt>
      <trkpt lat="48.17608" lon="6.54911">
        <ele>425.3</ele>
        <time>2023-03-03T18:32:21Z</time>
      </trkpt>
      <trkpt lat="48.17615" lon="6.54902">
        <ele>425</ele>
        <time>2023-03-03T18:32:29Z</time>
      </trkpt>
      <trkpt lat="48.17621" lon="6.54892">
        <ele>424.7</ele>
        <time>2023-03-03T18:32:38Z</time>
      </trkpt>
      <trkpt lat="48.17628" lon="6.54881">
        <ele>424.4</ele>
        <time>2023-03-03T18:32:44Z</time>
      </trkpt>
      <trkpt lat="48.17632" lon="6.54879">
        <ele>424.3</ele>
        <time>2023-03-03T18:32:46Z</time>
      </trkpt>
      <trkpt lat="48.17633" lon="6.54879">
        <ele>424.2</ele>
        <time>2023-03-03T18:32:47Z</time>
      </trkpt>
      <trkpt lat="48.17641" lon="6.54871">
        <ele>423.9</ele>
        <time>2023-03-03T18:32:56Z</time>
      </trkpt>
      <trkpt lat="48.17649" lon="6.54862">
        <ele>423.6</ele>
        <time>2023-03-03T18:33:07Z</time>
      </trkpt>
      <trkpt lat="48.17658" lon="6.54854">
        <ele>423.3</ele>
        <time>2023-03-03T18:33:14Z</time>
      </trkpt>
      <trkpt lat="48.17666" lon="6.54846">
        <ele>423</ele>
        <time>2023-03-03T18:33:19Z</time>
      </trkpt>
      <trkpt lat="48.17674" lon="6.54838">
        <ele>422.7</ele>
        <time>2023-03-03T18:33:24Z</time>
      </trkpt>
      <trkpt lat="48.17684" lon="6.5483">
        <ele>422.4</ele>
        <time>2023-03-03T18:33:30Z</time>
      </trkpt>
      <trkpt lat="48.17693" lon="6.54822">
        <ele>422.1</ele>
        <time>2023-03-03T18:33:36Z</time>
      </trkpt>
      <trkpt lat="48.177" lon="6.54812">
        <ele>421.9</ele>
        <time>2023-03-03T18:33:48Z</time>
      </trkpt>
      <trkpt lat="48.17708" lon="6.54802">
        <ele>421.7</ele>
        <time>2023-03-03T18:34:00Z</time>
      </trkpt>
      <trkpt lat="48.17715" lon="6.54795">
        <ele>421.6</ele>
        <time>2023-03-03T18:34:08Z</time>
      </trkpt>
      <trkpt lat="48.17724" lon="6.54787">
        <ele>421.5</ele>
        <time>2023-03-03T18:34:13Z</time>
      </trkpt>
      <trkpt lat="48.17733" lon="6.5478">
        <ele>421.3</ele>
        <time>2023-03-03T18:34:18Z</time>
      </trkpt>
      <trkpt lat="48.17739" lon="6.54769">
        <ele>421.2</ele>
        <time>2023-03-03T18:34:25Z</time>
      </trkpt>
      <trkpt lat="48.17747" lon="6.5476">
        <ele>421.1</ele>
        <time>2023-03-03T18:34:34Z</time>
      </trkpt>
      <trkpt lat="48.17753" lon="6.54749">
        <ele>421</ele>
        <time>2023-03-03T18:34:41Z</time>
      </trkpt>
      <trkpt lat="48.17761" lon="6.54742">
        <ele>421</ele>
        <time>2023-03-03T18:34:47Z</time>
      </trkpt>
      <trkpt lat="48.17769" lon="6.54735">
        <ele>420.9</ele>
        <time>2023-03-03T18:34:52Z</time>
      </trkpt>
      <trkpt lat="48.17776" lon="6.54726">
        <ele>420.9</ele>
        <time>2023-03-03T18:35:00Z</time>
      </trkpt>
      <trkpt lat="48.17782" lon="6.54714">
        <ele>420.9</ele>
        <time>2023-03-03T18:35:08Z</time>
      </trkpt>
      <trkpt lat="48.17788" lon="6.54703">
        <ele>421</ele>
        <time>2023-03-03T18:35:14Z</time>
      </trkpt>
      <trkpt lat="48.17793" lon="6.54691">
        <ele>421.1</ele>
        <time>2023-03-03T18:35:20Z</time>
      </trkpt>
      <trkpt lat="48.17797" lon="6.54678">
        <ele>421.2</ele>
        <time>2023-03-03T18:35:26Z</time>
      </trkpt>
      <trkpt lat="48.17801" lon="6.54665">
        <ele>421.4</ele>
        <time>2023-03-03T18:35:36Z</time>
      </trkpt>
      <trkpt lat="48.17806" lon="6.54654">
        <ele>421.6</ele>
        <time>2023-03-03T18:35:43Z</time>
      </trkpt>
      <trkpt lat="48.17811" lon="6.54641">
        <ele>421.8</ele>
        <time>2023-03-03T18:35:52Z</time>
      </trkpt>
      <trkpt lat="48.17813" lon="6.54626">
        <ele>422</ele>
        <time>2023-03-03T18:35:58Z</time>
      </trkpt>
      <trkpt lat="48.17817" lon="6.54612">
        <ele>422.2</ele>
        <time>2023-03-03T18:36:07Z</time>
      </trkpt>
      <trkpt lat="48.17822" lon="6.546">
        <ele>422.5</ele>
        <time>2023-03-03T18:36:14Z</time>
      </trkpt>
      <trkpt lat="48.17824" lon="6.54585">
        <ele>422.7</ele>
        <time>2023-03-03T18:36:21Z</time>
      </trkpt>
      <trkpt lat="48.17831" lon="6.54573">
        <ele>422.9</ele>
        <time>2023-03-03T18:36:27Z</time>
      </trkpt>
      <trkpt lat="48.17835" lon="6.54558">
        <ele>423.1</ele>
        <time>2023-03-03T18:36:33Z</time>
      </trkpt>
      <trkpt lat="48.17839" lon="6.54544">
        <ele>423.3</ele>
        <time>2023-03-03T18:36:39Z</time>
      </trkpt>
      <trkpt lat="48.17842" lon="6.5453">
        <ele>423.4</ele>
        <time>2023-03-03T18:36:48Z</time>
      </trkpt>
      <trkpt lat="48.17845" lon="6.54516">
        <ele>423.5</ele>
        <time>2023-03-03T18:36:53Z</time>
      </trkpt>
      <trkpt lat="48.17849" lon="6.54502">
        <ele>423.4</ele>
        <time>2023-03-03T18:37:03Z</time>
      </trkpt>
      <trkpt lat="48.17859" lon="6.54499">
        <ele>423.4</ele>
        <time>2023-03-03T18:37:18Z</time>
      </trkpt>
      <trkpt lat="48.17867" lon="6.54495">
        <ele>423.3</ele>
        <time>2023-03-03T18:37:27Z</time>
      </trkpt>
      <trkpt lat="48.17872" lon="6.54483">
        <ele>423.2</ele>
        <time>2023-03-03T18:37:35Z</time>
      </trkpt>
      <trkpt lat="48.17882" lon="6.54479">
        <ele>423</ele>
        <time>2023-03-03T18:37:39Z</time>
      </trkpt>
      <trkpt lat="48.17891" lon="6.54477">
        <ele>422.9</ele>
        <time>2023-03-03T18:37:43Z</time>
      </trkpt>
      <trkpt lat="48.17898" lon="6.54474">
        <ele>422.9</ele>
        <time>2023-03-03T18:37:51Z</time>
      </trkpt>
      <trkpt lat="48.17898" lon="6.54473">
        <ele>422.9</ele>
        <time>2023-03-03T18:37:52Z</time>
      </trkpt>
      <trkpt lat="48.17905" lon="6.54481">
        <ele>422.8</ele>
        <time>2023-03-03T18:38:04Z</time>
      </trkpt>
      <trkpt lat="48.17914" lon="6.54481">
        <ele>422.6</ele>
        <time>2023-03-03T18:38:15Z</time>
      </trkpt>
      <trkpt lat="48.17924" lon="6.54478">
        <ele>422.4</ele>
        <time>2023-03-03T18:38:21Z</time>
      </trkpt>
      <trkpt lat="48.17934" lon="6.54475">
        <ele>422.2</ele>
        <time>2023-03-03T18:38:30Z</time>
      </trkpt>
      <trkpt lat="48.17944" lon="6.54473">
        <ele>421.9</ele>
        <time>2023-03-03T18:38:40Z</time>
      </trkpt>
      <trkpt lat="48.17953" lon="6.54471">
        <ele>421.7</ele>
        <time>2023-03-03T18:38:48Z</time>
      </trkpt>
      <trkpt lat="48.17962" lon="6.54468">
        <ele>421.5</ele>
        <time>2023-03-03T18:38:55Z</time>
      </trkpt>
      <trkpt lat="48.17967" lon="6.54457">
        <ele>421.3</ele>
        <time>2023-03-03T18:39:05Z</time>
      </trkpt>
      <trkpt lat="48.17971" lon="6.54444">
        <ele>421.1</ele>
        <time>2023-03-03T18:39:12Z</time>
      </trkpt>
      <trkpt lat="48.17976" lon="6.54432">
        <ele>420.6</ele>
        <time>2023-03-03T18:39:21Z</time>
      </trkpt>
      <trkpt lat="48.17982" lon="6.5442">
        <ele>418.8</ele>
        <time>2023-03-03T18:39:26Z</time>
      </trkpt>
      <trkpt lat="48.17989" lon="6.5441">
        <ele>418.4</ele>
        <time>2023-03-03T18:39:32Z</time>
      </trkpt>
      <trkpt lat="48.17995" lon="6.54397">
        <ele>418.1</ele>
        <time>2023-03-03T18:39:38Z</time>
      </trkpt>
      <trkpt lat="48.18" lon="6.54384">
        <ele>417.8</ele>
        <time>2023-03-03T18:39:43Z</time>
      </trkpt>
      <trkpt lat="48.18005" lon="6.5437">
        <ele>417.6</ele>
        <time>2023-03-03T18:39:50Z</time>
      </trkpt>
      <trkpt lat="48.1801" lon="6.54359">
        <ele>417.5</ele>
        <time>2023-03-03T18:39:58Z</time>
      </trkpt>
      <trkpt lat="48.18011" lon="6.54344">
        <ele>417.4</ele>
        <time>2023-03-03T18:40:09Z</time>
      </trkpt>
      <trkpt lat="48.18016" lon="6.54331">
        <ele>417.4</ele>
        <time>2023-03-03T18:40:17Z</time>
      </trkpt>
      <trkpt lat="48.1802" lon="6.54318">
        <ele>417.4</ele>
        <time>2023-03-03T18:40:25Z</time>
      </trkpt>
      <trkpt lat="48.18025" lon="6.54305">
        <ele>417.5</ele>
        <time>2023-03-03T18:40:33Z</time>
      </trkpt>
      <trkpt lat="48.18025" lon="6.5429">
        <ele>417.6</ele>
        <time>2023-03-03T18:40:42Z</time>
      </trkpt>
      <trkpt lat="48.18027" lon="6.54277">
        <ele>417.8</ele>
        <time>2023-03-03T18:40:52Z</time>
      </trkpt>
      <trkpt lat="48.18031" lon="6.54261">
        <ele>417.9</ele>
        <time>2023-03-03T18:41:01Z</time>
      </trkpt>
      <trkpt lat="48.18032" lon="6.54248">
        <ele>418</ele>
        <time>2023-03-03T18:41:07Z</time>
      </trkpt>
      <trkpt lat="48.1803" lon="6.54234">
        <ele>418</ele>
        <time>2023-03-03T18:41:10Z</time>
      </trkpt>
      <trkpt lat="48.18026" lon="6.5422">
        <ele>418.1</ele>
        <time>2023-03-03T18:41:16Z</time>
      </trkpt>
      <trkpt lat="48.18028" lon="6.54205">
        <ele>418.1</ele>
        <time>2023-03-03T18:41:21Z</time>
      </trkpt>
      <trkpt lat="48.18028" lon="6.5419">
        <ele>418.1</ele>
        <time>2023-03-03T18:41:28Z</time>
      </trkpt>
      <trkpt lat="48.18029" lon="6.54175">
        <ele>418.2</ele>
        <time>2023-03-03T18:41:33Z</time>
      </trkpt>
      <trkpt lat="48.18031" lon="6.54161">
        <ele>418.2</ele>
        <time>2023-03-03T18:41:41Z</time>
      </trkpt>
      <trkpt lat="48.18029" lon="6.54148">
        <ele>418.3</ele>
        <time>2023-03-03T18:41:46Z</time>
      </trkpt>
      <trkpt lat="48.18031" lon="6.54133">
        <ele>418.5</ele>
        <time>2023-03-03T18:41:53Z</time>
      </trkpt>
      <trkpt lat="48.18036" lon="6.54119">
        <ele>418.7</ele>
        <time>2023-03-03T18:42:01Z</time>
      </trkpt>
      <trkpt lat="48.18037" lon="6.54106">
        <ele>418.7</ele>
        <time>2023-03-03T18:42:09Z</time>
      </trkpt>
      <trkpt lat="48.1804" lon="6.54093">
        <ele>418.7</ele>
        <time>2023-03-03T18:42:17Z</time>
      </trkpt>
      <trkpt lat="48.18044" lon="6.54079">
        <ele>418.6</ele>
        <time>2023-03-03T18:42:26Z</time>
      </trkpt>
      <trkpt lat="48.18048" lon="6.54066">
        <ele>418.7</ele>
        <time>2023-03-03T18:42:35Z</time>
      </trkpt>
      <trkpt lat="48.18044" lon="6.54053">
        <ele>419.1</ele>
        <time>2023-03-03T18:42:48Z</time>
      </trkpt>
      <trkpt lat="48.18043" lon="6.54037">
        <ele>419.4</ele>
        <time>2023-03-03T18:42:55Z</time>
      </trkpt>
      <trkpt lat="48.18044" lon="6.54023">
        <ele>419.8</ele>
        <time>2023-03-03T18:43:01Z</time>
      </trkpt>
      <trkpt lat="48.18047" lon="6.54009">
        <ele>420.1</ele>
        <time>2023-03-03T18:43:09Z</time>
      </trkpt>
      <trkpt lat="48.18051" lon="6.53995">
        <ele>420.3</ele>
        <time>2023-03-03T18:43:15Z</time>
      </trkpt>
      <trkpt lat="48.18055" lon="6.53981">
        <ele>420.5</ele>
        <time>2023-03-03T18:43:22Z</time>
      </trkpt>
      <trkpt lat="48.18055" lon="6.53967">
        <ele>420.6</ele>
        <time>2023-03-03T18:43:29Z</time>
      </trkpt>
      <trkpt lat="48.18053" lon="6.53952">
        <ele>420.5</ele>
        <time>2023-03-03T18:43:39Z</time>
      </trkpt>
      <trkpt lat="48.18057" lon="6.53938">
        <ele>420.4</ele>
        <time>2023-03-03T18:43:45Z</time>
      </trkpt>
      <trkpt lat="48.1806" lon="6.53924">
        <ele>420.3</ele>
        <time>2023-03-03T18:43:52Z</time>
      </trkpt>
      <trkpt lat="48.18058" lon="6.5391">
        <ele>419.9</ele>
        <time>2023-03-03T18:43:57Z</time>
      </trkpt>
      <trkpt lat="48.18057" lon="6.53896">
        <ele>419.4</ele>
        <time>2023-03-03T18:44:02Z</time>
      </trkpt>
      <trkpt lat="48.18056" lon="6.53882">
        <ele>418.6</ele>
        <time>2023-03-03T18:44:07Z</time>
      </trkpt>
      <trkpt lat="48.1806" lon="6.53867">
        <ele>417.7</ele>
        <time>2023-03-03T18:44:12Z</time>
      </trkpt>
      <trkpt lat="48.1806" lon="6.53853">
        <ele>416.9</ele>
        <time>2023-03-03T18:44:18Z</time>
      </trkpt>
      <trkpt lat="48.1806" lon="6.53838">
        <ele>416.1</ele>
        <time>2023-03-03T18:44:29Z</time>
      </trkpt>
      <trkpt lat="48.18048" lon="6.53831">
        <ele>415.1</ele>
        <time>2023-03-03T18:44:44Z</time>
      </trkpt>
      <trkpt lat="48.18041" lon="6.53822">
        <ele>414.2</ele>
        <time>2023-03-03T18:44:48Z</time>
      </trkpt>
      <trkpt lat="48.18044" lon="6.53809">
        <ele>413.3</ele>
        <time>2023-03-03T18:45:54Z</time>
      </trkpt>
      <trkpt lat="48.18051" lon="6.53798">
        <ele>412.2</ele>
        <time>2023-03-03T18:46:02Z</time>
      </trkpt>
      <trkpt lat="48.18055" lon="6.53785">
        <ele>411.1</ele>
        <time>2023-03-03T18:46:10Z</time>
      </trkpt>
      <trkpt lat="48.18059" lon="6.53772">
        <ele>410.1</ele>
        <time>2023-03-03T18:46:19Z</time>
      </trkpt>
      <trkpt lat="48.18062" lon="6.53758">
        <ele>409</ele>
        <time>2023-03-03T18:46:27Z</time>
      </trkpt>
      <trkpt lat="48.18063" lon="6.53742">
        <ele>408</ele>
        <time>2023-03-03T18:46:36Z</time>
      </trkpt>
      <trkpt lat="48.18065" lon="6.53728">
        <ele>406.6</ele>
        <time>2023-03-03T18:46:42Z</time>
      </trkpt>
      <trkpt lat="48.18068" lon="6.53714">
        <ele>404.6</ele>
        <time>2023-03-03T18:46:50Z</time>
      </trkpt>
      <trkpt lat="48.18072" lon="6.53702">
        <ele>402.6</ele>
        <time>2023-03-03T18:46:57Z</time>
      </trkpt>
      <trkpt lat="48.18071" lon="6.53688">
        <ele>400.6</ele>
        <time>2023-03-03T18:47:06Z</time>
      </trkpt>
      <trkpt lat="48.18065" lon="6.53676">
        <ele>398.3</ele>
        <time>2023-03-03T18:47:16Z</time>
      </trkpt>
      <trkpt lat="48.18061" lon="6.53663">
        <ele>396</ele>
        <time>2023-03-03T18:47:23Z</time>
      </trkpt>
      <trkpt lat="48.18058" lon="6.53649">
        <ele>393.6</ele>
        <time>2023-03-03T18:47:38Z</time>
      </trkpt>
      <trkpt lat="48.1806" lon="6.53635">
        <ele>391.2</ele>
        <time>2023-03-03T18:47:50Z</time>
      </trkpt>
      <trkpt lat="48.18061" lon="6.53621">
        <ele>388.9</ele>
        <time>2023-03-03T18:47:58Z</time>
      </trkpt>
      <trkpt lat="48.18056" lon="6.53609">
        <ele>386.7</ele>
        <time>2023-03-03T18:48:07Z</time>
      </trkpt>
      <trkpt lat="48.18055" lon="6.53595">
        <ele>384.6</ele>
        <time>2023-03-03T18:48:19Z</time>
      </trkpt>
      <trkpt lat="48.1806" lon="6.53582">
        <ele>382.7</ele>
        <time>2023-03-03T18:48:27Z</time>
      </trkpt>
      <trkpt lat="48.18061" lon="6.53567">
        <ele>380.9</ele>
        <time>2023-03-03T18:48:40Z</time>
      </trkpt>
      <trkpt lat="48.18068" lon="6.53558">
        <ele>380.6</ele>
        <time>2023-03-03T18:48:48Z</time>
      </trkpt>
      <trkpt lat="48.18058" lon="6.53555">
        <ele>380.2</ele>
        <time>2023-03-03T18:48:56Z</time>
      </trkpt>
      <trkpt lat="48.18066" lon="6.53547">
        <ele>379.8</ele>
        <time>2023-03-03T18:49:01Z</time>
      </trkpt>
      <trkpt lat="48.18074" lon="6.53537">
        <ele>379.3</ele>
        <time>2023-03-03T18:49:07Z</time>
      </trkpt>
      <trkpt lat="48.18084" lon="6.53535">
        <ele>378.9</ele>
        <time>2023-03-03T18:49:11Z</time>
      </trkpt>
      <trkpt lat="48.18093" lon="6.53531">
        <ele>378.6</ele>
        <time>2023-03-03T18:49:14Z</time>
      </trkpt>
      <trkpt lat="48.181" lon="6.53521">
        <ele>378.2</ele>
        <time>2023-03-03T18:49:18Z</time>
      </trkpt>
      <trkpt lat="48.18098" lon="6.53507">
        <ele>377.9</ele>
        <time>2023-03-03T18:49:27Z</time>
      </trkpt>
      <trkpt lat="48.18096" lon="6.53494">
        <ele>377.6</ele>
        <time>2023-03-03T18:49:34Z</time>
      </trkpt>
      <trkpt lat="48.18104" lon="6.53484">
        <ele>377.3</ele>
        <time>2023-03-03T18:49:50Z</time>
      </trkpt>
      <trkpt lat="48.18107" lon="6.53472">
        <ele>377.1</ele>
        <time>2023-03-03T18:50:08Z</time>
      </trkpt>
      <trkpt lat="48.18115" lon="6.53464">
        <ele>376.9</ele>
        <time>2023-03-03T18:50:14Z</time>
      </trkpt>
      <trkpt lat="48.18121" lon="6.53455">
        <ele>377.1</ele>
        <time>2023-03-03T18:50:22Z</time>
      </trkpt>
      <trkpt lat="48.18123" lon="6.5346">
        <ele>377.2</ele>
        <time>2023-03-03T18:50:35Z</time>
      </trkpt>
      <trkpt lat="48.18123" lon="6.5346">
        <ele>377.2</ele>
        <time>2023-03-03T18:50:36Z</time>
      </trkpt>
      <trkpt lat="48.18132" lon="6.53452">
        <ele>377.3</ele>
        <time>2023-03-03T18:50:48Z</time>
      </trkpt>
      <trkpt lat="48.18122" lon="6.5345">
        <ele>377.3</ele>
        <time>2023-03-03T18:50:58Z</time>
      </trkpt>
      <trkpt lat="48.18117" lon="6.5345">
        <ele>377.4</ele>
        <time>2023-03-03T18:51:16Z</time>
      </trkpt>
      <trkpt lat="48.18117" lon="6.53451">
        <ele>377.4</ele>
        <time>2023-03-03T18:51:17Z</time>
      </trkpt>
      <trkpt lat="48.18118" lon="6.53465">
        <ele>377.5</ele>
        <time>2023-03-03T18:51:34Z</time>
      </trkpt>
      <trkpt lat="48.18121" lon="6.5345">
        <ele>377.6</ele>
        <time>2023-03-03T18:51:48Z</time>
      </trkpt>
      <trkpt lat="48.18127" lon="6.53438">
        <ele>377.8</ele>
        <time>2023-03-03T18:51:55Z</time>
      </trkpt>
      <trkpt lat="48.18131" lon="6.53423">
        <ele>377.9</ele>
        <time>2023-03-03T18:52:06Z</time>
      </trkpt>
      <trkpt lat="48.18138" lon="6.53414">
        <ele>378.1</ele>
        <time>2023-03-03T18:52:11Z</time>
      </trkpt>
      <trkpt lat="48.18143" lon="6.53403">
        <ele>379</ele>
        <time>2023-03-03T18:52:16Z</time>
      </trkpt>
      <trkpt lat="48.18146" lon="6.53389">
        <ele>379.7</ele>
        <time>2023-03-03T18:52:22Z</time>
      </trkpt>
      <trkpt lat="48.18146" lon="6.53375">
        <ele>380.5</ele>
        <time>2023-03-03T18:52:30Z</time>
      </trkpt>
      <trkpt lat="48.18152" lon="6.5336">
        <ele>381.7</ele>
        <time>2023-03-03T18:52:37Z</time>
      </trkpt>
      <trkpt lat="48.18158" lon="6.5335">
        <ele>382.7</ele>
        <time>2023-03-03T18:52:42Z</time>
      </trkpt>
      <trkpt lat="48.18159" lon="6.53336">
        <ele>383.7</ele>
        <time>2023-03-03T18:52:51Z</time>
      </trkpt>
      <trkpt lat="48.18156" lon="6.53322">
        <ele>384.5</ele>
        <time>2023-03-03T18:52:59Z</time>
      </trkpt>
      <trkpt lat="48.18146" lon="6.53316">
        <ele>385.4</ele>
        <time>2023-03-03T18:53:07Z</time>
      </trkpt>
      <trkpt lat="48.18136" lon="6.53315">
        <ele>386.3</ele>
        <time>2023-03-03T18:53:14Z</time>
      </trkpt>
      <trkpt lat="48.18127" lon="6.53312">
        <ele>387.3</ele>
        <time>2023-03-03T18:53:22Z</time>
      </trkpt>
      <trkpt lat="48.18119" lon="6.53304">
        <ele>388.2</ele>
        <time>2023-03-03T18:53:30Z</time>
      </trkpt>
      <trkpt lat="48.1811" lon="6.53301">
        <ele>389.2</ele>
        <time>2023-03-03T18:53:35Z</time>
      </trkpt>
      <trkpt lat="48.18101" lon="6.53297">
        <ele>390.2</ele>
        <time>2023-03-03T18:53:46Z</time>
      </trkpt>
      <trkpt lat="48.18093" lon="6.53289">
        <ele>391.1</ele>
        <time>2023-03-03T18:53:56Z</time>
      </trkpt>
      <trkpt lat="48.18086" lon="6.5328">
        <ele>392</ele>
        <time>2023-03-03T18:54:07Z</time>
      </trkpt>
      <trkpt lat="48.18082" lon="6.53269">
        <ele>392.9</ele>
        <time>2023-03-03T18:54:13Z</time>
      </trkpt>
      <trkpt lat="48.18075" lon="6.53256">
        <ele>393.9</ele>
        <time>2023-03-03T18:54:20Z</time>
      </trkpt>
      <trkpt lat="48.18073" lon="6.53242">
        <ele>394.8</ele>
        <time>2023-03-03T18:54:32Z</time>
      </trkpt>
      <trkpt lat="48.18071" lon="6.53228">
        <ele>395.8</ele>
        <time>2023-03-03T18:54:41Z</time>
      </trkpt>
      <trkpt lat="48.1807" lon="6.53214">
        <ele>396.7</ele>
        <time>2023-03-03T18:54:49Z</time>
      </trkpt>
      <trkpt lat="48.18069" lon="6.53201">
        <ele>397.6</ele>
        <time>2023-03-03T18:55:00Z</time>
      </trkpt>
      <trkpt lat="48.18069" lon="6.53186">
        <ele>398.6</ele>
        <time>2023-03-03T18:55:09Z</time>
      </trkpt>
      <trkpt lat="48.18072" lon="6.53171">
        <ele>399.5</ele>
        <time>2023-03-03T18:55:16Z</time>
      </trkpt>
      <trkpt lat="48.18069" lon="6.53158">
        <ele>400.4</ele>
        <time>2023-03-03T18:55:25Z</time>
      </trkpt>
      <trkpt lat="48.18073" lon="6.53144">
        <ele>401.3</ele>
        <time>2023-03-03T18:55:31Z</time>
      </trkpt>
      <trkpt lat="48.18075" lon="6.53129">
        <ele>402.1</ele>
        <time>2023-03-03T18:55:39Z</time>
      </trkpt>
      <trkpt lat="48.18077" lon="6.53114">
        <ele>403.2</ele>
        <time>2023-03-03T18:55:47Z</time>
      </trkpt>
      <trkpt lat="48.18076" lon="6.531">
        <ele>403.8</ele>
        <time>2023-03-03T18:55:55Z</time>
      </trkpt>
      <trkpt lat="48.1808" lon="6.53086">
        <ele>404.5</ele>
        <time>2023-03-03T18:56:01Z</time>
      </trkpt>
      <trkpt lat="48.18083" lon="6.53074">
        <ele>405.1</ele>
        <time>2023-03-03T18:56:08Z</time>
      </trkpt>
      <trkpt lat="48.18081" lon="6.53059">
        <ele>405.8</ele>
        <time>2023-03-03T18:56:14Z</time>
      </trkpt>
      <trkpt lat="48.18081" lon="6.53045">
        <ele>406.4</ele>
        <time>2023-03-03T18:56:21Z</time>
      </trkpt>
      <trkpt lat="48.18081" lon="6.5303">
        <ele>407</ele>
        <time>2023-03-03T18:56:29Z</time>
      </trkpt>
      <trkpt lat="48.18082" lon="6.53017">
        <ele>407.6</ele>
        <time>2023-03-03T18:56:36Z</time>
      </trkpt>
      <trkpt lat="48.18084" lon="6.53004">
        <ele>408.1</ele>
        <time>2023-03-03T18:56:44Z</time>
      </trkpt>
      <trkpt lat="48.18087" lon="6.5299">
        <ele>408.7</ele>
        <time>2023-03-03T18:56:50Z</time>
      </trkpt>
      <trkpt lat="48.18091" lon="6.52977">
        <ele>409.4</ele>
        <time>2023-03-03T18:56:55Z</time>
      </trkpt>
      <trkpt lat="48.18094" lon="6.52962">
        <ele>410</ele>
        <time>2023-03-03T18:57:03Z</time>
      </trkpt>
      <trkpt lat="48.18098" lon="6.52947">
        <ele>410.7</ele>
        <time>2023-03-03T18:57:08Z</time>
      </trkpt>
      <trkpt lat="48.18101" lon="6.52933">
        <ele>411.3</ele>
        <time>2023-03-03T18:57:14Z</time>
      </trkpt>
      <trkpt lat="48.18103" lon="6.52918">
        <ele>411.9</ele>
        <time>2023-03-03T18:57:28Z</time>
      </trkpt>
      <trkpt lat="48.18108" lon="6.52906">
        <ele>412.6</ele>
        <time>2023-03-03T18:57:35Z</time>
      </trkpt>
      <trkpt lat="48.18113" lon="6.52893">
        <ele>413.2</ele>
        <time>2023-03-03T18:57:46Z</time>
      </trkpt>
      <trkpt lat="48.18114" lon="6.52879">
        <ele>413.7</ele>
        <time>2023-03-03T18:57:53Z</time>
      </trkpt>
      <trkpt lat="48.1812" lon="6.52869">
        <ele>414.1</ele>
        <time>2023-03-03T18:58:04Z</time>
      </trkpt>
      <trkpt lat="48.18125" lon="6.52857">
        <ele>414.5</ele>
        <time>2023-03-03T18:58:10Z</time>
      </trkpt>
      <trkpt lat="48.18126" lon="6.52843">
        <ele>414.9</ele>
        <time>2023-03-03T18:58:17Z</time>
      </trkpt>
      <trkpt lat="48.1813" lon="6.52829">
        <ele>415.2</ele>
        <time>2023-03-03T18:58:28Z</time>
      </trkpt>
      <trkpt lat="48.18137" lon="6.52818">
        <ele>415.5</ele>
        <time>2023-03-03T18:58:38Z</time>
      </trkpt>
      <trkpt lat="48.18144" lon="6.52808">
        <ele>415.7</ele>
        <time>2023-03-03T18:58:44Z</time>
      </trkpt>
      <trkpt lat="48.18152" lon="6.52798">
        <ele>416</ele>
        <time>2023-03-03T18:58:52Z</time>
      </trkpt>
      <trkpt lat="48.18158" lon="6.52785">
        <ele>416.3</ele>
        <time>2023-03-03T18:58:57Z</time>
      </trkpt>
      <trkpt lat="48.18167" lon="6.52778">
        <ele>416.4</ele>
        <time>2023-03-03T18:59:02Z</time>
      </trkpt>
      <trkpt lat="48.18171" lon="6.52764">
        <ele>416.4</ele>
        <time>2023-03-03T18:59:10Z</time>
      </trkpt>
      <trkpt lat="48.18177" lon="6.52754">
        <ele>416.3</ele>
        <time>2023-03-03T18:59:17Z</time>
      </trkpt>
      <trkpt lat="48.18182" lon="6.5274">
        <ele>416.1</ele>
        <time>2023-03-03T18:59:25Z</time>
      </trkpt>
      <trkpt lat="48.18187" lon="6.52728">
        <ele>415.9</ele>
        <time>2023-03-03T18:59:32Z</time>
      </trkpt>
      <trkpt lat="48.18192" lon="6.52712">
        <ele>415.7</ele>
        <time>2023-03-03T18:59:39Z</time>
      </trkpt>
      <trkpt lat="48.18195" lon="6.52699">
        <ele>415.5</ele>
        <time>2023-03-03T18:59:42Z</time>
      </trkpt>
      <trkpt lat="48.18199" lon="6.52686">
        <ele>415.3</ele>
        <time>2023-03-03T18:59:47Z</time>
      </trkpt>
      <trkpt lat="48.18203" lon="6.52672">
        <ele>415.1</ele>
        <time>2023-03-03T18:59:54Z</time>
      </trkpt>
      <trkpt lat="48.1821" lon="6.52661">
        <ele>414.9</ele>
        <time>2023-03-03T19:00:01Z</time>
      </trkpt>
      <trkpt lat="48.18215" lon="6.52648">
        <ele>414.8</ele>
        <time>2023-03-03T19:00:08Z</time>
      </trkpt>
      <trkpt lat="48.18217" lon="6.52633">
        <ele>414.6</ele>
        <time>2023-03-03T19:00:13Z</time>
      </trkpt>
      <trkpt lat="48.1822" lon="6.52618">
        <ele>414.5</ele>
        <time>2023-03-03T19:00:18Z</time>
      </trkpt>
      <trkpt lat="48.18221" lon="6.52601">
        <ele>414.5</ele>
        <time>2023-03-03T19:00:24Z</time>
      </trkpt>
      <trkpt lat="48.18227" lon="6.52589">
        <ele>414.4</ele>
        <time>2023-03-03T19:00:30Z</time>
      </trkpt>
      <trkpt lat="48.18231" lon="6.52574">
        <ele>414.3</ele>
        <time>2023-03-03T19:00:35Z</time>
      </trkpt>
      <trkpt lat="48.18236" lon="6.52562">
        <ele>414.1</ele>
        <time>2023-03-03T19:00:44Z</time>
      </trkpt>
      <trkpt lat="48.18239" lon="6.52549">
        <ele>413.8</ele>
        <time>2023-03-03T19:00:50Z</time>
      </trkpt>
      <trkpt lat="48.18245" lon="6.52538">
        <ele>413.5</ele>
        <time>2023-03-03T19:00:56Z</time>
      </trkpt>
      <trkpt lat="48.18247" lon="6.52524">
        <ele>413.2</ele>
        <time>2023-03-03T19:01:01Z</time>
      </trkpt>
      <trkpt lat="48.1825" lon="6.5251">
        <ele>413.1</ele>
        <time>2023-03-03T19:01:06Z</time>
      </trkpt>
      <trkpt lat="48.18254" lon="6.52497">
        <ele>413.1</ele>
        <time>2023-03-03T19:01:13Z</time>
      </trkpt>
      <trkpt lat="48.18264" lon="6.52491">
        <ele>413.2</ele>
        <time>2023-03-03T19:01:19Z</time>
      </trkpt>
      <trkpt lat="48.18271" lon="6.52482">
        <ele>413.2</ele>
        <time>2023-03-03T19:01:23Z</time>
      </trkpt>
      <trkpt lat="48.18274" lon="6.52469">
        <ele>413.3</ele>
        <time>2023-03-03T19:01:33Z</time>
      </trkpt>
      <trkpt lat="48.18274" lon="6.52455">
        <ele>413.2</ele>
        <time>2023-03-03T19:01:42Z</time>
      </trkpt>
      <trkpt lat="48.18278" lon="6.52443">
        <ele>413.2</ele>
        <time>2023-03-03T19:01:48Z</time>
      </trkpt>
      <trkpt lat="48.18285" lon="6.52431">
        <ele>413</ele>
        <time>2023-03-03T19:01:53Z</time>
      </trkpt>
      <trkpt lat="48.18291" lon="6.52421">
        <ele>412.9</ele>
        <time>2023-03-03T19:01:58Z</time>
      </trkpt>
      <trkpt lat="48.18297" lon="6.52409">
        <ele>412.8</ele>
        <time>2023-03-03T19:02:02Z</time>
      </trkpt>
      <trkpt lat="48.18305" lon="6.52396">
        <ele>412.7</ele>
        <time>2023-03-03T19:02:10Z</time>
      </trkpt>
      <trkpt lat="48.18311" lon="6.52386">
        <ele>412.5</ele>
        <time>2023-03-03T19:02:15Z</time>
      </trkpt>
      <trkpt lat="48.18317" lon="6.52376">
        <ele>412.4</ele>
        <time>2023-03-03T19:02:23Z</time>
      </trkpt>
      <trkpt lat="48.18323" lon="6.52365">
        <ele>412.3</ele>
        <time>2023-03-03T19:02:29Z</time>
      </trkpt>
      <trkpt lat="48.18314" lon="6.52359">
        <ele>412.2</ele>
        <time>2023-03-03T19:02:34Z</time>
      </trkpt>
      <trkpt lat="48.18316" lon="6.52344">
        <ele>412</ele>
        <time>2023-03-03T19:02:48Z</time>
      </trkpt>
      <trkpt lat="48.18322" lon="6.52332">
        <ele>412</ele>
        <time>2023-03-03T19:02:51Z</time>
      </trkpt>
      <trkpt lat="48.1833" lon="6.52324">
        <ele>412</ele>
        <time>2023-03-03T19:02:55Z</time>
      </trkpt>
      <trkpt lat="48.18337" lon="6.52314">
        <ele>412</ele>
        <time>2023-03-03T19:03:01Z</time>
      </trkpt>
      <trkpt lat="48.18344" lon="6.52305">
        <ele>412.1</ele>
        <time>2023-03-03T19:03:10Z</time>
      </trkpt>
      <trkpt lat="48.1835" lon="6.52293">
        <ele>412.2</ele>
        <time>2023-03-03T19:03:15Z</time>
      </trkpt>
      <trkpt lat="48.18352" lon="6.52292">
        <ele>412.2</ele>
        <time>2023-03-03T19:03:20Z</time>
      </trkpt>
      <trkpt lat="48.18353" lon="6.5229">
        <ele>412.2</ele>
        <time>2023-03-03T19:03:21Z</time>
      </trkpt>
      <trkpt lat="48.18358" lon="6.52278">
        <ele>412.4</ele>
        <time>2023-03-03T19:03:25Z</time>
      </trkpt>
      <trkpt lat="48.18357" lon="6.5227">
        <ele>412.5</ele>
        <time>2023-03-03T19:03:33Z</time>
      </trkpt>
      <trkpt lat="48.18357" lon="6.5227">
        <ele>412.5</ele>
        <time>2023-03-03T19:03:34Z</time>
      </trkpt>
      <trkpt lat="48.18365" lon="6.52261">
        <ele>412.7</ele>
        <time>2023-03-03T19:03:40Z</time>
      </trkpt>
      <trkpt lat="48.18367" lon="6.52246">
        <ele>413</ele>
        <time>2023-03-03T19:03:46Z</time>
      </trkpt>
      <trkpt lat="48.18371" lon="6.52231">
        <ele>413.3</ele>
        <time>2023-03-03T19:03:50Z</time>
      </trkpt>
      <trkpt lat="48.18378" lon="6.52218">
        <ele>413.6</ele>
        <time>2023-03-03T19:03:56Z</time>
      </trkpt>
      <trkpt lat="48.18384" lon="6.52207">
        <ele>413.8</ele>
        <time>2023-03-03T19:04:00Z</time>
      </trkpt>
      <trkpt lat="48.18389" lon="6.52196">
        <ele>414.1</ele>
        <time>2023-03-03T19:04:06Z</time>
      </trkpt>
      <trkpt lat="48.18397" lon="6.52183">
        <ele>414.4</ele>
        <time>2023-03-03T19:04:12Z</time>
      </trkpt>
      <trkpt lat="48.18405" lon="6.52171">
        <ele>414.7</ele>
        <time>2023-03-03T19:04:17Z</time>
      </trkpt>
      <trkpt lat="48.18414" lon="6.52161">
        <ele>415.1</ele>
        <time>2023-03-03T19:04:24Z</time>
      </trkpt>
      <trkpt lat="48.18421" lon="6.52151">
        <ele>415.4</ele>
        <time>2023-03-03T19:04:36Z</time>
      </trkpt>
      <trkpt lat="48.18429" lon="6.52145">
        <ele>415.6</ele>
        <time>2023-03-03T19:04:41Z</time>
      </trkpt>
      <trkpt lat="48.18438" lon="6.52138">
        <ele>415.8</ele>
        <time>2023-03-03T19:04:48Z</time>
      </trkpt>
      <trkpt lat="48.18445" lon="6.52131">
        <ele>416.1</ele>
        <time>2023-03-03T19:04:56Z</time>
      </trkpt>
      <trkpt lat="48.18453" lon="6.52122">
        <ele>416.3</ele>
        <time>2023-03-03T19:05:06Z</time>
      </trkpt>
      <trkpt lat="48.18461" lon="6.52115">
        <ele>416.5</ele>
        <time>2023-03-03T19:05:10Z</time>
      </trkpt>
      <trkpt lat="48.18468" lon="6.52105">
        <ele>416.8</ele>
        <time>2023-03-03T19:05:21Z</time>
      </trkpt>
      <trkpt lat="48.18476" lon="6.521">
        <ele>417.1</ele>
        <time>2023-03-03T19:05:26Z</time>
      </trkpt>
      <trkpt lat="48.18485" lon="6.52093">
        <ele>417.4</ele>
        <time>2023-03-03T19:05:36Z</time>
      </trkpt>
      <trkpt lat="48.18494" lon="6.52089">
        <ele>417.8</ele>
        <time>2023-03-03T19:05:43Z</time>
      </trkpt>
      <trkpt lat="48.18503" lon="6.52081">
        <ele>418.2</ele>
        <time>2023-03-03T19:05:48Z</time>
      </trkpt>
      <trkpt lat="48.18512" lon="6.52076">
        <ele>418.7</ele>
        <time>2023-03-03T19:05:53Z</time>
      </trkpt>
      <trkpt lat="48.1852" lon="6.52069">
        <ele>419.2</ele>
        <time>2023-03-03T19:06:00Z</time>
      </trkpt>
      <trkpt lat="48.18527" lon="6.5206">
        <ele>419.6</ele>
        <time>2023-03-03T19:06:07Z</time>
      </trkpt>
      <trkpt lat="48.18537" lon="6.52056">
        <ele>420</ele>
        <time>2023-03-03T19:06:13Z</time>
      </trkpt>
      <trkpt lat="48.18546" lon="6.5205">
        <ele>420.4</ele>
        <time>2023-03-03T19:06:22Z</time>
      </trkpt>
      <trkpt lat="48.18556" lon="6.52045">
        <ele>421</ele>
        <time>2023-03-03T19:06:26Z</time>
      </trkpt>
      <trkpt lat="48.18565" lon="6.52037">
        <ele>421.6</ele>
        <time>2023-03-03T19:06:34Z</time>
      </trkpt>
      <trkpt lat="48.18575" lon="6.52031">
        <ele>422.4</ele>
        <time>2023-03-03T19:06:41Z</time>
      </trkpt>
      <trkpt lat="48.18584" lon="6.52027">
        <ele>423</ele>
        <time>2023-03-03T19:06:47Z</time>
      </trkpt>
      <trkpt lat="48.18594" lon="6.52024">
        <ele>423.6</ele>
        <time>2023-03-03T19:06:58Z</time>
      </trkpt>
      <trkpt lat="48.18601" lon="6.52015">
        <ele>424.1</ele>
        <time>2023-03-03T19:07:05Z</time>
      </trkpt>
      <trkpt lat="48.18611" lon="6.52013">
        <ele>424.5</ele>
        <time>2023-03-03T19:07:13Z</time>
      </trkpt>
      <trkpt lat="48.18618" lon="6.52004">
        <ele>424.7</ele>
        <time>2023-03-03T19:07:22Z</time>
      </trkpt>
      <trkpt lat="48.18627" lon="6.52">
        <ele>424.6</ele>
        <time>2023-03-03T19:07:31Z</time>
      </trkpt>
      <trkpt lat="48.18635" lon="6.5199">
        <ele>424.2</ele>
        <time>2023-03-03T19:07:41Z</time>
      </trkpt>
      <trkpt lat="48.18643" lon="6.51986">
        <ele>423.7</ele>
        <time>2023-03-03T19:07:46Z</time>
      </trkpt>
      <trkpt lat="48.18652" lon="6.51979">
        <ele>422.9</ele>
        <time>2023-03-03T19:08:10Z</time>
      </trkpt>
      <trkpt lat="48.18659" lon="6.5197">
        <ele>422.1</ele>
        <time>2023-03-03T19:08:15Z</time>
      </trkpt>
      <trkpt lat="48.18665" lon="6.51961">
        <ele>421.3</ele>
        <time>2023-03-03T19:08:22Z</time>
      </trkpt>
      <trkpt lat="48.18665" lon="6.51961">
        <ele>421.2</ele>
        <time>2023-03-03T19:08:24Z</time>
      </trkpt>
      <trkpt lat="48.18674" lon="6.51955">
        <ele>420.3</ele>
        <time>2023-03-03T19:08:37Z</time>
      </trkpt>
      <trkpt lat="48.18683" lon="6.51957">
        <ele>419.4</ele>
        <time>2023-03-03T19:08:43Z</time>
      </trkpt>
      <trkpt lat="48.18692" lon="6.51952">
        <ele>418.5</ele>
        <time>2023-03-03T19:08:52Z</time>
      </trkpt>
      <trkpt lat="48.18701" lon="6.51944">
        <ele>417.5</ele>
        <time>2023-03-03T19:08:58Z</time>
      </trkpt>
      <trkpt lat="48.1871" lon="6.51936">
        <ele>416.6</ele>
        <time>2023-03-03T19:09:03Z</time>
      </trkpt>
      <trkpt lat="48.18719" lon="6.51934">
        <ele>415.9</ele>
        <time>2023-03-03T19:09:11Z</time>
      </trkpt>
      <trkpt lat="48.18729" lon="6.51928">
        <ele>415.1</ele>
        <time>2023-03-03T19:09:21Z</time>
      </trkpt>
      <trkpt lat="48.18739" lon="6.51924">
        <ele>414.5</ele>
        <time>2023-03-03T19:09:25Z</time>
      </trkpt>
      <trkpt lat="48.18745" lon="6.51919">
        <ele>414.1</ele>
        <time>2023-03-03T19:09:34Z</time>
      </trkpt>
      <trkpt lat="48.18746" lon="6.51918">
        <ele>414</ele>
        <time>2023-03-03T19:09:35Z</time>
      </trkpt>
      <trkpt lat="48.18755" lon="6.51913">
        <ele>413.6</ele>
        <time>2023-03-03T19:09:40Z</time>
      </trkpt>
      <trkpt lat="48.18766" lon="6.51909">
        <ele>413.1</ele>
        <time>2023-03-03T19:09:47Z</time>
      </trkpt>
      <trkpt lat="48.18776" lon="6.51903">
        <ele>412.8</ele>
        <time>2023-03-03T19:09:51Z</time>
      </trkpt>
      <trkpt lat="48.18784" lon="6.51896">
        <ele>412.5</ele>
        <time>2023-03-03T19:09:58Z</time>
      </trkpt>
      <trkpt lat="48.18793" lon="6.5189">
        <ele>412.3</ele>
        <time>2023-03-03T19:10:07Z</time>
      </trkpt>
      <trkpt lat="48.18802" lon="6.51888">
        <ele>412.1</ele>
        <time>2023-03-03T19:10:10Z</time>
      </trkpt>
      <trkpt lat="48.18809" lon="6.51879">
        <ele>411.9</ele>
        <time>2023-03-03T19:10:18Z</time>
      </trkpt>
      <trkpt lat="48.18819" lon="6.51874">
        <ele>411.7</ele>
        <time>2023-03-03T19:10:24Z</time>
      </trkpt>
      <trkpt lat="48.18827" lon="6.51866">
        <ele>411.7</ele>
        <time>2023-03-03T19:10:32Z</time>
      </trkpt>
      <trkpt lat="48.18837" lon="6.5186">
        <ele>411.7</ele>
        <time>2023-03-03T19:10:43Z</time>
      </trkpt>
      <trkpt lat="48.18846" lon="6.51857">
        <ele>411.5</ele>
        <time>2023-03-03T19:10:51Z</time>
      </trkpt>
      <trkpt lat="48.18854" lon="6.51849">
        <ele>411.4</ele>
        <time>2023-03-03T19:10:57Z</time>
      </trkpt>
      <trkpt lat="48.18862" lon="6.51842">
        <ele>411.1</ele>
        <time>2023-03-03T19:11:04Z</time>
      </trkpt>
      <trkpt lat="48.18871" lon="6.5184">
        <ele>410.6</ele>
        <time>2023-03-03T19:11:11Z</time>
      </trkpt>
      <trkpt lat="48.1888" lon="6.51834">
        <ele>410.1</ele>
        <time>2023-03-03T19:11:20Z</time>
      </trkpt>
      <trkpt lat="48.18888" lon="6.51829">
        <ele>409.5</ele>
        <time>2023-03-03T19:11:26Z</time>
      </trkpt>
      <trkpt lat="48.18899" lon="6.51824">
        <ele>408.8</ele>
        <time>2023-03-03T19:11:31Z</time>
      </trkpt>
      <trkpt lat="48.18908" lon="6.51821">
        <ele>408.1</ele>
        <time>2023-03-03T19:11:39Z</time>
      </trkpt>
      <trkpt lat="48.18917" lon="6.51815">
        <ele>407.5</ele>
        <time>2023-03-03T19:11:45Z</time>
      </trkpt>
      <trkpt lat="48.18926" lon="6.51809">
        <ele>406.9</ele>
        <time>2023-03-03T19:11:53Z</time>
      </trkpt>
      <trkpt lat="48.18935" lon="6.51804">
        <ele>406.3</ele>
        <time>2023-03-03T19:11:58Z</time>
      </trkpt>
      <trkpt lat="48.18943" lon="6.51798">
        <ele>405.7</ele>
        <time>2023-03-03T19:12:05Z</time>
      </trkpt>
      <trkpt lat="48.18951" lon="6.5179">
        <ele>405.1</ele>
        <time>2023-03-03T19:12:11Z</time>
      </trkpt>
      <trkpt lat="48.18961" lon="6.51786">
        <ele>404.5</ele>
        <time>2023-03-03T19:12:18Z</time>
      </trkpt>
      <trkpt lat="48.18969" lon="6.51778">
        <ele>403.7</ele>
        <time>2023-03-03T19:12:23Z</time>
      </trkpt>
      <trkpt lat="48.18979" lon="6.51777">
        <ele>402.8</ele>
        <time>2023-03-03T19:12:30Z</time>
      </trkpt>
      <trkpt lat="48.18988" lon="6.51772">
        <ele>401.9</ele>
        <time>2023-03-03T19:12:35Z</time>
      </trkpt>
      <trkpt lat="48.18997" lon="6.51767">
        <ele>401</ele>
        <time>2023-03-03T19:12:41Z</time>
      </trkpt>
      <trkpt lat="48.19006" lon="6.51765">
        <ele>400</ele>
        <time>2023-03-03T19:12:51Z</time>
      </trkpt>
      <trkpt lat="48.19014" lon="6.51754">
        <ele>399</ele>
        <time>2023-03-03T19:13:00Z</time>
      </trkpt>
      <trkpt lat="48.19023" lon="6.5175">
        <ele>398.2</ele>
        <time>2023-03-03T19:13:06Z</time>
      </trkpt>
      <trkpt lat="48.1903" lon="6.51741">
        <ele>397.4</ele>
        <time>2023-03-03T19:13:11Z</time>
      </trkpt>
      <trkpt lat="48.19038" lon="6.51733">
        <ele>396.6</ele>
        <time>2023-03-03T19:13:16Z</time>
      </trkpt>
      <trkpt lat="48.19049" lon="6.51727">
        <ele>395.7</ele>
        <time>2023-03-03T19:13:21Z</time>
      </trkpt>
      <trkpt lat="48.19057" lon="6.5172">
        <ele>394.9</ele>
        <time>2023-03-03T19:13:25Z</time>
      </trkpt>
      <trkpt lat="48.19058" lon="6.5172">
        <ele>394.8</ele>
        <time>2023-03-03T19:13:28Z</time>
      </trkpt>
      <trkpt lat="48.19058" lon="6.5172">
        <ele>394.7</ele>
        <time>2023-03-03T19:13:29Z</time>
      </trkpt>
      <trkpt lat="48.19068" lon="6.51718">
        <ele>393.8</ele>
        <time>2023-03-03T19:13:38Z</time>
      </trkpt>
      <trkpt lat="48.19078" lon="6.51712">
        <ele>392.7</ele>
        <time>2023-03-03T19:13:50Z</time>
      </trkpt>
      <trkpt lat="48.19086" lon="6.51708">
        <ele>391.6</ele>
        <time>2023-03-03T19:13:56Z</time>
      </trkpt>
      <trkpt lat="48.19095" lon="6.51704">
        <ele>390.3</ele>
        <time>2023-03-03T19:14:07Z</time>
      </trkpt>
      <trkpt lat="48.19104" lon="6.51698">
        <ele>389.1</ele>
        <time>2023-03-03T19:14:15Z</time>
      </trkpt>
      <trkpt lat="48.19115" lon="6.51692">
        <ele>387.7</ele>
        <time>2023-03-03T19:14:21Z</time>
      </trkpt>
      <trkpt lat="48.19124" lon="6.51686">
        <ele>386.6</ele>
        <time>2023-03-03T19:14:24Z</time>
      </trkpt>
      <trkpt lat="48.19133" lon="6.51678">
        <ele>385.6</ele>
        <time>2023-03-03T19:14:29Z</time>
      </trkpt>
      <trkpt lat="48.19143" lon="6.51673">
        <ele>384.8</ele>
        <time>2023-03-03T19:14:33Z</time>
      </trkpt>
      <trkpt lat="48.19151" lon="6.51665">
        <ele>384</ele>
        <time>2023-03-03T19:14:42Z</time>
      </trkpt>
      <trkpt lat="48.19161" lon="6.51659">
        <ele>383.2</ele>
        <time>2023-03-03T19:14:50Z</time>
      </trkpt>
      <trkpt lat="48.19169" lon="6.51653">
        <ele>382.5</ele>
        <time>2023-03-03T19:14:59Z</time>
      </trkpt>
      <trkpt lat="48.19178" lon="6.51646">
        <ele>381.6</ele>
        <time>2023-03-03T19:15:05Z</time>
      </trkpt>
      <trkpt lat="48.19188" lon="6.51642">
        <ele>380.7</ele>
        <time>2023-03-03T19:15:26Z</time>
      </trkpt>
      <trkpt lat="48.19197" lon="6.51638">
        <ele>379.8</ele>
        <time>2023-03-03T19:15:38Z</time>
      </trkpt>
      <trkpt lat="48.19206" lon="6.51631">
        <ele>378.9</ele>
        <time>2023-03-03T19:15:42Z</time>
      </trkpt>
      <trkpt lat="48.19215" lon="6.51627">
        <ele>378</ele>
        <time>2023-03-03T19:15:51Z</time>
      </trkpt>
      <trkpt lat="48.19224" lon="6.51621">
        <ele>377.2</ele>
        <time>2023-03-03T19:15:56Z</time>
      </trkpt>
      <trkpt lat="48.19232" lon="6.51612">
        <ele>376.4</ele>
        <time>2023-03-03T19:16:04Z</time>
      </trkpt>
      <trkpt lat="48.19241" lon="6.51603">
        <ele>375.7</ele>
        <time>2023-03-03T19:16:20Z</time>
      </trkpt>
      <trkpt lat="48.1925" lon="6.51601">
        <ele>375.1</ele>
        <time>2023-03-03T19:16:28Z</time>
      </trkpt>
      <trkpt lat="48.19258" lon="6.5159">
        <ele>374.5</ele>
        <time>2023-03-03T19:16:35Z</time>
      </trkpt>
      <trkpt lat="48.19264" lon="6.51584">
        <ele>374.3</ele>
        <time>2023-03-03T19:16:45Z</time>
      </trkpt>
      <trkpt lat="48.19265" lon="6.51584">
        <ele>374.3</ele>
        <time>2023-03-03T19:16:46Z</time>
      </trkpt>
      <trkpt lat="48.19273" lon="6.51577">
        <ele>374.1</ele>
        <time>2023-03-03T19:16:52Z</time>
      </trkpt>
      <trkpt lat="48.19282" lon="6.51572">
        <ele>373.8</ele>
        <time>2023-03-03T19:16:58Z</time>
      </trkpt>
      <trkpt lat="48.19291" lon="6.51564">
        <ele>373.6</ele>
        <time>2023-03-03T19:17:06Z</time>
      </trkpt>
      <trkpt lat="48.19299" lon="6.51556">
        <ele>373.4</ele>
        <time>2023-03-03T19:17:11Z</time>
      </trkpt>
      <trkpt lat="48.19308" lon="6.51555">
        <ele>373.2</ele>
        <time>2023-03-03T19:17:20Z</time>
      </trkpt>
      <trkpt lat="48.19318" lon="6.51553">
        <ele>373</ele>
        <time>2023-03-03T19:17:27Z</time>
      </trkpt>
      <trkpt lat="48.19324" lon="6.51557">
        <ele>372.8</ele>
        <time>2023-03-03T19:18:05Z</time>
      </trkpt>
      <trkpt lat="48.19324" lon="6.51557">
        <ele>372.8</ele>
        <time>2023-03-03T19:18:06Z</time>
      </trkpt>
      <trkpt lat="48.19332" lon="6.5155">
        <ele>372.6</ele>
        <time>2023-03-03T19:18:57Z</time>
      </trkpt>
      <trkpt lat="48.19333" lon="6.51534">
        <ele>372.3</ele>
        <time>2023-03-03T19:19:20Z</time>
      </trkpt>
      <trkpt lat="48.19326" lon="6.5153">
        <ele>372.1</ele>
        <time>2023-03-03T19:19:26Z</time>
      </trkpt>
      <trkpt lat="48.19326" lon="6.51531">
        <ele>372.1</ele>
        <time>2023-03-03T19:19:27Z</time>
      </trkpt>
      <trkpt lat="48.19335" lon="6.51539">
        <ele>371.9</ele>
        <time>2023-03-03T19:19:40Z</time>
      </trkpt>
      <trkpt lat="48.19344" lon="6.51539">
        <ele>371.7</ele>
        <time>2023-03-03T19:19:46Z</time>
      </trkpt>
      <trkpt lat="48.19335" lon="6.51532">
        <ele>371.5</ele>
        <time>2023-03-03T19:19:51Z</time>
      </trkpt>
      <trkpt lat="48.19317" lon="6.51539">
        <ele>371.2</ele>
        <time>2023-03-03T19:20:12Z</time>
      </trkpt>
      <trkpt lat="48.19324" lon="6.5155">
        <ele>371</ele>
        <time>2023-03-03T19:20:20Z</time>
      </trkpt>
      <trkpt lat="48.19329" lon="6.51564">
        <ele>370.9</ele>
        <time>2023-03-03T19:20:32Z</time>
      </trkpt>
      <trkpt lat="48.19341" lon="6.51562">
        <ele>370.6</ele>
        <time>2023-03-03T19:20:38Z</time>
      </trkpt>
      <trkpt lat="48.19346" lon="6.51551">
        <ele>370.4</ele>
        <time>2023-03-03T19:20:50Z</time>
      </trkpt>
      <trkpt lat="48.19335" lon="6.51557">
        <ele>370.7</ele>
        <time>2023-03-03T19:21:05Z</time>
      </trkpt>
      <trkpt lat="48.19327" lon="6.51563">
        <ele>371</ele>
        <time>2023-03-03T19:21:11Z</time>
      </trkpt>
      <trkpt lat="48.19338" lon="6.5156">
        <ele>371.1</ele>
        <time>2023-03-03T19:21:30Z</time>
      </trkpt>
      <trkpt lat="48.19332" lon="6.51547">
        <ele>371.1</ele>
        <time>2023-03-03T19:21:44Z</time>
      </trkpt>
      <trkpt lat="48.19318" lon="6.51555">
        <ele>371.3</ele>
        <time>2023-03-03T19:22:02Z</time>
      </trkpt>
      <trkpt lat="48.19311" lon="6.51552">
        <ele>371.4</ele>
        <time>2023-03-03T19:22:05Z</time>
      </trkpt>
      <trkpt lat="48.19308" lon="6.51551">
        <ele>371.5</ele>
        <time>2023-03-03T19:22:06Z</time>
      </trkpt>
      <trkpt lat="48.19317" lon="6.5155">
        <ele>371.4</ele>
        <time>2023-03-03T19:22:15Z</time>
      </trkpt>
      <trkpt lat="48.19313" lon="6.51537">
        <ele>371.3</ele>
        <time>2023-03-03T19:22:25Z</time>
      </trkpt>
      <trkpt lat="48.19324" lon="6.51538">
        <ele>371.2</ele>
        <time>2023-03-03T19:22:48Z</time>
      </trkpt>
      <trkpt lat="48.19334" lon="6.51544">
        <ele>371.1</ele>
        <time>2023-03-03T19:22:52Z</time>
      </trkpt>
      <trkpt lat="48.19342" lon="6.51552">
        <ele>371.1</ele>
        <time>2023-03-03T19:23:26Z</time>
      </trkpt>
      <trkpt lat="48.19332" lon="6.5155">
        <ele>371</ele>
        <time>2023-03-03T19:23:30Z</time>
      </trkpt>
      <trkpt lat="48.19322" lon="6.51542">
        <ele>370.9</ele>
        <time>2023-03-03T19:23:37Z</time>
      </trkpt>
      <trkpt lat="48.19325" lon="6.51547">
        <ele>370.9</ele>
        <time>2023-03-03T19:23:55Z</time>
      </trkpt>
      <trkpt lat="48.19325" lon="6.51548">
        <ele>370.9</ele>
        <time>2023-03-03T19:23:56Z</time>
      </trkpt>
      <trkpt lat="48.19329" lon="6.51544">
        <ele>370.7</ele>
        <time>2023-03-03T19:24:42Z</time>
      </trkpt>
      <trkpt lat="48.19329" lon="6.51543">
        <ele>370.7</ele>
        <time>2023-03-03T19:24:43Z</time>
      </trkpt>
      <trkpt lat="48.19337" lon="6.51551">
        <ele>370.5</ele>
        <time>2023-03-03T19:24:49Z</time>
      </trkpt>
      <trkpt lat="48.19349" lon="6.51547">
        <ele>370.3</ele>
        <time>2023-03-03T19:24:55Z</time>
      </trkpt>
      <trkpt lat="48.19357" lon="6.51543">
        <ele>370.1</ele>
        <time>2023-03-03T19:24:58Z</time>
      </trkpt>
      <trkpt lat="48.19346" lon="6.51547">
        <ele>370.4</ele>
        <time>2023-03-03T19:25:04Z</time>
      </trkpt>
      <trkpt lat="48.19336" lon="6.51552">
        <ele>370.6</ele>
        <time>2023-03-03T19:25:10Z</time>
      </trkpt>
      <trkpt lat="48.19326" lon="6.51554">
        <ele>370.9</ele>
        <time>2023-03-03T19:25:22Z</time>
      </trkpt>
      <trkpt lat="48.19316" lon="6.51549">
        <ele>370.9</ele>
        <time>2023-03-03T19:25:37Z</time>
      </trkpt>
      <trkpt lat="48.19324" lon="6.51555">
        <ele>370.9</ele>
        <time>2023-03-03T19:25:47Z</time>
      </trkpt>
      <trkpt lat="48.19334" lon="6.51554">
        <ele>370.9</ele>
        <time>2023-03-03T19:25:53Z</time>
      </trkpt>
      <trkpt lat="48.19325" lon="6.51553">
        <ele>370.9</ele>
        <time>2023-03-03T19:26:09Z</time>
      </trkpt>
      <trkpt lat="48.19317" lon="6.51544">
        <ele>370.9</ele>
        <time>2023-03-03T19:26:21Z</time>
      </trkpt>
      <trkpt lat="48.19309" lon="6.51548">
        <ele>370.9</ele>
        <time>2023-03-03T19:26:48Z</time>
      </trkpt>
      <trkpt lat="48.19318" lon="6.51541">
        <ele>370.9</ele>
        <time>2023-03-03T19:26:56Z</time>
      </trkpt>
      <trkpt lat="48.19307" lon="6.51542">
        <ele>370.9</ele>
        <time>2023-03-03T19:27:02Z</time>
      </trkpt>
      <trkpt lat="48.19301" lon="6.51552">
        <ele>370.9</ele>
        <time>2023-03-03T19:27:12Z</time>
      </trkpt>
      <trkpt lat="48.19312" lon="6.51552">
        <ele>370.9</ele>
        <time>2023-03-03T19:27:17Z</time>
      </trkpt>
      <trkpt lat="48.19319" lon="6.51544">
        <ele>370.9</ele>
        <time>2023-03-03T19:27:26Z</time>
      </trkpt>
      <trkpt lat="48.19309" lon="6.51546">
        <ele>370.9</ele>
        <time>2023-03-03T19:27:35Z</time>
      </trkpt>
      <trkpt lat="48.19319" lon="6.51539">
        <ele>370.9</ele>
        <time>2023-03-03T19:27:46Z</time>
      </trkpt>
      <trkpt lat="48.1933" lon="6.51561">
        <ele>370.9</ele>
        <time>2023-03-03T19:28:04Z</time>
      </trkpt>
      <trkpt lat="48.1933" lon="6.5156">
        <ele>370.9</ele>
        <time>2023-03-03T19:28:05Z</time>
      </trkpt>
      <trkpt lat="48.19331" lon="6.51559">
        <ele>370.9</ele>
        <time>2023-03-03T19:28:07Z</time>
      </trkpt>
      <trkpt lat="48.19333" lon="6.51559">
        <ele>370.9</ele>
        <time>2023-03-03T19:28:15Z</time>
      </trkpt>
      <trkpt lat="48.19331" lon="6.51558">
        <ele>370.9</ele>
        <time>2023-03-03T19:28:16Z</time>
      </trkpt>
      <trkpt lat="48.1933" lon="6.51562">
        <ele>370.9</ele>
        <time>2023-03-03T19:28:44Z</time>
      </trkpt>
      <trkpt lat="48.1933" lon="6.51561">
        <ele>370.9</ele>
        <time>2023-03-03T19:28:45Z</time>
      </trkpt>
      <trkpt lat="48.19328" lon="6.51566">
        <ele>370.9</ele>
        <time>2023-03-03T19:29:00Z</time>
      </trkpt>
      <trkpt lat="48.19328" lon="6.51567">
        <ele>370.9</ele>
        <time>2023-03-03T19:29:01Z</time>
      </trkpt>
      <trkpt lat="48.19322" lon="6.51555">
        <ele>370.9</ele>
        <time>2023-03-03T19:29:20Z</time>
      </trkpt>
      <trkpt lat="48.19313" lon="6.51553">
        <ele>370.9</ele>
        <time>2023-03-03T19:30:04Z</time>
      </trkpt>
      <trkpt lat="48.19322" lon="6.5155">
        <ele>370.9</ele>
        <time>2023-03-03T19:30:19Z</time>
      </trkpt>
      <trkpt lat="48.19329" lon="6.5156">
        <ele>370.9</ele>
        <time>2023-03-03T19:30:53Z</time>
      </trkpt>
      <trkpt lat="48.19321" lon="6.51552">
        <ele>370.9</ele>
        <time>2023-03-03T19:31:21Z</time>
      </trkpt>
      <trkpt lat="48.19325" lon="6.51538">
        <ele>370.9</ele>
        <time>2023-03-03T19:32:00Z</time>
      </trkpt>
      <trkpt lat="48.19332" lon="6.51553">
        <ele>370.9</ele>
        <time>2023-03-03T19:32:21Z</time>
      </trkpt>
      <trkpt lat="48.19341" lon="6.51558">
        <ele>371</ele>
        <time>2023-03-03T19:32:38Z</time>
      </trkpt>
      <trkpt lat="48.19332" lon="6.51558">
        <ele>371</ele>
        <time>2023-03-03T19:32:52Z</time>
      </trkpt>
      <trkpt lat="48.19322" lon="6.51561">
        <ele>371</ele>
        <time>2023-03-03T19:32:58Z</time>
      </trkpt>
      <trkpt lat="48.19319" lon="6.51547">
        <ele>371</ele>
        <time>2023-03-03T19:33:10Z</time>
      </trkpt>
      <trkpt lat="48.19323" lon="6.51535">
        <ele>371</ele>
        <time>2023-03-03T19:33:17Z</time>
      </trkpt>
      <trkpt lat="48.19314" lon="6.51536">
        <ele>371</ele>
        <time>2023-03-03T19:33:35Z</time>
      </trkpt>
      <trkpt lat="48.19307" lon="6.51522">
        <ele>371</ele>
        <time>2023-03-03T19:33:43Z</time>
      </trkpt>
      <trkpt lat="48.1931" lon="6.5153">
        <ele>371</ele>
        <time>2023-03-03T19:34:01Z</time>
      </trkpt>
      <trkpt lat="48.19312" lon="6.5153">
        <ele>371</ele>
        <time>2023-03-03T19:34:02Z</time>
      </trkpt>
      <trkpt lat="48.19313" lon="6.51516">
        <ele>371</ele>
        <time>2023-03-03T19:34:09Z</time>
      </trkpt>
      <trkpt lat="48.19308" lon="6.51527">
        <ele>371</ele>
        <time>2023-03-03T19:34:22Z</time>
      </trkpt>
      <trkpt lat="48.19303" lon="6.51529">
        <ele>371</ele>
        <time>2023-03-03T19:34:31Z</time>
      </trkpt>
      <trkpt lat="48.19303" lon="6.5153">
        <ele>371</ele>
        <time>2023-03-03T19:34:32Z</time>
      </trkpt>
      <trkpt lat="48.19302" lon="6.5153">
        <ele>371</ele>
        <time>2023-03-03T19:34:43Z</time>
      </trkpt>
      <trkpt lat="48.19301" lon="6.51531">
        <ele>371</ele>
        <time>2023-03-03T19:34:44Z</time>
      </trkpt>
      <trkpt lat="48.19301" lon="6.51531">
        <ele>371</ele>
        <time>2023-03-03T19:34:46Z</time>
      </trkpt>
      <trkpt lat="48.19301" lon="6.51531">
        <ele>371</ele>
        <time>2023-03-03T19:34:47Z</time>
      </trkpt>
      <trkpt lat="48.19297" lon="6.51531">
        <ele>371</ele>
        <time>2023-03-03T19:35:10Z</time>
      </trkpt>
      <trkpt lat="48.193" lon="6.51529">
        <ele>371</ele>
        <time>2023-03-03T19:35:11Z</time>
      </trkpt>
      <trkpt lat="48.19306" lon="6.51525">
        <ele>371</ele>
        <time>2023-03-03T19:35:15Z</time>
      </trkpt>
      <trkpt lat="48.19306" lon="6.51525">
        <ele>371</ele>
        <time>2023-03-03T19:35:16Z</time>
      </trkpt>
      <trkpt lat="48.19306" lon="6.51525">
        <ele>371</ele>
        <time>2023-03-03T19:35:28Z</time>
      </trkpt>
      <trkpt lat="48.19307" lon="6.51525">
        <ele>371</ele>
        <time>2023-03-03T19:35:38Z</time>
      </trkpt>
      <trkpt lat="48.19307" lon="6.51525">
        <ele>371</ele>
        <time>2023-03-03T19:35:39Z</time>
      </trkpt>
      <trkpt lat="48.19307" lon="6.51525">
        <ele>371</ele>
        <time>2023-03-03T19:36:15Z</time>
      </trkpt>
      <trkpt lat="48.19307" lon="6.51525">
        <ele>371</ele>
        <time>2023-03-03T19:36:16Z</time>
      </trkpt>
      <trkpt lat="48.19307" lon="6.51525">
        <ele>371</ele>
        <time>2023-03-03T19:36:38Z</time>
      </trkpt>
      <trkpt lat="48.19307" lon="6.51525">
        <ele>371</ele>
        <time>2023-03-03T19:36:39Z</time>
      </trkpt>
      <trkpt lat="48.19307" lon="6.51525">
        <ele>371</ele>
        <time>2023-03-03T19:36:57Z</time>
      </trkpt>
      <trkpt lat="48.19307" lon="6.51525">
        <ele>371</ele>
        <time>2023-03-03T19:37:07Z</time>
      </trkpt>
      <trkpt lat="48.19307" lon="6.51525">
        <ele>371</ele>
        <time>2023-03-03T19:37:08Z</time>
      </trkpt>
      <trkpt lat="48.19307" lon="6.51525">
        <ele>371</ele>
        <time>2023-03-03T19:37:55Z</time>
      </trkpt>
      <trkpt lat="48.19307" lon="6.51525">
        <ele>371</ele>
        <time>2023-03-03T19:37:56Z</time>
      </trkpt>
      <trkpt lat="48.19307" lon="6.51525">
        <ele>371</ele>
        <time>2023-03-03T19:38:03Z</time>
      </trkpt>
      <trkpt lat="48.19307" lon="6.51525">
        <ele>371</ele>
        <time>2023-03-03T19:38:37Z</time>
      </trkpt>
      <trkpt lat="48.19307" lon="6.51525">
        <ele>371</ele>
        <time>2023-03-03T19:38:38Z</time>
      </trkpt>
      <trkpt lat="48.19307" lon="6.51525">
        <ele>371</ele>
        <time>2023-03-03T19:38:40Z</time>
      </trkpt>
      <trkpt lat="48.19307" lon="6.51525">
        <ele>371</ele>
        <time>2023-03-03T19:38:41Z</time>
      </trkpt>
      <trkpt lat="48.19307" lon="6.51525">
        <ele>371</ele>
        <time>2023-03-03T19:38:51Z</time>
      </trkpt>
      <trkpt lat="48.19307" lon="6.51525">
        <ele>371</ele>
        <time>2023-03-03T19:39:55Z</time>
      </trkpt>
      <trkpt lat="48.19307" lon="6.51525">
        <ele>371</ele>
        <time>2023-03-03T19:40:13Z</time>
      </trkpt>
      <trkpt lat="48.19307" lon="6.51525">
        <ele>371</ele>
        <time>2023-03-03T19:40:40Z</time>
      </trkpt>
      <trkpt lat="48.19307" lon="6.51525">
        <ele>371</ele>
        <time>2023-03-03T19:40:56Z</time>
      </trkpt>
      <trkpt lat="48.19307" lon="6.51525">
        <ele>371</ele>
        <time>2023-03-03T19:41:04Z</time>
      </trkpt>
      <trkpt lat="48.19307" lon="6.51525">
        <ele>371</ele>
        <time>2023-03-03T19:41:11Z</time>
      </trkpt>
      <trkpt lat="48.19307" lon="6.51525">
        <ele>371</ele>
        <time>2023-03-03T19:42:16Z</time>
      </trkpt>
      <trkpt lat="48.19307" lon="6.51525">
        <ele>371</ele>
        <time>2023-03-03T19:42:31Z</time>
      </trkpt>
      <trkpt lat="48.19308" lon="6.51525">
        <ele>371</ele>
        <time>2023-03-03T19:42:32Z</time>
      </trkpt>
      <trkpt lat="48.19308" lon="6.51525">
        <ele>371</ele>
        <time>2023-03-03T19:42:34Z</time>
      </trkpt>
      <trkpt lat="48.19308" lon="6.51525">
        <ele>371</ele>
        <time>2023-03-03T19:42:35Z</time>
      </trkpt>
      <trkpt lat="48.19308" lon="6.51525">
        <ele>371</ele>
        <time>2023-03-03T19:42:36Z</time>
      </trkpt>
      <trkpt lat="48.19308" lon="6.51525">
        <ele>371</ele>
        <time>2023-03-03T19:42:46Z</time>
      </trkpt>
      <trkpt lat="48.19308" lon="6.51526">
        <ele>371</ele>
        <time>2023-03-03T19:42:50Z</time>
      </trkpt>
      <trkpt lat="48.19308" lon="6.51526">
        <ele>371</ele>
        <time>2023-03-03T19:43:02Z</time>
      </trkpt>
      <trkpt lat="48.19308" lon="6.51526">
        <ele>371</ele>
        <time>2023-03-03T19:43:26Z</time>
      </trkpt>
      <trkpt lat="48.19308" lon="6.51526">
        <ele>371</ele>
        <time>2023-03-03T19:43:27Z</time>
      </trkpt>
      <trkpt lat="48.19308" lon="6.51526">
        <ele>371</ele>
        <time>2023-03-03T19:43:34Z</time>
      </trkpt>
      <trkpt lat="48.19308" lon="6.51526">
        <ele>371</ele>
        <time>2023-03-03T19:43:35Z</time>
      </trkpt>
      <trkpt lat="48.19308" lon="6.51526">
        <ele>371</ele>
        <time>2023-03-03T19:43:41Z</time>
      </trkpt>
      <trkpt lat="48.19308" lon="6.51526">
        <ele>371</ele>
        <time>2023-03-03T19:43:42Z</time>
      </trkpt>
      <trkpt lat="48.19308" lon="6.51526">
        <ele>371</ele>
        <time>2023-03-03T19:43:47Z</time>
      </trkpt>
      <trkpt lat="48.19308" lon="6.51526">
        <ele>371</ele>
        <time>2023-03-03T19:43:48Z</time>
      </trkpt>
      <trkpt lat="48.19308" lon="6.51526">
        <ele>371</ele>
        <time>2023-03-03T19:44:01Z</time>
      </trkpt>
      <trkpt lat="48.19308" lon="6.51526">
        <ele>371</ele>
        <time>2023-03-03T19:44:07Z</time>
      </trkpt>
      <trkpt lat="48.19308" lon="6.51526">
        <ele>371</ele>
        <time>2023-03-03T19:44:10Z</time>
      </trkpt>
      <trkpt lat="48.19308" lon="6.51526">
        <ele>371</ele>
        <time>2023-03-03T19:44:15Z</time>
      </trkpt>
      <trkpt lat="48.19308" lon="6.51526">
        <ele>371</ele>
        <time>2023-03-03T19:44:24Z</time>
      </trkpt>
      <trkpt lat="48.19308" lon="6.51526">
        <ele>371</ele>
        <time>2023-03-03T19:44:26Z</time>
      </trkpt>
      <trkpt lat="48.19308" lon="6.51526">
        <ele>371</ele>
        <time>2023-03-03T19:44:29Z</time>
      </trkpt>
      <trkpt lat="48.19308" lon="6.51526">
        <ele>371</ele>
        <time>2023-03-03T19:44:32Z</time>
      </trkpt>
      <trkpt lat="48.19308" lon="6.51526">
        <ele>371</ele>
        <time>2023-03-03T19:44:33Z</time>
      </trkpt>
      <trkpt lat="48.19308" lon="6.51526">
        <ele>371</ele>
        <time>2023-03-03T19:44:34Z</time>
      </trkpt>
      <trkpt lat="48.19309" lon="6.51526">
        <ele>371</ele>
        <time>2023-03-03T19:44:39Z</time>
      </trkpt>
      <trkpt lat="48.19309" lon="6.51526">
        <ele>371</ele>
        <time>2023-03-03T19:44:40Z</time>
      </trkpt>
      <trkpt lat="48.19309" lon="6.51526">
        <ele>371</ele>
        <time>2023-03-03T19:44:47Z</time>
      </trkpt>
      <trkpt lat="48.19309" lon="6.51526">
        <ele>371</ele>
        <time>2023-03-03T19:44:48Z</time>
      </trkpt>
      <trkpt lat="48.19309" lon="6.51526">
        <ele>371</ele>
        <time>2023-03-03T19:44:49Z</time>
      </trkpt>
      <trkpt lat="48.19309" lon="6.51526">
        <ele>371</ele>
        <time>2023-03-03T19:44:50Z</time>
      </trkpt>
      <trkpt lat="48.19309" lon="6.51526">
        <ele>371</ele>
        <time>2023-03-03T19:44:57Z</time>
      </trkpt>
      <trkpt lat="48.19309" lon="6.51526">
        <ele>371</ele>
        <time>2023-03-03T19:44:58Z</time>
      </trkpt>
      <trkpt lat="48.19309" lon="6.51526">
        <ele>371</ele>
        <time>2023-03-03T19:45:11Z</time>
      </trkpt>
      <trkpt lat="48.19309" lon="6.51526">
        <ele>371</ele>
        <time>2023-03-03T19:45:12Z</time>
      </trkpt>
      <trkpt lat="48.19309" lon="6.51526">
        <ele>371</ele>
        <time>2023-03-03T19:45:24Z</time>
      </trkpt>
      <trkpt lat="48.19309" lon="6.51526">
        <ele>371</ele>
        <time>2023-03-03T19:45:25Z</time>
      </trkpt>
      <trkpt lat="48.19309" lon="6.51526">
        <ele>371</ele>
        <time>2023-03-03T19:45:27Z</time>
      </trkpt>
      <trkpt lat="48.19309" lon="6.51526">
        <ele>371</ele>
        <time>2023-03-03T19:45:28Z</time>
      </trkpt>
      <trkpt lat="48.19309" lon="6.51526">
        <ele>371</ele>
        <time>2023-03-03T19:45:37Z</time>
      </trkpt>
      <trkpt lat="48.19309" lon="6.51526">
        <ele>371</ele>
        <time>2023-03-03T19:45:38Z</time>
      </trkpt>
      <trkpt lat="48.19309" lon="6.51526">
        <ele>371</ele>
        <time>2023-03-03T19:45:51Z</time>
      </trkpt>
      <trkpt lat="48.19309" lon="6.51526">
        <ele>371</ele>
        <time>2023-03-03T19:45:52Z</time>
      </trkpt>
      <trkpt lat="48.19309" lon="6.51526">
        <ele>371</ele>
        <time>2023-03-03T19:46:05Z</time>
      </trkpt>
      <trkpt lat="48.19309" lon="6.51526">
        <ele>371</ele>
        <time>2023-03-03T19:46:06Z</time>
      </trkpt>
      <trkpt lat="48.19309" lon="6.51526">
        <ele>371</ele>
        <time>2023-03-03T19:46:28Z</time>
      </trkpt>
      <trkpt lat="48.19309" lon="6.51526">
        <ele>371</ele>
        <time>2023-03-03T19:46:30Z</time>
      </trkpt>
      <trkpt lat="48.19309" lon="6.51526">
        <ele>371</ele>
        <time>2023-03-03T19:46:33Z</time>
      </trkpt>
      <trkpt lat="48.19309" lon="6.51526">
        <ele>371</ele>
        <time>2023-03-03T19:46:34Z</time>
      </trkpt>
      <trkpt lat="48.19309" lon="6.51526">
        <ele>371</ele>
        <time>2023-03-03T19:46:47Z</time>
      </trkpt>
      <trkpt lat="48.19309" lon="6.51526">
        <ele>371</ele>
        <time>2023-03-03T19:46:51Z</time>
      </trkpt>
      <trkpt lat="48.1931" lon="6.51526">
        <ele>371</ele>
        <time>2023-03-03T19:46:55Z</time>
      </trkpt>
      <trkpt lat="48.1931" lon="6.51526">
        <ele>371</ele>
        <time>2023-03-03T19:46:56Z</time>
      </trkpt>
      <trkpt lat="48.1931" lon="6.51526">
        <ele>371</ele>
        <time>2023-03-03T19:47:13Z</time>
      </trkpt>
      <trkpt lat="48.1931" lon="6.51526">
        <ele>371</ele>
        <time>2023-03-03T19:47:20Z</time>
      </trkpt>
      <trkpt lat="48.1931" lon="6.51526">
        <ele>371</ele>
        <time>2023-03-03T19:47:22Z</time>
      </trkpt>
      <trkpt lat="48.1931" lon="6.51526">
        <ele>371</ele>
        <time>2023-03-03T19:47:23Z</time>
      </trkpt>
      <trkpt lat="48.1931" lon="6.51526">
        <ele>371</ele>
        <time>2023-03-03T19:47:27Z</time>
      </trkpt>
      <trkpt lat="48.1931" lon="6.51527">
        <ele>371</ele>
        <time>2023-03-03T19:47:28Z</time>
      </trkpt>
      <trkpt lat="48.1931" lon="6.51527">
        <ele>371</ele>
        <time>2023-03-03T19:47:54Z</time>
      </trkpt>
      <trkpt lat="48.1931" lon="6.51527">
        <ele>371</ele>
        <time>2023-03-03T19:47:55Z</time>
      </trkpt>
      <trkpt lat="48.1931" lon="6.51527">
        <ele>371</ele>
        <time>2023-03-03T19:47:57Z</time>
      </trkpt>
      <trkpt lat="48.1931" lon="6.51527">
        <ele>371</ele>
        <time>2023-03-03T19:47:59Z</time>
      </trkpt>
      <trkpt lat="48.1931" lon="6.51527">
        <ele>371</ele>
        <time>2023-03-03T19:48:02Z</time>
      </trkpt>
      <trkpt lat="48.1931" lon="6.51527">
        <ele>371</ele>
        <time>2023-03-03T19:48:07Z</time>
      </trkpt>
      <trkpt lat="48.1931" lon="6.51527">
        <ele>371</ele>
        <time>2023-03-03T19:48:08Z</time>
      </trkpt>
      <trkpt lat="48.1931" lon="6.51527">
        <ele>371</ele>
        <time>2023-03-03T19:48:14Z</time>
      </trkpt>
      <trkpt lat="48.1931" lon="6.51527">
        <ele>371</ele>
        <time>2023-03-03T19:48:24Z</time>
      </trkpt>
      <trkpt lat="48.1931" lon="6.51527">
        <ele>371</ele>
        <time>2023-03-03T19:48:27Z</time>
      </trkpt>
      <trkpt lat="48.1931" lon="6.51527">
        <ele>371</ele>
        <time>2023-03-03T19:48:36Z</time>
      </trkpt>
      <trkpt lat="48.1931" lon="6.51527">
        <ele>371</ele>
        <time>2023-03-03T19:48:40Z</time>
      </trkpt>
      <trkpt lat="48.1931" lon="6.51527">
        <ele>371</ele>
        <time>2023-03-03T19:48:41Z</time>
      </trkpt>
      <trkpt lat="48.1931" lon="6.51527">
        <ele>371</ele>
        <time>2023-03-03T19:49:18Z</time>
      </trkpt>
      <trkpt lat="48.1931" lon="6.51527">
        <ele>371</ele>
        <time>2023-03-03T19:49:23Z</time>
      </trkpt>
      <trkpt lat="48.1931" lon="6.51527">
        <ele>371</ele>
        <time>2023-03-03T19:49:25Z</time>
      </trkpt>
      <trkpt lat="48.1931" lon="6.51527">
        <ele>371</ele>
        <time>2023-03-03T19:49:28Z</time>
      </trkpt>
      <trkpt lat="48.19311" lon="6.51527">
        <ele>371</ele>
        <time>2023-03-03T19:49:56Z</time>
      </trkpt>
      <trkpt lat="48.19311" lon="6.51527">
        <ele>371</ele>
        <time>2023-03-03T19:49:57Z</time>
      </trkpt>
      <trkpt lat="48.19311" lon="6.51527">
        <ele>371</ele>
        <time>2023-03-03T19:50:28Z</time>
      </trkpt>
      <trkpt lat="48.19311" lon="6.51527">
        <ele>371</ele>
        <time>2023-03-03T19:50:30Z</time>
      </trkpt>
      <trkpt lat="48.19311" lon="6.51527">
        <ele>371</ele>
        <time>2023-03-03T19:50:45Z</time>
      </trkpt>
      <trkpt lat="48.19311" lon="6.51527">
        <ele>371</ele>
        <time>2023-03-03T19:50:46Z</time>
      </trkpt>
      <trkpt lat="48.19311" lon="6.51527">
        <ele>371</ele>
        <time>2023-03-03T19:50:47Z</time>
      </trkpt>
      <trkpt lat="48.19311" lon="6.51527">
        <ele>371</ele>
        <time>2023-03-03T19:50:48Z</time>
      </trkpt>
      <trkpt lat="48.19311" lon="6.51527">
        <ele>371</ele>
        <time>2023-03-03T19:50:58Z</time>
      </trkpt>
      <trkpt lat="48.19311" lon="6.51527">
        <ele>371</ele>
        <time>2023-03-03T19:50:59Z</time>
      </trkpt>
      <trkpt lat="48.19311" lon="6.51527">
        <ele>371</ele>
        <time>2023-03-03T19:51:27Z</time>
      </trkpt>
      <trkpt lat="48.19311" lon="6.51527">
        <ele>371</ele>
        <time>2023-03-03T19:51:31Z</time>
      </trkpt>
      <trkpt lat="48.19311" lon="6.51527">
        <ele>371</ele>
        <time>2023-03-03T19:52:42Z</time>
      </trkpt>
      <trkpt lat="48.19311" lon="6.51527">
        <ele>371</ele>
        <time>2023-03-03T19:52:44Z</time>
      </trkpt>
      <trkpt lat="48.19311" lon="6.51527">
        <ele>371</ele>
        <time>2023-03-03T19:52:55Z</time>
      </trkpt>
      <trkpt lat="48.19311" lon="6.51527">
        <ele>371</ele>
        <time>2023-03-03T19:52:56Z</time>
      </trkpt>
      <trkpt lat="48.19311" lon="6.51527">
        <ele>371</ele>
        <time>2023-03-03T19:53:03Z</time>
      </trkpt>
      <trkpt lat="48.19311" lon="6.51527">
        <ele>371</ele>
        <time>2023-03-03T19:53:04Z</time>
      </trkpt>
      <trkpt lat="48.19311" lon="6.51527">
        <ele>371</ele>
        <time>2023-03-03T19:53:05Z</time>
      </trkpt>
      <trkpt lat="48.19311" lon="6.51527">
        <ele>371</ele>
        <time>2023-03-03T19:53:07Z</time>
      </trkpt>
      <trkpt lat="48.19311" lon="6.51527">
        <ele>371</ele>
        <time>2023-03-03T19:53:08Z</time>
      </trkpt>
      <trkpt lat="48.19311" lon="6.51527">
        <ele>371</ele>
        <time>2023-03-03T19:53:09Z</time>
      </trkpt>
      <trkpt lat="48.19311" lon="6.51527">
        <ele>371</ele>
        <time>2023-03-03T19:54:22Z</time>
      </trkpt>
      <trkpt lat="48.19311" lon="6.51527">
        <ele>371</ele>
        <time>2023-03-03T19:54:26Z</time>
      </trkpt>
      <trkpt lat="48.19311" lon="6.51527">
        <ele>371</ele>
        <time>2023-03-03T19:54:27Z</time>
      </trkpt>
      <trkpt lat="48.19312" lon="6.51527">
        <ele>371</ele>
        <time>2023-03-03T19:54:28Z</time>
      </trkpt>
      <trkpt lat="48.19312" lon="6.51527">
        <ele>371</ele>
        <time>2023-03-03T19:54:56Z</time>
      </trkpt>
      <trkpt lat="48.19312" lon="6.51527">
        <ele>371</ele>
        <time>2023-03-03T19:54:57Z</time>
      </trkpt>
      <trkpt lat="48.19312" lon="6.51527">
        <ele>371</ele>
        <time>2023-03-03T19:54:58Z</time>
      </trkpt>
      <trkpt lat="48.19312" lon="6.51527">
        <ele>371</ele>
        <time>2023-03-03T19:54:59Z</time>
      </trkpt>
      <trkpt lat="48.19312" lon="6.51527">
        <ele>371</ele>
        <time>2023-03-03T19:55:07Z</time>
      </trkpt>
      <trkpt lat="48.19312" lon="6.51527">
        <ele>371</ele>
        <time>2023-03-03T19:55:16Z</time>
      </trkpt>
      <trkpt lat="48.19312" lon="6.51527">
        <ele>371</ele>
        <time>2023-03-03T19:55:17Z</time>
      </trkpt>
      <trkpt lat="48.19312" lon="6.51527">
        <ele>371</ele>
        <time>2023-03-03T19:55:35Z</time>
      </trkpt>
      <trkpt lat="48.19312" lon="6.51528">
        <ele>371</ele>
        <time>2023-03-03T19:55:36Z</time>
      </trkpt>
      <trkpt lat="48.19312" lon="6.51528">
        <ele>371</ele>
        <time>2023-03-03T19:55:38Z</time>
      </trkpt>
      <trkpt lat="48.19312" lon="6.51528">
        <ele>371</ele>
        <time>2023-03-03T19:55:39Z</time>
      </trkpt>
      <trkpt lat="48.19312" lon="6.51528">
        <ele>371</ele>
        <time>2023-03-03T19:55:46Z</time>
      </trkpt>
      <trkpt lat="48.19312" lon="6.51528">
        <ele>371</ele>
        <time>2023-03-03T19:56:01Z</time>
      </trkpt>
      <trkpt lat="48.19312" lon="6.51528">
        <ele>371</ele>
        <time>2023-03-03T19:56:02Z</time>
      </trkpt>
      <trkpt lat="48.19312" lon="6.51528">
        <ele>371</ele>
        <time>2023-03-03T19:56:22Z</time>
      </trkpt>
      <trkpt lat="48.19312" lon="6.51528">
        <ele>371</ele>
        <time>2023-03-03T19:56:23Z</time>
      </trkpt>
      <trkpt lat="48.19312" lon="6.51528">
        <ele>371</ele>
        <time>2023-03-03T19:56:25Z</time>
      </trkpt>
      <trkpt lat="48.19312" lon="6.51528">
        <ele>371</ele>
        <time>2023-03-03T19:56:28Z</time>
      </trkpt>
      <trkpt lat="48.19312" lon="6.51528">
        <ele>371</ele>
        <time>2023-03-03T19:56:30Z</time>
      </trkpt>
      <trkpt lat="48.19312" lon="6.51528">
        <ele>371</ele>
        <time>2023-03-03T19:56:36Z</time>
      </trkpt>
      <trkpt lat="48.19312" lon="6.51528">
        <ele>371</ele>
        <time>2023-03-03T19:56:38Z</time>
      </trkpt>
      <trkpt lat="48.19312" lon="6.51528">
        <ele>371</ele>
        <time>2023-03-03T19:56:43Z</time>
      </trkpt>
      <trkpt lat="48.19312" lon="6.51528">
        <ele>371</ele>
        <time>2023-03-03T19:56:46Z</time>
      </trkpt>
      <trkpt lat="48.19312" lon="6.51528">
        <ele>371</ele>
        <time>2023-03-03T19:56:47Z</time>
      </trkpt>
      <trkpt lat="48.19313" lon="6.51528">
        <ele>371</ele>
        <time>2023-03-03T19:56:48Z</time>
      </trkpt>
      <trkpt lat="48.19313" lon="6.51528">
        <ele>371</ele>
        <time>2023-03-03T19:56:56Z</time>
      </trkpt>
      <trkpt lat="48.19313" lon="6.51528">
        <ele>371</ele>
        <time>2023-03-03T19:56:58Z</time>
      </trkpt>
      <trkpt lat="48.19313" lon="6.51528">
        <ele>371</ele>
        <time>2023-03-03T19:56:59Z</time>
      </trkpt>
      <trkpt lat="48.19313" lon="6.51528">
        <ele>371</ele>
        <time>2023-03-03T19:57:01Z</time>
      </trkpt>
      <trkpt lat="48.19313" lon="6.51528">
        <ele>371</ele>
        <time>2023-03-03T19:57:02Z</time>
      </trkpt>
      <trkpt lat="48.19313" lon="6.51528">
        <ele>371</ele>
        <time>2023-03-03T19:57:11Z</time>
      </trkpt>
      <trkpt lat="48.19313" lon="6.51528">
        <ele>371</ele>
        <time>2023-03-03T19:57:16Z</time>
      </trkpt>
      <trkpt lat="48.19313" lon="6.51528">
        <ele>371</ele>
        <time>2023-03-03T19:57:18Z</time>
      </trkpt>
      <trkpt lat="48.19313" lon="6.51528">
        <ele>371</ele>
        <time>2023-03-03T19:57:19Z</time>
      </trkpt>
      <trkpt lat="48.19313" lon="6.51528">
        <ele>371</ele>
        <time>2023-03-03T19:57:20Z</time>
      </trkpt>
      <trkpt lat="48.19313" lon="6.51528">
        <ele>371</ele>
        <time>2023-03-03T19:57:21Z</time>
      </trkpt>
      <trkpt lat="48.19313" lon="6.51528">
        <ele>371</ele>
        <time>2023-03-03T19:57:22Z</time>
      </trkpt>
      <trkpt lat="48.19313" lon="6.51528">
        <ele>371</ele>
        <time>2023-03-03T19:57:24Z</time>
      </trkpt>
      <trkpt lat="48.19313" lon="6.51528">
        <ele>371</ele>
        <time>2023-03-03T19:57:25Z</time>
      </trkpt>
      <trkpt lat="48.19313" lon="6.51528">
        <ele>371</ele>
        <time>2023-03-03T19:57:26Z</time>
      </trkpt>
      <trkpt lat="48.19313" lon="6.51528">
        <ele>371</ele>
        <time>2023-03-03T19:57:27Z</time>
      </trkpt>
      <trkpt lat="48.19313" lon="6.51528">
        <ele>371</ele>
        <time>2023-03-03T19:57:30Z</time>
      </trkpt>
      <trkpt lat="48.19313" lon="6.51528">
        <ele>371</ele>
        <time>2023-03-03T19:57:31Z</time>
      </trkpt>
      <trkpt lat="48.19313" lon="6.51528">
        <ele>371</ele>
        <time>2023-03-03T19:57:32Z</time>
      </trkpt>
      <trkpt lat="48.19313" lon="6.51528">
        <ele>371</ele>
        <time>2023-03-03T19:58:02Z</time>
      </trkpt>
      <trkpt lat="48.19313" lon="6.51528">
        <ele>371</ele>
        <time>2023-03-03T19:58:06Z</time>
      </trkpt>
      <trkpt lat="48.19313" lon="6.51528">
        <ele>371</ele>
        <time>2023-03-03T19:58:10Z</time>
      </trkpt>
      <trkpt lat="48.19313" lon="6.51528">
        <ele>371</ele>
        <time>2023-03-03T19:58:19Z</time>
      </trkpt>
      <trkpt lat="48.19313" lon="6.51528">
        <ele>371</ele>
        <time>2023-03-03T19:58:21Z</time>
      </trkpt>
      <trkpt lat="48.19314" lon="6.51528">
        <ele>371</ele>
        <time>2023-03-03T19:58:22Z</time>
      </trkpt>
      <trkpt lat="48.19314" lon="6.51528">
        <ele>371</ele>
        <time>2023-03-03T19:58:25Z</time>
      </trkpt>
      <trkpt lat="48.19314" lon="6.51528">
        <ele>371</ele>
        <time>2023-03-03T19:58:26Z</time>
      </trkpt>
      <trkpt lat="48.19314" lon="6.51528">
        <ele>371</ele>
        <time>2023-03-03T19:58:41Z</time>
      </trkpt>
      <trkpt lat="48.19314" lon="6.51528">
        <ele>371</ele>
        <time>2023-03-03T19:58:42Z</time>
      </trkpt>
      <trkpt lat="48.19314" lon="6.51528">
        <ele>371</ele>
        <time>2023-03-03T19:59:03Z</time>
      </trkpt>
      <trkpt lat="48.19314" lon="6.51528">
        <ele>371</ele>
        <time>2023-03-03T19:59:04Z</time>
      </trkpt>
      <trkpt lat="48.19314" lon="6.51528">
        <ele>371</ele>
        <time>2023-03-03T19:59:09Z</time>
      </trkpt>
      <trkpt lat="48.19314" lon="6.51528">
        <ele>371</ele>
        <time>2023-03-03T19:59:10Z</time>
      </trkpt>
      <trkpt lat="48.19314" lon="6.51528">
        <ele>371</ele>
        <time>2023-03-03T19:59:59Z</time>
      </trkpt>
      <trkpt lat="48.19314" lon="6.51528">
        <ele>371</ele>
        <time>2023-03-03T20:00:01Z</time>
      </trkpt>
      <trkpt lat="48.19314" lon="6.51529">
        <ele>371</ele>
        <time>2023-03-03T20:00:06Z</time>
      </trkpt>
      <trkpt lat="48.19314" lon="6.51529">
        <ele>371</ele>
        <time>2023-03-03T20:00:12Z</time>
      </trkpt>
      <trkpt lat="48.19314" lon="6.51529">
        <ele>371</ele>
        <time>2023-03-03T20:00:15Z</time>
      </trkpt>
      <trkpt lat="48.19314" lon="6.51529">
        <ele>371</ele>
        <time>2023-03-03T20:00:17Z</time>
      </trkpt>
      <trkpt lat="48.19314" lon="6.51529">
        <ele>371</ele>
        <time>2023-03-03T20:00:20Z</time>
      </trkpt>
      <trkpt lat="48.19314" lon="6.51529">
        <ele>371</ele>
        <time>2023-03-03T20:00:22Z</time>
      </trkpt>
      <trkpt lat="48.19314" lon="6.51529">
        <ele>371</ele>
        <time>2023-03-03T20:00:23Z</time>
      </trkpt>
      <trkpt lat="48.19314" lon="6.51529">
        <ele>371</ele>
        <time>2023-03-03T20:00:47Z</time>
      </trkpt>
      <trkpt lat="48.19314" lon="6.51529">
        <ele>371</ele>
        <time>2023-03-03T20:00:48Z</time>
      </trkpt>
      <trkpt lat="48.19314" lon="6.51529">
        <ele>371</ele>
        <time>2023-03-03T20:01:06Z</time>
      </trkpt>
      <trkpt lat="48.19314" lon="6.51529">
        <ele>371</ele>
        <time>2023-03-03T20:01:15Z</time>
      </trkpt>
      <trkpt lat="48.19314" lon="6.51529">
        <ele>371</ele>
        <time>2023-03-03T20:01:22Z</time>
      </trkpt>
      <trkpt lat="48.19314" lon="6.51529">
        <ele>371</ele>
        <time>2023-03-03T20:01:25Z</time>
      </trkpt>
      <trkpt lat="48.19314" lon="6.51529">
        <ele>371</ele>
        <time>2023-03-03T20:01:26Z</time>
      </trkpt>
      <trkpt lat="48.19315" lon="6.51529">
        <ele>371</ele>
        <time>2023-03-03T20:01:32Z</time>
      </trkpt>
      <trkpt lat="48.19315" lon="6.51529">
        <ele>371</ele>
        <time>2023-03-03T20:01:50Z</time>
      </trkpt>
      <trkpt lat="48.19315" lon="6.51529">
        <ele>371</ele>
        <time>2023-03-03T20:01:51Z</time>
      </trkpt>
      <trkpt lat="48.19315" lon="6.51529">
        <ele>371</ele>
        <time>2023-03-03T20:02:22Z</time>
      </trkpt>
      <trkpt lat="48.19315" lon="6.51529">
        <ele>371</ele>
        <time>2023-03-03T20:02:23Z</time>
      </trkpt>
      <trkpt lat="48.19315" lon="6.51529">
        <ele>371</ele>
        <time>2023-03-03T20:02:33Z</time>
      </trkpt>
      <trkpt lat="48.19315" lon="6.51529">
        <ele>371</ele>
        <time>2023-03-03T20:02:34Z</time>
      </trkpt>
      <trkpt lat="48.19315" lon="6.51529">
        <ele>371</ele>
        <time>2023-03-03T20:02:58Z</time>
      </trkpt>
      <trkpt lat="48.19315" lon="6.51529">
        <ele>371</ele>
        <time>2023-03-03T20:02:59Z</time>
      </trkpt>
      <trkpt lat="48.19315" lon="6.51529">
        <ele>371</ele>
        <time>2023-03-03T20:03:16Z</time>
      </trkpt>
      <trkpt lat="48.19315" lon="6.51529">
        <ele>371</ele>
        <time>2023-03-03T20:03:17Z</time>
      </trkpt>
      <trkpt lat="48.19315" lon="6.51529">
        <ele>371</ele>
        <time>2023-03-03T20:03:26Z</time>
      </trkpt>
      <trkpt lat="48.19315" lon="6.51529">
        <ele>371</ele>
        <time>2023-03-03T20:03:27Z</time>
      </trkpt>
      <trkpt lat="48.19315" lon="6.51529">
        <ele>371</ele>
        <time>2023-03-03T20:03:49Z</time>
      </trkpt>
      <trkpt lat="48.19315" lon="6.51529">
        <ele>371</ele>
        <time>2023-03-03T20:03:51Z</time>
      </trkpt>
      <trkpt lat="48.19315" lon="6.51529">
        <ele>371</ele>
        <time>2023-03-03T20:04:01Z</time>
      </trkpt>
      <trkpt lat="48.19315" lon="6.51529">
        <ele>371</ele>
        <time>2023-03-03T20:04:03Z</time>
      </trkpt>
      <trkpt lat="48.19315" lon="6.51529">
        <ele>371</ele>
        <time>2023-03-03T20:04:04Z</time>
      </trkpt>
      <trkpt lat="48.19315" lon="6.51529">
        <ele>371</ele>
        <time>2023-03-03T20:04:07Z</time>
      </trkpt>
      <trkpt lat="48.19315" lon="6.51529">
        <ele>371</ele>
        <time>2023-03-03T20:04:08Z</time>
      </trkpt>
      <trkpt lat="48.19315" lon="6.51529">
        <ele>371</ele>
        <time>2023-03-03T20:04:09Z</time>
      </trkpt>
      <trkpt lat="48.19315" lon="6.51529">
        <ele>371</ele>
        <time>2023-03-03T20:04:15Z</time>
      </trkpt>
      <trkpt lat="48.19315" lon="6.51529">
        <ele>371</ele>
        <time>2023-03-03T20:04:16Z</time>
      </trkpt>
      <trkpt lat="48.19315" lon="6.51529">
        <ele>371</ele>
        <time>2023-03-03T20:04:17Z</time>
      </trkpt>
      <trkpt lat="48.19315" lon="6.51529">
        <ele>371</ele>
        <time>2023-03-03T20:04:20Z</time>
      </trkpt>
      <trkpt lat="48.19316" lon="6.51529">
        <ele>371</ele>
        <time>2023-03-03T20:04:21Z</time>
      </trkpt>
      <trkpt lat="48.19316" lon="6.51529">
        <ele>371</ele>
        <time>2023-03-03T20:04:22Z</time>
      </trkpt>
      <trkpt lat="48.19316" lon="6.51529">
        <ele>371</ele>
        <time>2023-03-03T20:04:31Z</time>
      </trkpt>
      <trkpt lat="48.19316" lon="6.51529">
        <ele>371</ele>
        <time>2023-03-03T20:04:32Z</time>
      </trkpt>
      <trkpt lat="48.19316" lon="6.51529">
        <ele>371</ele>
        <time>2023-03-03T20:04:40Z</time>
      </trkpt>
      <trkpt lat="48.19316" lon="6.51529">
        <ele>371</ele>
        <time>2023-03-03T20:04:42Z</time>
      </trkpt>
      <trkpt lat="48.19316" lon="6.51529">
        <ele>371</ele>
        <time>2023-03-03T20:04:47Z</time>
      </trkpt>
      <trkpt lat="48.19316" lon="6.51529">
        <ele>371</ele>
        <time>2023-03-03T20:05:24Z</time>
      </trkpt>
      <trkpt lat="48.19316" lon="6.51529">
        <ele>371</ele>
        <time>2023-03-03T20:05:33Z</time>
      </trkpt>
      <trkpt lat="48.19316" lon="6.51529">
        <ele>371</ele>
        <time>2023-03-03T20:05:38Z</time>
      </trkpt>
      <trkpt lat="48.19316" lon="6.51529">
        <ele>371</ele>
        <time>2023-03-03T20:05:39Z</time>
      </trkpt>
      <trkpt lat="48.19316" lon="6.51529">
        <ele>371</ele>
        <time>2023-03-03T20:05:42Z</time>
      </trkpt>
      <trkpt lat="48.19316" lon="6.51529">
        <ele>371</ele>
        <time>2023-03-03T20:05:46Z</time>
      </trkpt>
      <trkpt lat="48.19316" lon="6.5153">
        <ele>371</ele>
        <time>2023-03-03T20:05:48Z</time>
      </trkpt>
      <trkpt lat="48.19316" lon="6.5153">
        <ele>371</ele>
        <time>2023-03-03T20:05:57Z</time>
      </trkpt>
      <trkpt lat="48.19316" lon="6.5153">
        <ele>371</ele>
        <time>2023-03-03T20:05:59Z</time>
      </trkpt>
      <trkpt lat="48.19316" lon="6.5153">
        <ele>371</ele>
        <time>2023-03-03T20:06:00Z</time>
      </trkpt>
      <trkpt lat="48.19316" lon="6.5153">
        <ele>371</ele>
        <time>2023-03-03T20:06:08Z</time>
      </trkpt>
      <trkpt lat="48.19316" lon="6.5153">
        <ele>371</ele>
        <time>2023-03-03T20:06:09Z</time>
      </trkpt>
      <trkpt lat="48.19316" lon="6.5153">
        <ele>371</ele>
        <time>2023-03-03T20:06:19Z</time>
      </trkpt>
      <trkpt lat="48.19316" lon="6.5153">
        <ele>371</ele>
        <time>2023-03-03T20:06:22Z</time>
      </trkpt>
      <trkpt lat="48.19316" lon="6.5153">
        <ele>371</ele>
        <time>2023-03-03T20:06:23Z</time>
      </trkpt>
      <trkpt lat="48.19316" lon="6.5153">
        <ele>371</ele>
        <time>2023-03-03T20:06:24Z</time>
      </trkpt>
      <trkpt lat="48.19316" lon="6.5153">
        <ele>371</ele>
        <time>2023-03-03T20:06:26Z</time>
      </trkpt>
      <trkpt lat="48.19316" lon="6.5153">
        <ele>371</ele>
        <time>2023-03-03T20:06:34Z</time>
      </trkpt>
      <trkpt lat="48.19317" lon="6.5153">
        <ele>371</ele>
        <time>2023-03-03T20:06:48Z</time>
      </trkpt>
      <trkpt lat="48.19317" lon="6.5153">
        <ele>371</ele>
        <time>2023-03-03T20:06:48Z</time>
      </trkpt>
    </trkseg>
  </trk>
</gpx>